[[{"header":{"parameterUnit":"m.s-1","parameterCategory":1,"la1":30.6,"la2":28.766,"lo1":-90.7593,"lo2":-88.6598,"dy":0.0162,"dx":0.0183,"nx":116,"ny":114,"refTime":"2024-06-12T00:00:00:Z","depth":0,"parameterNumber":2,"parameterNumberName":"U-component_of_WINDS"},"data":[0.0,0.0,0.0,0.0,0.0,0.0,0.0,0.0,0.0,0.0,0.0,0.0,0.0,0.0,0.0,0.0,0.0,0.0,0.0,0.0,0.0,0.0,0.0,0.0,0.0,0.0,0.0,0.0,0.0,0.0,0.0,0.0,0.0,0.0,0.0,0.0,0.0,0.0,0.0,0.0,0.0,0.0,0.0,0.0,0.0,0.0,0.0,0.0,0.0,0.0,0.0,0.0,0.0,0.0,0.0,0.0,0.0,0.0,0.0,0.0,0.0,0.0,0.0,0.0,0.0,0.0,0.0,0.0,0.0,0.0,0.0,0.0,0.0,0.0,0.0,0.0,0.0,0.0,0.0,0.0,0.0,0.0,0.0,0.0,0.0,0.0,0.0,0.0,0.0,0.0,0.0,0.0,0.0,0.0,0.0,0.0,0.0,0.0,0.0,0.0,0.0,0.0,0.0,0.0,0.0,0.0,0.0,0.0,0.0,0.0,0.0,0.0,0.0,0.0,0.0,0.0,0.0,0.0,0.0,0.0,0.0,0.0,0.0,0.0,0.0,0.0,0.0,0.0,0.0,0.0,0.0,0.0,0.0,0.0,0.0,0.0,0.0,0.0,0.0,0.0,0.0,0.0,0.0,0.0,0.0,0.0,0.0,0.0,0.0,0.0,0.0,0.0,0.0,0.0,0.0,0.0,0.0,0.0,0.0,0.0,0.0,0.0,0.0,0.0,0.0,0.0,0.0,0.0,0.0,0.0,0.0,0.0,0.0,0.0,0.0,0.0,0.0,0.0,0.0,0.0,0.0,0.0,0.0,0.0,0.0,0.0,0.0,0.0,0.0,0.0,0.0,0.0,0.0,0.0,0.0,0.0,0.0,0.0,0.0,0.0,0.0,0.0,0.0,0.0,0.0,0.0,0.0,0.0,0.0,0.0,0.0,0.0,0.0,0.0,0.0,0.0,0.0,0.0,0.0,0.0,0.0,0.0,0.0,0.0,0.0,0.0,0.0,0.0,0.0,0.0,0.0,0.0,0.0,0.0,0.0,0.0,0.0,0.0,0.0,0.0,0.0,0.0,0.0,0.0,0.0,0.0,0.0,0.0,0.0,0.0,0.0,0.0,0.0,0.0,0.0,0.0,0.0,0.0,0.0,0.0,0.0,0.0,0.0,0.0,0.0,0.0,0.0,0.0,0.0,0.0,0.0,0.0,0.0,0.0,0.0,0.0,0.0,0.0,0.0,0.0,0.0,0.0,0.0,0.0,0.0,0.0,0.0,0.0,0.0,0.0,0.0,0.0,0.0,0.0,0.0,0.0,0.0,0.0,0.0,0.0,0.0,0.0,0.0,0.0,0.0,0.0,0.0,0.0,0.0,0.0,0.0,0.0,0.0,0.0,0.0,0.0,0.0,0.0,0.0,0.0,0.0,0.0,0.0,0.0,0.0,0.0,0.0,0.0,0.0,0.0,0.0,0.0,0.0,0.0,0.0,0.0,0.0,0.0,0.0,0.0,0.0,0.0,0.0,0.0,0.0,0.0,0.0,0.0,0.0,0.0,0.0,0.0,0.0,0.0,0.0,0.0,0.0,0.0,0.0,0.0,0.0,0.0,0.0,0.0,0.0,0.0,0.0,0.0,0.0,0.0,0.0,0.0,0.0,0.0,0.0,0.0,0.0,0.0,0.0,0.0,0.0,0.0,0.0,0.0,0.0,0.0,0.0,0.0,0.0,0.0,0.0,0.0,0.0,0.0,0.0,0.0,0.0,0.0,0.0,0.0,0.0,0.0,0.0,0.0,0.0,0.0,0.0,0.0,0.0,0.0,0.0,0.0,0.0,0.0,0.0,0.0,0.0,0.0,0.0,0.0,0.0,0.0,0.0,0.0,0.0,0.0,0.0,0.0,0.0,0.0,0.0,0.0,0.0,0.0,0.0,0.0,0.0,0.0,0.0,0.0,0.0,0.0,0.0,0.0,0.0,0.0,0.0,0.0,0.0,0.0,0.0,0.0,0.0,0.0,0.0,0.0,0.0,0.0,0.0,0.0,0.0,0.0,0.0,0.0,0.0,0.0,0.0,0.0,0.0,0.0,0.0,0.0,0.0,0.0,0.0,0.0,0.0,0.0,0.0,0.0,0.0,0.0,0.0,0.0,0.0,0.0,0.0,0.0,0.0,0.0,0.0,0.0,0.0,0.0,0.0,0.0,0.0,0.0,0.0,0.0,0.0,0.0,0.0,0.0,0.0,0.0,0.0,0.0,0.0,0.0,0.0,0.0,0.0,0.0,0.0,0.0,0.0,0.0,0.0,0.0,0.0,0.0,0.0,0.0,0.0,0.0,0.0,0.0,0.0,0.0,0.0,0.0,0.0,0.0,0.0,0.0,0.0,0.0,0.0,0.0,0.0,0.0,0.0,0.0,0.0,0.0,0.0,0.0,0.0,0.0,0.0,0.0,0.0,0.0,0.0,0.0,0.0,0.0,0.0,0.0,0.0,0.0,0.0,0.0,0.0,0.0,0.0,0.0,0.0,0.0,0.0,0.0,0.0,0.0,0.0,0.0,0.0,0.0,0.0,0.0,0.0,0.0,0.0,0.0,0.0,0.0,0.0,0.0,0.0,0.0,0.0,0.0,0.0,0.0,0.0,0.0,0.0,0.0,0.0,0.0,0.0,0.0,0.0,0.0,0.0,0.0,0.0,0.0,0.0,0.0,0.0,0.0,0.0,0.0,0.0,0.0,0.0,0.0,0.0,0.0,0.0,0.0,0.0,0.0,0.0,0.0,0.0,0.0,0.0,0.0,0.0,0.0,0.0,0.0,0.0,0.0,0.0,0.0,0.0,0.0,0.0,0.0,0.0,0.0,0.0,0.0,0.0,0.0,0.0,0.0,0.0,0.0,0.0,0.0,0.0,0.0,0.0,0.0,0.0,0.0,0.0,0.0,0.0,0.0,0.0,0.0,0.0,0.0,0.0,0.0,0.0,0.0,0.0,0.0,0.0,0.0,0.0,0.0,0.0,0.0,0.0,0.0,0.0,0.0,0.0,0.0,0.0,0.0,0.0,0.0,0.0,0.0,0.0,0.0,0.0,0.0,0.0,0.0,0.0,0.0,0.0,0.0,0.0,0.0,0.0,0.0,0.0,0.0,0.0,0.0,0.0,0.0,0.0,0.0,0.0,0.0,0.0,0.0,0.0,0.0,0.0,0.0,0.0,0.0,0.0,0.0,0.0,0.0,0.0,0.0,0.0,0.0,0.0,0.0,0.0,0.0,0.0,0.0,0.0,0.0,0.0,0.0,0.0,0.0,0.0,0.0,0.0,0.0,0.0,0.0,0.0,0.0,0.0,0.0,0.0,0.0,0.0,0.0,0.0,0.0,0.0,0.0,0.0,0.0,0.0,0.0,0.0,0.0,0.0,0.0,0.0,0.0,0.0,0.0,0.0,0.0,0.0,0.0,0.0,0.0,0.0,0.0,0.0,0.0,0.0,0.0,0.0,0.0,0.0,0.0,0.0,0.0,0.0,0.0,0.0,0.0,0.0,0.0,0.0,0.0,0.0,0.0,0.0,0.0,0.0,0.0,0.0,0.0,0.0,0.0,0.0,0.0,0.0,0.0,0.0,0.0,0.0,0.0,0.0,0.0,0.0,0.0,0.0,0.0,0.0,0.0,0.0,0.0,0.0,0.0,0.0,0.0,0.0,0.0,0.0,0.0,0.0,0.0,0.0,0.0,0.0,0.0,0.0,0.0,0.0,0.0,0.0,0.0,0.0,0.0,0.0,0.0,0.0,0.0,0.0,0.0,0.0,0.0,0.0,0.0,0.0,0.0,0.0,0.0,0.0,0.0,0.0,0.0,0.0,0.0,0.0,0.0,0.0,0.0,0.0,0.0,0.0,0.0,0.0,0.0,0.0,0.0,0.0,0.0,0.0,0.0,0.0,0.0,0.0,0.0,0.0,0.0,0.0,0.0,0.0,0.0,0.0,0.0,0.0,0.0,0.0,0.0,0.0,0.0,0.0,0.0,0.0,0.0,0.0,0.0,0.0,0.0,0.0,0.0,0.0,0.0,0.0,0.0,0.0,0.0,0.0,0.0,0.0,0.0,0.0,0.0,0.0,0.0,0.0,0.0,0.0,0.0,0.0,0.0,0.0,0.0,0.0,0.0,0.0,0.0,0.0,0.0,0.0,0.0,0.0,0.0,0.0,0.0,0.0,0.0,0.0,0.0,0.0,0.0,0.0,0.0,0.0,0.0,0.0,0.0,0.0,0.0,0.0,0.0,0.0,0.0,0.0,0.0,0.0,0.0,0.0,0.0,0.0,0.0,0.0,0.0,0.0,0.0,0.0,0.0,0.0,0.0,0.0,0.0,0.0,0.0,0.0,0.0,0.0,0.0,0.0,0.0,0.0,0.0,0.0,0.0,0.0,0.0,0.0,0.0,0.0,0.0,0.0,0.0,0.0,0.0,0.0,0.0,0.0,0.0,0.0,0.0,0.0,0.0,0.0,0.0,0.0,0.0,0.0,0.0,0.0,0.0,0.0,0.0,0.0,0.0,0.0,0.0,0.0,0.0,0.0,0.0,0.0,0.0,0.0,0.0,0.0,0.0,0.0,0.0,0.0,0.0,0.0,0.0,0.0,0.0,0.0,0.0,0.0,0.0,0.0,0.0,0.0,0.0,0.0,0.0,0.0,0.0,0.0,0.0,0.0,0.0,0.0,0.0,0.0,0.0,0.0,0.0,0.0,0.0,0.0,0.0,0.0,0.0,0.0,0.0,0.0,0.0,0.0,0.0,0.0,0.0,0.0,0.0,0.0,0.0,0.0,0.0,0.0,0.0,0.0,0.0,0.0,0.0,0.0,0.0,0.0,0.0,0.0,0.0,0.0,0.0,0.0,0.0,0.0,0.0,0.0,0.0,0.0,0.0,0.0,0.0,0.0,0.0,0.0,0.0,0.0,0.0,0.0,0.0,0.0,0.0,0.0,0.0,0.0,0.0,0.0,0.0,0.0,0.0,0.0,0.0,0.0,0.0,0.0,0.0,0.0,0.0,0.0,0.0,0.0,0.0,0.0,0.0,0.0,0.0,0.0,0.0,0.0,0.0,0.0,0.0,0.0,0.0,0.0,0.0,0.0,0.0,0.0,0.0,0.0,0.0,0.0,0.0,0.0,0.0,0.0,0.0,0.0,0.0,0.0,0.0,0.0,0.0,0.0,0.0,0.0,0.0,0.0,0.0,0.0,0.0,0.0,0.0,0.0,0.0,0.0,0.0,0.0,0.0,0.0,0.0,0.0,0.0,0.0,0.0,0.0,0.0,0.0,0.0,0.0,0.0,0.0,0.0,0.0,0.0,0.0,0.0,0.0,0.0,0.0,0.0,0.0,0.0,0.0,0.0,0.0,0.0,0.0,0.0,0.0,0.0,0.0,0.0,0.0,0.0,0.0,0.0,0.0,0.0,0.0,0.0,0.0,0.0,0.0,0.0,0.0,0.0,0.0,0.0,0.0,0.0,0.0,0.0,0.0,0.0,0.0,0.0,0.0,0.0,0.0,0.0,0.0,0.0,0.0,0.0,0.0,0.0,0.0,0.0,0.0,0.0,0.0,0.0,0.0,0.0,0.0,0.0,0.0,0.0,0.0,0.0,0.0,0.0,0.0,0.0,0.0,0.0,0.0,0.0,0.0,0.0,0.0,0.0,0.0,0.0,0.0,0.0,0.0,0.0,0.0,0.0,0.0,0.0,0.0,0.0,0.0,0.0,0.0,0.0,0.0,0.0,0.0,0.0,0.0,0.0,0.0,0.0,0.0,0.0,0.0,0.0,0.0,0.0,0.0,0.0,0.0,0.0,0.0,0.0,0.0,0.0,0.0,0.0,0.0,0.0,0.0,0.0,0.0,0.0,0.0,0.0,0.0,0.0,0.0,0.0,0.0,0.0,0.0,0.0,0.0,0.0,0.0,0.0,0.0,0.0,0.0,0.0,0.0,0.0,0.0,0.0,0.0,0.0,0.0,0.0,0.0,0.0,0.0,0.0,0.0,0.0,0.0,0.0,0.0,0.0,0.0,0.0,0.0,0.0,0.0,0.0,0.0,0.0,0.0,0.0,0.0,0.0,0.0,0.0,-3.1028,-3.0733,0.0,0.0,0.0,0.0,0.0,0.0,0.0,0.0,0.0,0.0,0.0,0.0,0.0,0.0,0.0,0.0,0.0,0.0,0.0,0.0,0.0,0.0,0.0,-0.7616,-0.8156,-0.8738,-0.9093,-0.9581,-1.0293,0.0,0.0,0.0,0.0,0.0,-1.2578,-1.2813,-1.3035,-1.329,-1.3621,-1.4186,-1.4915,-1.504,-1.5255,-1.5547,0.0,0.0,0.0,0.0,0.0,0.0,0.0,0.0,0.0,0.0,0.0,0.0,0.0,0.0,0.0,0.0,0.0,0.0,0.0,0.0,0.0,0.0,0.0,0.0,0.0,0.0,0.0,0.0,0.0,0.0,0.0,0.0,0.0,0.0,0.0,0.0,0.0,0.0,0.0,0.0,0.0,0.0,0.0,0.0,0.0,0.0,0.0,0.0,0.0,0.0,0.0,0.0,0.0,0.0,0.0,0.0,0.0,0.0,0.0,0.0,0.0,0.0,0.0,0.0,0.0,0.0,0.0,0.0,0.0,0.0,-3.1471,-3.1247,0.0,0.0,0.0,0.0,0.0,0.0,0.0,0.0,0.0,0.0,0.0,0.0,0.0,0.0,0.0,0.0,0.0,0.0,0.0,0.0,0.0,-0.6815,-0.7643,-0.815,-0.8705,-0.9387,-0.9666,-1.0131,-1.0896,-1.12,0.0,0.0,0.0,-1.2798,-1.2944,-1.3132,-1.3372,-1.3634,-1.3986,-1.4628,-1.5491,-1.5703,-1.5836,-1.5903,-1.5881,0.0,0.0,0.0,0.0,0.0,0.0,0.0,0.0,0.0,0.0,0.0,0.0,0.0,0.0,0.0,0.0,0.0,0.0,0.0,0.0,0.0,0.0,0.0,0.0,0.0,0.0,0.0,0.0,0.0,0.0,0.0,0.0,0.0,0.0,0.0,0.0,0.0,0.0,0.0,0.0,0.0,0.0,0.0,0.0,0.0,0.0,0.0,0.0,0.0,0.0,0.0,0.0,0.0,0.0,0.0,0.0,0.0,0.0,0.0,0.0,0.0,0.0,0.0,-3.1852,-3.1861,-3.1885,-3.1933,-3.1884,-3.1836,-3.2152,-3.202,-3.1627,-3.1649,0.0,0.0,0.0,0.0,0.0,0.0,0.0,0.0,0.0,0.0,0.0,0.0,0.0,0.0,0.0,0.0,0.0,0.0,0.0,-0.7085,-0.7791,-0.8302,-0.8837,-0.951,-0.9706,-1.0146,-1.1023,-1.1326,0.0,0.0,-1.2783,-1.2958,-1.3146,-1.329,-1.3515,-1.3763,-1.4455,-1.5028,-1.5491,-1.5703,-1.5991,-1.6318,-1.6188,-1.6156,-1.6156,0.0,0.0,0.0,0.0,0.0,0.0,0.0,0.0,0.0,0.0,0.0,0.0,0.0,0.0,0.0,0.0,0.0,0.0,0.0,0.0,0.0,0.0,0.0,0.0,0.0,0.0,0.0,0.0,0.0,0.0,0.0,0.0,0.0,0.0,0.0,0.0,0.0,0.0,0.0,0.0,0.0,-2.5394,-2.6218,0.0,0.0,0.0,0.0,0.0,0.0,0.0,0.0,0.0,0.0,0.0,0.0,0.0,-3.2269,-3.2159,-3.2802,-3.3155,-3.3258,-3.3258,-3.3294,-3.3422,-3.331,-3.3181,-3.305,-3.2998,0.0,-3.1684,-3.1825,0.0,0.0,0.0,0.0,0.0,0.0,0.0,0.0,0.0,0.0,0.0,0.0,0.0,0.0,0.0,0.0,0.0,0.0,0.0,0.0,0.0,-0.8573,-0.9054,-0.9655,-0.9947,-1.036,-1.1074,-1.1427,-1.2002,-1.2887,-1.3188,-1.3437,-1.3596,-1.3807,-1.3904,-1.3915,-1.4466,-1.4926,-1.5289,-1.5558,-1.5869,-1.6175,-1.6188,-1.6253,-1.6383,-1.6383,0.0,0.0,0.0,0.0,0.0,0.0,0.0,0.0,0.0,0.0,0.0,0.0,0.0,0.0,0.0,0.0,0.0,0.0,0.0,0.0,0.0,0.0,0.0,0.0,0.0,0.0,0.0,0.0,0.0,0.0,0.0,0.0,0.0,0.0,0.0,0.0,0.0,0.0,0.0,-2.4974,-2.6301,-2.7237,-2.8289,-2.9061,0.0,0.0,0.0,0.0,0.0,0.0,0.0,0.0,0.0,-3.163,-3.2683,-3.3222,-3.3141,-3.3412,-3.3552,-3.3591,-3.3173,-3.3011,-3.3091,-3.315,-3.3069,-3.2893,-3.2839,-3.2587,-3.221,-3.2269,-3.2196,-3.2067,0.0,0.0,0.0,0.0,-3.0784,-3.0455,0.0,0.0,0.0,0.0,0.0,0.0,0.0,0.0,0.0,0.0,0.0,0.0,-0.8315,-0.8771,-0.9218,-0.9747,-1.0032,-1.0419,-1.0972,-1.1352,-1.1973,-1.2964,-1.3384,-1.3724,-1.4016,-1.42,-1.4185,-1.3949,-1.4348,-1.4685,-1.4983,-1.5277,-1.5591,-1.5891,-1.5991,-1.6166,-1.6414,-1.6414,-1.6392,-1.6362,0.0,0.0,0.0,0.0,0.0,0.0,0.0,0.0,0.0,0.0,0.0,0.0,0.0,0.0,0.0,0.0,0.0,0.0,0.0,0.0,0.0,0.0,0.0,0.0,0.0,0.0,0.0,0.0,0.0,0.0,0.0,0.0,0.0,0.0,0.0,0.0,0.0,-2.6167,-2.724,-2.8272,-2.922,-2.9925,0.0,0.0,0.0,0.0,0.0,0.0,-3.1706,-3.2217,-3.2509,-3.2547,-3.3547,-3.4091,-3.4035,-3.3934,-3.3906,-3.3947,-3.3237,-3.2912,-3.2939,-3.2851,-3.2746,-3.2594,-3.2551,-3.2578,-3.2602,-3.2672,-3.2552,-3.2331,-3.2378,-3.235,-3.2174,-3.1492,-3.1039,-3.0695,0.0,0.0,0.0,0.0,0.0,0.0,0.0,0.0,0.0,0.0,0.0,-0.7708,-0.8342,-0.8771,-0.9218,-0.9747,-0.9825,-1.0084,0.0,-1.0972,-1.1617,-1.267,-1.3112,-1.3614,-1.4261,-1.4292,-1.4135,-1.3821,-1.4221,-1.4477,-1.4627,-1.4846,-1.5164,-1.5536,-1.5536,-1.578,-1.6222,-1.6222,-1.6222,-1.6222,-1.6222,0.0,0.0,0.0,0.0,0.0,0.0,0.0,0.0,0.0,0.0,0.0,0.0,0.0,0.0,0.0,0.0,0.0,0.0,0.0,0.0,0.0,0.0,0.0,0.0,0.0,0.0,0.0,0.0,0.0,0.0,0.0,0.0,0.0,0.0,0.0,0.0,0.0,0.0,-2.9161,-2.9559,0.0,0.0,0.0,0.0,-3.1491,-3.1564,-3.2206,-3.368,-3.3802,-3.4014,-3.4537,-3.463,-3.4589,-3.4472,-3.4443,-3.4531,-3.4661,-3.3978,-3.3709,-3.382,-3.297,-3.2621,-3.2578,-3.2453,-3.248,-3.2605,-3.2796,-3.2615,-3.2212,-3.2364,-3.1976,-3.1348,-3.1316,-3.1169,-3.0961,0.0,0.0,0.0,0.0,0.0,-0.5173,-0.5614,-0.6045,-0.6413,-0.6674,-0.7166,-0.7708,-0.8215,-0.8639,-0.9061,-0.9498,-0.9621,-0.9888,-1.0419,-1.0693,-1.1285,-1.228,-1.2857,-1.361,-1.4531,-1.4118,-1.3892,-1.3854,-1.3789,-1.3881,-1.408,-1.435,-1.4617,-1.4914,-1.4983,-1.5085,-1.5266,-1.5736,-1.5947,-1.5947,-1.5947,-1.6078,0.0,0.0,0.0,0.0,0.0,0.0,0.0,0.0,0.0,0.0,0.0,0.0,0.0,0.0,0.0,0.0,0.0,0.0,0.0,0.0,0.0,0.0,0.0,0.0,0.0,0.0,0.0,0.0,0.0,0.0,0.0,0.0,0.0,0.0,0.0,0.0,0.0,-2.9618,-3.0884,0.0,-3.2033,-3.2655,-3.3177,-3.3578,-3.3593,-3.3839,-3.4392,-3.4423,-3.4475,-3.4577,-3.498,-3.5182,-3.5152,-3.5152,-3.5182,-3.5196,-3.4546,-3.4251,-3.4264,-3.3468,-3.31,-3.3085,-3.261,-3.2425,-3.248,-3.2551,-3.2671,-3.2772,-3.2825,-3.2693,-3.2399,-3.1927,-3.1616,-3.1311,0.0,0.0,0.0,0.0,-0.4545,-0.5183,-0.566,-0.6064,-0.6386,-0.6571,-0.7085,-0.7568,-0.7922,-0.8381,-0.8824,-0.9171,-0.9309,-0.9595,-1.0025,-1.0275,-1.0839,-1.178,-1.2742,-1.3608,-1.4382,-1.3949,-1.3688,-1.3659,-1.34,-1.3362,-1.3539,-1.3752,-1.4012,-1.4267,-1.4305,-1.4387,-1.4502,-1.4994,-1.53,-1.5491,-1.5491,-1.5669,-1.5969,0.0,0.0,0.0,0.0,0.0,0.0,0.0,0.0,0.0,0.0,0.0,0.0,0.0,0.0,0.0,0.0,0.0,0.0,0.0,0.0,0.0,0.0,0.0,0.0,0.0,0.0,0.0,0.0,0.0,0.0,0.0,0.0,0.0,0.0,-2.879,-2.9843,-3.0455,-3.2005,-3.311,-3.3376,-3.4052,-3.4534,-3.4635,-3.4635,-3.4728,-3.496,-3.4976,-3.5025,-3.5183,-3.5614,-3.583,-3.583,-3.583,-3.583,-3.5845,-3.5167,-3.4844,-3.4813,-3.412,-3.3767,-3.3721,-3.3029,-3.2736,-3.2721,-3.249,-3.2563,-3.2866,-3.2866,-3.2866,-3.2803,-3.232,-3.2016,-3.1824,0.0,0.0,0.0,-0.3615,-0.4335,-0.5038,-0.5513,-0.5927,-0.6228,-0.6354,-0.6918,-0.7321,-0.7467,-0.8023,-0.8474,-0.8751,-0.8896,-0.9159,-0.9562,-0.9718,-1.0233,-1.1239,-1.2701,-1.3559,-1.3768,-1.3718,-1.3522,-1.3189,-1.3037,-1.2967,-1.2967,-1.3088,-1.3314,-1.3573,-1.3573,-1.3705,-1.3954,-1.3954,-1.4305,-1.4857,-1.488,-1.5142,-1.5492,0.0,0.0,0.0,0.0,0.0,0.0,0.0,0.0,0.0,0.0,0.0,0.0,0.0,0.0,0.0,0.0,0.0,0.0,0.0,0.0,0.0,0.0,0.0,0.0,0.0,0.0,0.0,0.0,0.0,0.0,0.0,0.0,0.0,-2.7925,-2.9428,-3.0835,-3.1678,-3.2745,-3.3592,-3.4134,-3.4418,-3.4537,-3.4566,-3.4566,-3.4859,-3.5506,-3.5537,-3.5845,-3.6476,-3.6492,-3.6492,-3.6492,-3.6492,-3.6492,-3.6476,-3.583,-3.5537,-3.5521,-3.4844,-3.4536,-3.4489,-3.3752,-3.3429,-3.3352,-3.269,-3.2413,-3.2398,-3.2398,-3.2398,-3.2398,-3.2398,-3.2398,-3.2398,0.0,0.0,-0.2968,-0.3232,-0.388,-0.4512,-0.4881,-0.5403,-0.5814,-0.5941,-0.6485,-0.6923,-0.7041,-0.7467,-0.7857,-0.8111,-0.8415,-0.8685,-0.9014,-0.9223,-0.9897,-1.1106,-1.2184,-1.2995,-1.3438,-1.3092,-1.2887,-1.2905,-1.2346,-1.2157,-1.2353,-1.2387,-1.2535,-1.2813,-1.2813,-1.2837,-1.29,-1.29,-1.3263,-1.3889,-1.461,-1.5078,-1.5398,0.0,0.0,0.0,0.0,0.0,0.0,0.0,0.0,0.0,0.0,0.0,0.0,0.0,0.0,0.0,0.0,0.0,0.0,0.0,0.0,0.0,0.0,0.0,0.0,0.0,0.0,0.0,0.0,0.0,0.0,0.0,-2.7839,-2.839,-2.8777,-2.9832,-3.0813,-3.1438,-3.263,-3.362,-3.4141,-3.503,-3.5645,-3.5722,-3.5861,-3.6014,-3.6199,-3.6215,-3.6307,-3.6492,-3.6492,-3.6492,-3.6492,-3.6492,-3.6492,-3.6492,-3.6307,-3.6215,-3.6184,-3.5537,-3.5244,-3.5198,-3.4505,-3.3875,-3.3398,-3.3198,-3.2844,-3.2398,-3.2398,-3.2398,-3.2398,-3.2398,-3.2398,-3.2398,0.0,-0.2362,-0.277,-0.2973,-0.3544,-0.4042,-0.4353,-0.4822,-0.5175,-0.5332,-0.5796,-0.6186,-0.6332,-0.6707,-0.7074,-0.7337,-0.767,-0.799,-0.8329,-0.8878,-0.968,-1.0734,-1.1469,-1.2119,-1.265,-1.2249,-1.2075,-1.2206,-1.1549,-1.1368,-1.1603,-1.1603,-1.1694,-1.1902,-1.1902,-1.1977,-1.2085,-1.2225,-1.257,-1.307,-1.404,-1.4728,-1.5185,-1.5694,-1.6232,-1.6758,-1.6947,-1.7328,-1.7745,-1.7833,0.0,0.0,0.0,0.0,0.0,0.0,0.0,0.0,0.0,0.0,0.0,0.0,0.0,0.0,0.0,0.0,0.0,0.0,0.0,0.0,0.0,0.0,0.0,0.0,-2.8752,-2.9223,-2.9538,-3.0271,-3.0973,-3.1519,-3.2748,-3.3771,-3.4233,-3.5108,-3.5703,-3.5784,-3.6022,-3.6148,-3.6148,-3.6289,-3.6383,-3.6383,-3.646,-3.6492,-3.6492,-3.6492,-3.646,-3.6383,-3.6383,-3.6352,-3.6289,-3.5953,-3.5769,-3.5676,-3.5063,-3.4298,-3.3523,-3.3307,-3.2787,0.0,0.0,0.0,0.0,0.0,-3.233,-3.233,0.0,-0.2241,-0.2512,-0.2726,-0.3128,-0.3544,-0.3799,-0.4159,-0.4432,-0.4591,-0.4948,-0.5254,-0.5454,-0.5832,-0.6154,-0.6426,-0.6776,-0.716,0.0,0.0,-0.9422,-1.0117,-1.0618,-1.1124,-1.1639,-1.1299,-1.1166,-1.13,-1.0777,-1.0643,-1.0806,-1.0806,-1.0883,-1.1012,-1.1012,-1.1166,-1.1439,-1.173,-1.2052,-1.244,-1.3291,-1.4145,-1.4891,-1.519,-1.5791,-1.6493,-1.674,-1.7313,-1.7968,-1.8146,0.0,0.0,0.0,0.0,0.0,0.0,0.0,0.0,0.0,0.0,0.0,0.0,0.0,0.0,0.0,0.0,0.0,0.0,0.0,0.0,0.0,0.0,0.0,0.0,-2.9797,-3.0113,-3.0179,-3.0675,-3.1199,-3.1728,-3.2869,-3.3796,-3.4187,-3.4725,-3.5055,-3.507,-3.5382,-3.5591,-3.5623,-3.5911,0.0,0.0,0.0,-3.6398,-3.6398,-3.6398,-3.6289,-3.6101,-3.6101,-3.6053,-3.5941,-3.6053,-3.6038,-3.5896,-3.5414,-3.4652,-3.3713,-3.3215,-3.2475,-3.171,-3.2176,-3.2342,-3.2342,-3.2219,-3.2163,-3.2163,0.0,-0.1389,-0.1614,-0.1821,-0.2184,-0.2573,-0.2912,-0.333,-0.3688,-0.3935,-0.4233,-0.4484,-0.468,-0.4983,-0.5254,-0.5523,-0.5946,-0.6506,0.0,0.0,-0.8647,-0.9058,-0.9787,-1.038,-1.0737,-1.0566,-1.0552,-1.0664,-1.0293,-1.0193,-1.0326,-1.0326,-1.041,-1.0543,-1.0543,-1.0662,-1.0864,-1.0918,-1.1393,-1.211,-1.2576,-1.3468,-1.464,-1.5171,-1.5701,-1.6198,-1.6357,-1.6617,-1.6991,-1.7596,-1.7928,-1.8213,-1.8986,-1.9413,0.0,0.0,0.0,0.0,0.0,0.0,0.0,0.0,0.0,0.0,0.0,0.0,0.0,0.0,0.0,0.0,0.0,0.0,0.0,-2.9826,-3.0022,-3.0257,-3.0764,-3.1077,-3.1359,-3.1602,-3.2227,-3.2832,-3.322,-3.3762,-3.4138,-3.4308,-3.461,-3.4876,-3.5041,-3.5252,-3.5447,-3.5561,-3.5593,-3.5608,-3.5608,-3.5608,-3.5593,-3.5561,-3.5561,0.0,-3.5512,-3.5529,-3.5529,-3.5497,-3.528,-3.4765,-3.4046,-3.3297,-3.2362,-3.1423,-3.1896,-3.2066,-3.2066,-3.2053,-3.2038,-3.2038,-0.0109,-0.061,-0.1066,-0.1206,-0.1484,-0.1762,-0.2099,-0.2406,-0.2685,-0.2877,-0.3155,-0.3433,-0.3683,-0.3876,-0.4154,-0.4562,-0.5144,0.0,0.0,-0.7047,-0.7621,-0.7985,-0.8638,-0.9122,-0.9358,-0.9227,-0.9236,-0.9388,-0.905,-0.8972,-0.9111,-0.9111,-0.9198,-0.9356,-0.9356,-0.9524,-0.9877,-1.0151,-1.0695,-1.1435,-1.185,-1.2595,-1.362,-1.4593,-1.5147,-1.5439,-1.5661,-1.6004,-1.6383,-1.6814,-1.731,-1.7841,-1.8298,-1.8912,-1.9465,0.0,0.0,0.0,0.0,0.0,0.0,0.0,0.0,0.0,0.0,0.0,0.0,0.0,0.0,-2.7751,-2.849,0.0,-2.9475,-3.013,-3.0332,-3.0524,-3.081,-3.1024,-3.1235,-3.1421,-3.1863,-3.2228,-3.2444,-3.2832,-3.3136,-3.3241,-3.3693,-3.4002,-3.407,-3.4457,-3.4677,-3.4743,-3.4828,-3.4846,-3.4846,-3.4846,-3.4828,-3.4743,-3.4743,-3.4695,-3.4595,-3.4695,-3.4695,-3.4595,-3.4643,-3.4126,-3.3161,-3.2129,-3.1302,-3.0732,-3.097,-3.1307,-3.164,-3.1452,-3.1452,-3.1481,0.0842,0.0196,-0.0393,-0.0617,-0.0784,-0.0979,-0.1286,-0.1483,-0.1651,-0.179,-0.2027,-0.2317,-0.2625,-0.2695,-0.2974,0.0,0.0,0.0,0.0,-0.5875,-0.641,-0.6776,-0.7307,-0.767,-0.7842,-0.779,-0.785,-0.8038,-0.7761,-0.7698,-0.7838,-0.7838,-0.7938,-0.813,-0.813,-0.8394,-0.8842,-0.9309,-0.9899,-1.055,-1.1073,-1.1672,-1.2367,-1.3629,-1.4282,-1.4558,-1.4907,-1.5381,-1.5865,-1.6167,-1.6751,-1.7405,-1.7622,-1.8343,-1.9169,-1.9264,-1.9921,0.0,0.0,0.0,0.0,0.0,0.0,0.0,0.0,-2.4613,-2.5457,-2.6166,-2.7017,-2.7891,-2.8737,-2.9026,-2.9366,-3.0088,-3.0368,-3.0533,-3.0584,-3.0761,-3.0936,-3.1123,-3.1508,-3.178,-3.178,-3.2082,-3.2237,-3.2237,-3.2739,-3.3023,-3.3058,-3.35,-3.3796,-3.3831,-3.3953,-3.3973,-3.3973,-3.3973,-3.3953,-3.3831,-3.3831,-3.3728,-3.3589,-3.3762,-3.3728,-3.3589,-3.3728,-3.3075,-3.1852,-3.0815,-3.0189,-2.9839,-2.9822,-3.0206,-3.0792,-3.0688,-3.0718,-3.0822,0.0,0.115,0.0898,0.0364,0.0056,-0.0168,-0.0336,-0.0617,-0.0924,-0.1174,-0.1118,-0.1256,-0.1694,-0.1588,-0.1819,-0.2603,0.0,0.0,-0.3997,-0.4629,-0.5094,-0.5335,-0.5833,-0.6264,-0.6597,-0.6767,-0.6917,-0.7052,-0.7034,-0.7113,-0.7274,-0.7274,-0.7376,-0.751,-0.751,-0.773,-0.811,-0.8308,-0.8805,-0.9538,-1.0236,-1.0837,-1.1453,-1.2318,-1.3161,-1.3945,-1.428,-1.4755,-1.5348,-1.6183,-1.6539,-1.6774,-1.7672,-1.8063,-1.8237,-1.8726,-1.9212,-1.9675,-2.006,-2.1207,-2.227,-2.2314,-2.3253,-2.4183,0.0,-2.504,-2.5635,-2.5896,-2.6688,-2.7442,-2.7748,-2.8366,-2.9005,-2.9445,-2.9678,-2.9922,-3.0152,-3.033,-3.0482,-3.052,-3.1011,-3.1384,-3.1384,-3.1545,-3.1669,-3.1669,-3.1927,-3.2119,-3.2237,-3.2439,-3.2654,-3.2832,-3.2868,-3.2868,-3.2868,-3.2868,-3.2868,-3.2868,-3.2868,-3.2832,-3.2832,-3.2832,-3.2832,-3.2797,-3.2654,-3.1844,-3.0583,-3.0446,-2.9843,-2.8917,-2.8798,-2.8881,-2.917,-2.9901,-3.019,-3.019,0.0,0.2074,0.2046,0.1793,0.1121,0.0561,0.0364,0.0228,0.0087,-0.0144,-0.0089,-0.0121,-0.0392,-0.0651,-0.0952,-0.1414,-0.2022,-0.2416,-0.2512,-0.3184,-0.3618,-0.3716,-0.4215,-0.458,-0.4713,-0.4975,-0.517,-0.5206,-0.5342,-0.5441,-0.5507,-0.5661,-0.5842,-0.6019,-0.6291,-0.6674,-0.7151,-0.743,-0.7976,-0.8701,-0.9252,-0.9804,-1.0316,-1.0885,-1.1676,-1.2574,-1.3491,-1.4255,0.0,0.0,-1.5924,-1.6464,-1.6869,-1.726,-1.7617,-1.8049,-1.8521,-1.9163,-2.0175,-2.112,-2.1955,-2.2445,-2.3009,-2.3528,-2.4043,-2.4667,-2.5196,-2.5395,-2.6108,-2.676,-2.7059,-2.7537,-2.7983,-2.8251,-2.8688,-2.9094,-2.9314,-2.9625,-2.9934,-3.0177,-3.0457,-3.0672,-3.0911,-3.1136,-3.1187,-3.1075,-3.1261,-3.136,-3.1272,-3.1482,-3.1629,-3.1703,-3.1703,-3.1776,-3.1873,-3.1873,-3.1923,-3.2046,-3.2046,-3.2046,-3.2046,-3.1923,-3.1813,-3.1703,-3.1482,-3.0745,-2.9693,-2.9601,-2.8934,-2.8039,-2.7987,-2.7987,-2.8137,-2.8944,-2.9293,-2.9341,0.0,0.2745,0.2837,0.2893,0.2244,0.1619,0.1278,0.1247,0.1181,0.1041,0.1101,0.1093,0.0882,0.0354,-0.0033,-0.0195,-0.0735,-0.1052,-0.1052,-0.1675,-0.206,-0.206,-0.2607,-0.2915,-0.2983,-0.3255,-0.3425,-0.346,-0.3632,-0.3735,-0.3769,-0.4015,-0.4299,-0.4553,-0.4926,-0.5434,-0.5972,-0.6365,-0.6967,-0.7717,-0.8279,-0.8867,-0.9398,-0.9906,-1.0623,-1.1471,-1.2726,-1.3726,0.0,0.0,-1.5305,-1.5921,-1.6026,-1.6448,-1.6934,-1.7305,-1.7976,-1.8851,-2.008,-2.0781,-2.1411,-2.2249,-2.2613,-2.2989,-2.3661,-2.4319,-2.4855,-2.501,-2.5487,-2.6019,-2.6381,-2.6599,-2.6846,-2.7162,-2.7689,-2.8143,-2.8395,-2.8791,-2.9197,-2.9521,-2.9715,-2.9921,-3.0228,-3.0609,-3.0761,-3.0609,-3.0761,-3.0761,-3.0622,-3.0761,-3.0823,-3.0823,-3.0823,-3.0898,-3.1048,-3.1048,-3.1123,-3.1261,-3.1261,-3.1261,-3.1261,-3.1123,-3.0973,-3.0836,-3.0685,-3.0038,-2.9071,-2.8892,-2.8269,-2.7369,-2.7369,-2.7369,-2.7436,-2.7967,-2.8281,-2.8449,0.0,0.0,0.3135,0.3358,0.3346,0.3141,0.2614,0.2441,0.2348,0.2355,0.2458,0.2402,0.2068,0.1441,0.1041,0.1041,0.062,0.035,0.035,-0.0179,-0.0472,-0.0472,-0.1052,-0.1451,-0.1668,-0.1777,-0.1959,-0.214,-0.2177,-0.2284,-0.2461,-0.268,-0.2973,-0.3374,-0.3561,-0.3998,-0.4576,-0.4973,-0.5581,-0.6348,-0.7423,-0.8199,-0.8815,-0.9622,-1.0276,-1.0952,-1.2058,0.0,0.0,-1.4438,-1.474,-1.5007,-1.5399,-1.5749,-1.6117,-1.6527,-1.7571,-1.8713,-1.9212,-1.9913,-2.0683,-2.1352,-2.2181,-2.2982,-2.3639,-2.4388,-2.4882,-2.4882,-2.5062,-2.5285,-2.5496,-2.5538,-2.5779,-2.6445,-2.6764,-2.7092,-2.747,-2.7926,-2.8259,-2.8259,-2.8776,-2.9131,0.0,-2.9908,-3.0406,-3.0406,-3.0406,-3.0406,-3.0406,-3.0406,-3.0406,-3.0406,-3.0406,-3.0406,-3.0444,-3.0444,-3.0444,-3.0444,-3.0444,-3.0444,-3.0444,-3.0444,-3.0406,-3.0406,-3.0406,-2.9765,-2.8726,-2.8726,-2.8036,-2.7024,-2.7024,-2.7024,-2.7024,-2.7045,-2.7268,-2.7523,0.0,0.0,0.0,0.4419,0.4471,0.4445,0.435,0.3714,0.3257,0.3256,0.3346,0.0,0.0,0.0,0.0,0.0,0.2145,0.1977,0.1977,0.1557,0.131,0.131,0.0909,0.0654,0.0581,0.0145,-0.0182,-0.0437,-0.0655,-0.0873,-0.1091,-0.1368,-0.1654,-0.1911,-0.2446,-0.304,-0.3687,-0.4123,-0.48,-0.5604,-0.6284,-0.6944,-0.7585,-0.844,-0.918,-0.985,0.0,0.0,-1.2886,-1.3331,-1.3768,-1.424,-1.4684,-1.5209,-1.5811,-1.6678,-1.7441,-1.8099,-1.8501,-1.8816,-1.9265,-2.0242,-2.0882,-2.155,-2.25,-2.3123,-2.357,-2.3927,-2.4013,-2.4186,-2.4572,-2.4743,-2.4956,-2.5359,-2.5737,-2.6071,-2.6393,-2.6805,-2.7185,-2.751,-2.7834,0.0,0.0,0.0,0.0,-2.9729,-2.9729,-2.9664,-2.9548,-2.956,-2.956,-2.956,-2.956,-2.9586,-2.9729,-2.9729,-2.9806,-2.9947,-2.9947,-2.9973,-3.0011,-3.0011,-3.0011,-3.0011,-3.0011,-2.9365,-2.8292,-2.8292,-2.767,-2.6671,-2.6671,-2.6671,-2.6671,-2.6671,-2.6726,-2.6863,0.0,0.0,0.0,0.0,0.0,0.0,0.0,0.0,0.0,0.0,0.0,0.0,0.0,0.0,0.0,0.0,0.0,0.3318,0.3318,0.3048,0.2876,0.2876,0.2613,0.2388,0.2314,0.1866,0.1493,0.1271,0.0906,0.0683,0.0569,0.0155,-0.0158,-0.0362,-0.106,-0.1738,-0.2435,-0.3019,-0.3773,-0.4529,-0.5238,-0.5945,-0.6647,-0.7428,-0.8209,0.0,0.0,0.0,-1.1548,-1.2354,-1.3027,-1.3618,-1.4048,-1.4775,-1.5565,-1.6468,-1.6992,-1.7326,-1.7659,-1.7861,-1.8238,-1.9276,-1.9826,-2.0383,-2.1351,-2.1989,-2.2476,-2.2784,-2.3057,-2.3373,-2.3721,-2.398,-2.4282,-2.47,-2.4988,-2.5242,-2.5611,-2.5946,-2.6238,-2.6558,-2.6857,-2.7092,0.0,-2.8028,-2.8636,-2.8806,-2.8819,-2.8779,-2.8633,-2.8633,-2.8685,-2.8776,-2.8776,-2.8882,-2.9079,-2.8988,-2.8976,-2.903,-2.9121,-2.9197,-2.9221,-2.9378,-2.9456,-2.9456,-2.9507,-2.9023,-2.8164,-2.7964,-2.7354,-2.6554,-2.6367,-2.6245,-2.6176,-2.6176,-2.6141,-2.6129,0.0,0.0,0.0,0.0,0.0,0.0,0.0,0.0,0.0,0.0,0.0,0.0,0.0,0.0,0.0,0.0,0.0,0.0,0.442,0.4325,0.0,0.4263,0.4066,0.3828,0.3554,0.3327,0.3137,0.294,0.2612,0.24,0.2402,0.1872,0.1472,0.1262,0.0505,-0.021,-0.0885,-0.1768,-0.2525,-0.3243,-0.4373,-0.5254,-0.5928,-0.6587,0.0,0.0,0.0,-0.9319,-1.0096,-1.1559,-1.2466,-1.3061,-1.3548,-1.4399,-1.5289,-1.5906,-1.6203,-1.6394,-1.6607,-1.6984,-1.7515,-1.8361,-1.8988,-1.9591,-2.0253,-2.0996,-2.1561,-2.1606,-2.2157,-2.275,-2.296,-2.3232,-2.3634,-2.4313,-2.4442,-2.4624,-2.5094,-2.5327,-2.5486,-2.5486,-2.5874,-2.6155,-2.6155,-2.6321,-2.6764,-2.7609,0.0,-2.7718,-2.7718,-2.7718,-2.7862,-2.8087,-2.8087,-2.8219,-2.8391,-2.8219,-2.7995,-2.773,-2.7995,-2.8139,-2.8179,-2.8526,-2.8712,-2.8752,-2.8961,-2.8746,-2.8206,-2.7667,-2.7127,-2.6588,-2.6049,-2.5723,-2.5535,-2.5535,-2.5418,-2.5382,0.0,0.0,0.0,0.0,0.0,0.0,0.0,0.0,0.0,0.0,0.0,0.0,0.0,0.0,0.0,0.0,0.0,0.0,0.6224,0.0,0.0,0.0,0.6002,0.577,0.55,0.528,0.5007,0.4651,0.4397,0.4072,0.3696,0.3221,0.2796,0.2367,0.1637,0.0913,0.0221,-0.0706,-0.1631,-0.2555,0.0,-0.4364,-0.511,0.0,0.0,0.0,0.0,-0.8931,-0.9786,-1.0623,-1.1717,-1.2857,-1.3622,-1.4281,-1.4961,-1.5587,-1.5824,-1.594,-1.6162,-1.6335,-1.6515,-1.6875,-1.7445,-1.8048,-1.8607,-1.9298,-2.0002,-2.0555,-2.0826,-2.1186,-2.1926,-2.228,-2.2748,-2.3564,-2.3969,-2.4355,-2.4756,-2.5067,-2.5265,-2.5265,-2.537,-2.5443,-2.5443,-2.5359,-2.5401,-2.56,-2.6393,-2.6846,-2.6846,-2.6846,-2.6846,-2.694,-2.694,-2.694,-2.7021,-2.694,-2.6887,-2.6846,-2.6887,-2.7103,-2.747,-2.7551,-2.7782,-2.8051,-2.8091,-2.7846,-2.7272,-2.6812,-2.63,-2.5729,-2.523,-2.4969,-2.4933,-2.4933,-2.4898,-2.4862,0.0,0.0,0.0,0.0,0.0,0.0,0.0,0.0,0.0,0.0,0.0,0.0,0.0,0.0,0.0,0.0,0.0,0.0,0.0,0.7173,0.0,0.7285,0.7168,0.7081,0.7034,0.6837,0.6637,0.6394,0.0,0.0,0.5431,0.4894,0.4344,0.3738,0.2903,0.2126,0.1434,0.0359,0.0,0.0,0.0,0.0,0.0,0.0,0.0,0.0,-0.7547,-0.8625,-0.9786,-1.0342,-1.1277,-1.2314,-1.3019,-1.3635,-1.423,-1.481,-1.5061,-1.5193,-1.5541,-1.5735,-1.5923,-1.6244,-1.6797,-1.7426,-1.7809,-1.8414,-1.9004,-1.9417,-1.9691,-2.0048,-2.0754,-2.1248,-2.1808,-2.2601,-2.3189,-2.3664,-2.393,-2.4215,-2.4405,-2.4549,-2.4495,-2.4476,-2.4562,-2.4476,-2.4433,-2.4433,-2.5189,-2.5631,-2.5631,-2.5631,-2.5684,-2.5768,-2.5821,-2.5821,-2.5821,-2.5821,-2.5726,-2.5631,-2.5726,-2.5946,-2.6185,-2.6381,-2.6577,-2.6812,-2.6894,-2.6735,-2.6439,-2.595,-2.5547,-2.5229,-2.449,-2.4169,-2.4062,-2.3895,-2.3779,-2.3669,0.0,0.0,0.0,0.0,0.0,0.0,0.0,0.0,0.0,0.0,0.0,0.0,0.0,0.0,0.0,0.0,0.0,0.0,0.0,0.0,0.0,0.7988,0.7992,0.8063,0.8222,0.8077,0.8003,0.7958,0.0,0.0,0.0,0.0,0.0,0.0,0.0,0.0,0.0,0.0,0.0,0.0,0.0,0.0,0.0,0.0,0.0,0.0,-0.7021,-0.8348,-0.9647,-1.02,-1.091,-1.1728,-1.2204,-1.277,-1.3328,-1.3877,-1.4168,-1.443,-1.4909,-1.5241,-1.5526,-1.595,-1.6544,-1.7085,-1.7349,-1.7881,-1.8311,-1.8357,-1.8681,-1.9142,-1.9621,-2.0197,-2.0848,-2.156,-2.2254,-2.2751,-2.2986,-2.3168,-2.3362,-2.3586,-2.3531,-2.3509,-2.3667,-2.3667,-2.3667,-2.3667,-2.3993,-2.4284,-2.4413,-2.4413,-2.4509,-2.4733,-2.4733,-2.4733,-2.4733,-2.4733,-2.4637,-2.4413,-2.4637,-2.4775,-2.4818,-2.5179,-2.5326,-2.5368,-2.5526,-2.5621,-2.5577,-2.507,-2.4835,-2.4748,-2.3874,-2.3408,-2.3146,-2.2788,-2.2531,-2.2327,0.0,0.0,0.0,0.0,0.0,0.0,0.0,0.0,0.0,0.0,0.7972,0.0,0.0,0.0,0.0,0.0,0.0,0.0,0.0,0.0,0.0,0.0,0.9027,0.8964,0.8837,0.8961,0.8957,0.8779,0.8677,0.0,0.0,0.0,0.0,0.0,0.0,0.0,0.0,0.0,0.0,0.0,0.0,0.0,0.0,0.0,0.0,0.0,-0.6886,-0.7934,-0.857,-0.9317,-1.0384,-1.1465,-1.1919,-1.2276,-1.2637,-1.3318,-1.3715,-1.4021,-1.4472,-1.4785,-1.5055,-1.5321,-1.568,-1.6042,-1.6303,-1.6836,-1.7301,-1.7473,-1.7753,-1.8133,-1.8627,-1.9199,-1.9772,-2.0487,-2.1408,-2.2198,-2.2527,-2.3071,-2.3275,-2.3084,-2.3226,-2.3248,-2.3008,-2.2979,-2.2979,-2.2979,-2.2828,-2.3091,-2.3874,-2.3917,-2.3917,-2.4013,-2.4013,-2.4013,-2.4013,-2.4013,-2.397,-2.3917,-2.397,-2.41,-2.4325,-2.4401,-2.4519,-2.4659,-2.4701,0.0,-2.467,-2.4232,-2.4002,-2.395,-2.3408,-2.292,-2.2538,-2.2494,-2.2234,-2.1883,0.0,0.0,0.0,0.0,0.0,0.0,0.0,0.0,0.0,0.8188,0.8344,0.8481,0.0,0.0,0.0,0.0,0.0,0.0,0.0,0.0,0.0,0.0,0.0,0.9461,0.9522,0.9629,0.9633,0.9499,0.0,0.9297,0.8903,0.8197,0.7356,0.634,0.5186,0.4253,0.3542,0.0,0.0,0.0,0.0045,0.0,0.0,0.0,0.0,0.0,0.0,-0.733,-0.8007,-0.8642,-0.9548,-1.0512,-1.1049,-1.1533,-1.2038,-1.2546,-1.2859,-1.3081,-1.3399,-1.3729,-1.4068,-1.4395,-1.4836,-1.5277,-1.5651,-1.6195,-1.6629,-1.6911,-1.7153,-1.7488,-1.7994,-1.8594,-1.9138,-1.9601,-2.0504,-2.1216,-2.1446,-2.1903,-2.2117,-2.1917,-2.2101,-2.2108,-2.1893,-2.1856,-2.1856,-2.1856,-2.1758,-2.2069,-2.3003,-2.3188,-2.3276,-2.3276,-2.3406,-2.3406,-2.3276,-2.3276,-2.3188,-2.3057,-2.3057,-2.3144,-2.3276,-2.3276,-2.3309,-2.343,-2.343,-2.343,-2.341,-2.3169,-2.309,-2.3041,-2.2606,-2.2269,-2.2032,-2.1609,-2.1352,-2.1144,0.0,0.0,0.0,0.0,0.0,0.0,0.0,0.7708,0.7929,0.8331,0.8566,0.8803,0.9018,0.9051,0.915,0.0,0.0,0.0,0.0,0.0,0.0,0.0,0.0,0.9786,0.9994,0.0,0.0,0.9907,0.9907,0.0,0.0,0.0,0.0,0.0,0.5408,0.4476,0.363,0.2872,0.2205,0.0,0.0,-0.0232,0.0,0.0,0.0,0.0,0.0,-0.6684,-0.7332,-0.7932,-0.8623,-0.9359,-0.9944,-1.0697,-1.1398,-1.1677,-1.1962,-1.2188,-1.242,-1.2744,-1.3131,-1.3555,-1.4034,-1.4472,-1.4908,-1.5432,-1.5859,-1.615,-1.6494,-1.6878,-1.7394,-1.8001,-1.8513,-1.889,-1.9656,-2.0231,-2.03,-2.0686,-2.09,-2.0693,-2.0864,-2.0881,-2.0635,-2.0628,-2.0673,-2.0673,-2.0673,-2.1123,-2.2122,-2.2397,-2.253,-2.2671,-2.275,-2.275,-2.2662,-2.253,-2.2388,-2.2167,-2.2122,-2.2122,-2.2122,-2.2122,-2.2122,-2.2122,-2.2122,-2.2122,-2.2122,-2.2122,-2.2122,-2.2094,-2.1733,-2.1599,-2.1474,-2.0776,-2.0489,-2.0388,0.0,0.0,0.0,0.0,0.0,0.0,0.0,0.7792,0.7955,0.8364,0.859,0.8855,0.9211,0.9253,0.9455,0.0,0.0,0.0,0.0,0.0,0.0,0.0,0.0,0.0,0.0,0.0,0.0,0.9646,0.9646,0.0,0.0,0.0,0.0,0.0,0.0,0.4427,0.3849,0.3141,0.0,0.0,0.0,0.0,0.0,0.0,0.0,0.0,0.0,-0.5887,-0.6289,-0.7039,-0.768,-0.8266,-0.8788,-0.9665,-1.0551,-1.0844,-1.1283,-1.1721,-1.1963,-1.242,-1.2872,-1.3091,-1.3199,-1.3312,-1.3607,-1.4094,-1.4532,-1.4806,-1.5439,-1.6069,-1.6588,-1.7156,-1.7727,-1.8304,-1.8899,-1.9438,-1.9738,-2.0225,-2.0327,-1.9711,-2.0022,-2.0059,-1.9437,-1.9538,-1.9621,-1.9621,-1.9621,-2.0167,-2.1445,-2.1535,-2.1722,-2.2141,-2.1963,-2.1954,-2.2141,-2.1722,-2.1535,-2.149,-2.1266,-2.1132,-2.1132,-2.1132,-2.1132,-2.1132,-2.1132,-2.1132,0.0,-2.1132,-2.1132,-2.1123,-2.1087,-2.0944,-2.075,-2.0325,-2.007,-1.987,0.0,0.0,0.0,0.0,0.0,0.0,0.0,0.7947,0.8053,0.8194,0.8506,0.8859,0.9239,0.9282,0.9493,0.0,0.0,0.0,0.0,0.0,0.0,0.0,0.0,0.0,0.0,0.0,0.9705,0.9553,0.9201,0.0,0.0,0.0,0.0,0.0,0.0,0.4074,0.3452,0.309,0.0,0.0,0.0,0.0,0.0,0.0,0.0,0.0,0.0,0.0,-0.5591,-0.6087,-0.6584,-0.7132,-0.768,-0.8333,-0.9126,-1.0068,-1.0556,-1.09,-1.0998,-1.1194,-1.1389,-1.1673,-1.1965,-1.2257,-1.2554,-1.313,-1.3703,-1.4142,-1.4717,-1.5289,-1.5771,-1.6498,-1.71,-1.7513,-1.8225,-1.8855,-1.9183,-1.9515,-1.952,-1.9056,-1.9153,-1.9075,-1.8589,-1.8627,-1.8673,-1.8673,-1.8673,-1.895,-1.9629,-2.032,-2.0871,-2.1186,-2.1266,-2.1186,-2.1015,-2.0826,-2.0591,-2.0257,-2.0175,-2.0076,-2.0076,-2.0076,-2.0076,-2.0076,-2.0076,-2.0076,0.0,-2.0076,-2.0076,-2.0076,-2.0076,-2.0172,-2.0162,-1.9755,-1.9557,-1.9402,0.0,0.0,0.0,0.0,0.0,0.0,0.8056,0.8013,0.7994,0.7934,0.8281,0.8709,0.9158,0.9205,0.9414,0.9961,0.0,0.0,0.0,0.0,0.0,0.0,0.0,0.0,0.0,0.0,0.0,0.9178,0.8687,0.8083,0.0,0.0,0.5996,0.4888,0.0,0.0,0.0,0.0,0.0,0.0,0.0,0.0,0.0,0.0,0.0,0.0,0.0,0.0,0.0,0.0,0.0,-0.6237,-0.6686,-0.7288,-0.7985,-0.9274,-0.9871,-1.0167,-1.0265,-1.0364,-1.0462,-1.0605,-1.0949,-1.1292,-1.1487,-1.197,-1.2592,-1.313,-1.3661,-1.4184,-1.486,-1.557,-1.6255,-1.676,-1.7417,-1.8093,-1.8558,-1.873,-1.8715,-1.8506,-1.8417,-1.8223,-1.7791,-1.7714,-1.7667,-1.7667,-1.7667,-1.7753,-1.8032,-1.8866,-1.96,-2.0184,-2.0266,-2.0229,-1.9973,-1.9828,-1.9592,-1.9217,-1.9126,-1.908,-1.908,-1.908,-1.908,-1.908,-1.908,-1.908,0.0,-1.908,-1.908,-1.908,-1.908,-1.9263,-1.9443,-1.9044,-1.8822,-1.8682,0.0,0.0,0.0,0.0,0.0,0.0,0.0,0.7888,0.7735,0.7526,0.7864,0.8325,0.8919,0.9005,0.9289,0.9956,0.0,0.0,0.0,0.0,0.0,0.0,0.0,0.0,0.0,0.0,0.0,0.0,0.0,0.7302,0.6311,0.5839,0.5228,0.4476,0.0,0.0,0.0,0.0,0.0,0.0,0.0,0.0,0.0,0.0,0.0,0.0,0.0,0.0,0.0,0.0,0.0,0.0,0.0,-0.6539,-0.7434,-0.8478,-0.9175,-0.9677,-0.992,-1.0216,-1.0413,-1.0413,-1.0413,-1.0413,-1.0413,-1.0605,-1.0998,-1.1487,-1.2029,-1.2705,-1.3715,-1.4308,-1.501,-1.614,-1.6547,-1.7002,-1.7871,-1.7957,-1.7899,-1.7903,-1.7875,-1.7596,-1.7055,-1.6777,-1.6629,-1.6629,-1.6629,0.0,-1.6979,-1.7026,-1.7714,-1.9188,-1.8966,-1.8966,-1.9188,-1.8773,-1.8535,-1.8496,-1.8218,-1.8133,-1.8133,-1.8133,-1.8133,-1.8133,-1.8133,-1.8133,0.0,-1.8133,-1.8133,-1.8133,-1.8133,-1.8265,-1.8449,-1.8068,-1.7859,-1.7723,0.0,0.0,0.0,0.0,0.0,0.0,0.0,0.7786,0.7695,0.7411,0.7895,0.8431,0.8774,0.8875,0.9099,0.9497,0.0,0.0,0.0,0.0,0.0,0.0,0.0,0.0,0.0,0.0,0.0,0.0,0.0,0.0,0.0,0.0,0.4371,0.3789,0.3594,0.3382,0.0,0.0,0.0,0.0,0.0,0.0,0.0,0.0,0.0,0.0,0.0,0.0,0.0,0.0,0.0,0.0,0.0,0.0,0.0,-0.7188,-0.8184,-0.9126,-0.9381,-0.9628,-0.9875,-0.9875,-0.9969,-1.0117,-1.0117,-1.0314,-1.0605,-1.0998,-1.134,-1.1776,-1.236,-1.3094,-1.378,-1.4459,-1.5265,-1.5989,-1.6486,-1.6684,-1.68,-1.6807,-1.6607,-1.6361,-1.6218,-1.6116,-1.6069,-1.6069,-1.6069,-1.6069,-1.6163,-1.6163,-1.6723,-1.7839,-1.7846,-1.7753,-1.7714,-1.7535,-1.7387,-1.7192,-1.7099,-1.7052,-1.7052,-1.7052,-1.7052,-1.7052,-1.7052,-1.7052,-1.7052,-1.7052,-1.7052,-1.7052,-1.7052,-1.7246,-1.7473,-1.7331,-1.7115,-1.6793,0.0,0.0,0.0,0.0,0.0,0.0,0.0,0.7649,0.7553,0.7233,0.7761,0.8262,0.8541,0.8723,0.894,0.935,0.0,0.0,0.0,0.0,0.0,0.0,0.0,0.0,0.0,0.0,0.0,0.0,0.0,0.0,0.0,0.0,0.0,0.0,0.3331,0.0,0.0,0.0,0.0,0.0,0.0,0.0,0.0,0.0,0.0,0.0,0.0,0.0,0.0,0.0,0.0,0.0,0.0,0.0,0.0,0.0,-0.7086,-0.8028,-0.8733,-0.9183,-0.943,-0.943,-0.9628,-0.9875,-0.9875,-0.9969,-1.0167,-1.0462,-1.0605,-1.0915,-1.1463,-1.2017,-1.2649,-1.3226,-1.3932,-1.4624,-1.5167,-1.5311,-1.5451,-1.569,-1.5412,-1.5207,-1.5207,-1.5057,-1.4908,-1.4908,-1.4908,-1.4908,-1.4908,-1.4908,-1.5242,-1.5852,-1.6426,-1.6676,-1.6548,-1.6548,-1.6447,-1.6298,-1.6298,-1.6298,-1.6298,-1.6298,-1.6298,-1.6298,-1.6298,-1.6298,0.0,-1.6298,-1.6298,-1.6298,-1.6298,-1.64,-1.6548,-1.6548,-1.632,-1.5953,0.0,0.0,0.0,0.0,0.0,0.0,0.0,0.0,0.0,0.7059,0.7461,0.795,0.8336,0.8476,0.8819,0.0,0.0,0.0,0.0,0.0,0.0,0.0,0.0,0.0,0.0,0.0,0.0,0.5735,0.5295,0.4738,0.3984,0.0,0.0,0.0,0.0,0.0,0.0,0.0,0.0,0.0,0.0,0.0,0.0,0.0,0.0,0.0,0.0,0.0,0.0,0.0,0.0,0.0,0.0,0.0,0.0,0.0,0.0,0.0,0.0,-0.8684,-0.9133,-0.9137,-0.9331,-0.9529,-0.9579,-0.9579,0.0,-0.992,-0.9969,-1.0181,-1.0891,-1.1178,-1.1576,-1.2317,-1.2632,-1.3093,-1.3954,-1.386,-1.3875,-1.4437,-1.4286,-1.4154,-1.4154,-1.3709,-1.3372,-1.3372,-1.3372,-1.3372,-1.3372,-1.3372,-1.3372,-1.3372,-1.4765,-1.554,-1.5635,-1.5635,-1.5635,-1.5635,-1.5635,-1.5635,-1.5635,-1.5635,-1.5635,0.0,-1.5635,-1.5635,-1.5635,-1.5635,-1.5635,-1.5635,-1.5635,-1.5635,-1.5635,-1.5635,-1.545,-1.5107,0.0,0.0,0.0,0.0,0.0,0.0,0.0,0.0,0.0,0.0,0.7461,0.7865,0.8078,0.8262,0.8434,0.0,0.0,0.0,0.0,0.0,0.0,0.0,0.0,0.0,0.0,0.0,0.0,0.5051,0.4526,0.4085,0.3685,0.3432,0.0,0.0,0.0,0.0,0.0,0.0,0.0,0.0,0.0,0.0,0.0,0.0,0.0,0.0,-0.4784,-0.4784,0.0,0.0,0.0,0.0,0.0,0.0,0.0,0.0,-0.5539,-0.5887,-0.6439,0.0,-0.8336,-0.8535,-0.8779,-0.9027,0.0,-0.9286,-0.9381,-0.9628,-0.9677,-0.9821,-1.03,-1.0599,-1.0945,-1.1387,-1.1864,-1.2278,-1.2491,-1.2552,-1.2572,-1.2607,-1.2559,-1.2559,-1.2559,-1.2414,-1.236,-1.236,-1.236,-1.236,-1.236,-1.236,-1.236,-1.236,-1.27,-1.3275,-1.4046,-1.4046,-1.4046,-1.4046,-1.4046,-1.4046,-1.4046,-1.4046,-1.4046,-1.4046,-1.4046,-1.4046,-1.4046,-1.4046,-1.4046,-1.4046,-1.4046,-1.4046,-1.4046,-1.4046,-1.388,-1.3572,0.0,0.0,0.0,0.0,0.0,0.0,0.0,0.0,0.0,0.0,0.0,0.0,0.0,0.0,0.0,0.0,0.0,0.0,0.0,0.0,0.0,0.0,0.0,0.0,0.0,0.0,0.0,0.0,0.0,0.3684,0.0,0.0,0.0,0.0,0.0,0.0,0.0,0.0,0.0,0.0,0.0,0.0,0.0,0.0,0.0,0.0,-0.4784,-0.4784,0.0,-0.4784,-0.4784,-0.4784,0.0,0.0,0.0,0.0,-0.5135,-0.5286,-0.5541,-0.6539,-0.7534,-0.7783,-0.8031,-0.8329,-0.8733,-0.8836,-0.8931,-0.9175,-0.9291,-0.9478,-0.9956,-1.0173,-1.0474,-1.0866,-1.1181,-1.1398,-1.138,-1.1645,-1.1763,-1.1491,-1.1438,-1.1438,-1.1438,-1.1345,-1.1292,-1.1292,-1.1292,-1.1292,-1.1292,-1.1292,-1.1292,-1.1292,-1.1292,-1.1775,-1.2791,-1.2791,-1.2791,-1.2791,-1.2791,-1.2791,-1.2791,-1.2791,-1.2791,-1.2791,-1.2791,-1.2791,-1.2791,-1.2791,-1.2791,-1.2791,-1.2791,-1.2791,-1.2791,-1.2791,-1.271,-1.257,0.0,0.0,0.0,0.0,0.0,0.0,0.0,0.0,0.0,0.0,0.0,0.0,0.0,0.0,0.0,0.0,0.0,0.0,0.0,0.0,0.0,0.0,0.0,0.0,0.0,0.0,0.0,0.0,0.0,0.0,0.0,0.0,0.2818,0.0,0.0,0.0,0.0,0.0,0.0,0.0,0.0,0.0,0.0,0.0,0.0,0.0,0.0,0.0,0.0,-0.4784,-0.4784,-0.4784,-0.4784,0.0,0.0,0.0,0.0,0.0,-0.509,-0.5787,-0.6581,-0.6936,-0.7235,-0.7531,-0.8031,-0.8184,-0.828,-0.8574,-0.8808,-0.9127,-0.9555,-0.9773,-0.9992,-1.0499,-1.0558,-1.0534,-1.0466,-1.0858,-1.1012,-1.065,-1.0609,-1.0609,-1.0609,-1.0413,-1.0265,-1.0265,-1.0265,-1.0265,-1.0265,-1.0265,-1.0265,-1.0265,-1.0265,-1.0703,-1.1634,-1.1731,-1.178,-1.178,-1.178,-1.178,-1.178,-1.178,-1.178,-1.178,0.0,0.0,-1.178,-1.178,-1.178,-1.178,-1.178,-1.178,-1.178,-1.178,-1.178,-1.1702,0.0,0.0,0.0,0.0,0.0,0.0,0.0,0.0,0.0,0.0,0.0,0.0,0.0,0.0,0.0,0.0,0.0,0.0,0.0,0.0,0.0,0.0,0.0,0.0,0.0,0.0,0.0,0.0,0.0,0.0,0.3105,0.266,0.1837,0.0,0.0,0.0,0.0,0.0,0.0,0.0,0.0,0.0,0.0,0.0,0.0,0.0,0.0,0.0,0.0,-0.4784,-0.4784,-0.4784,-0.4784,0.0,0.0,0.0,0.0,0.0,-0.4834,-0.4985,-0.5286,-0.5989,-0.6389,-0.6684,-0.698,-0.7232,-0.7434,-0.773,-0.8096,-0.8504,-0.8974,-0.9136,-0.9403,-0.9841,-1.0019,-1.0014,-0.9875,-1.0026,-1.0054,-0.9801,-0.9772,-0.9772,-0.9772,-0.9723,-0.9727,-0.9727,-0.9727,-0.9727,-0.9727,-0.9727,-0.9727,-0.9727,-0.9727,-0.9826,-0.9969,-1.0413,-1.0659,-1.0659,-1.0659,-1.0659,-1.0659,-1.0659,-1.0659,-1.0659,0.0,-1.0659,-1.0659,-1.0659,-1.0659,-1.0659,-1.0659,-1.0659,-1.0659,-1.0659,-1.0659,-1.0627,0.0,0.0,0.0,0.0,0.0,0.0,0.0,0.0,0.0,0.0,0.0,0.0,0.0,0.0,0.0,0.0,0.0,0.0,0.0,0.0,0.0,0.0,0.0,0.0,0.0,0.0,0.0,0.0,0.0,0.2743,0.2503,0.1685,0.065,-0.0504,0.0,0.0,0.0,0.0,0.0,0.0,0.0,0.0,0.0,0.0,0.0,0.0,0.0,0.0,0.0,0.0,-0.4784,-0.4784,-0.4784,0.0,0.0,0.0,0.0,0.0,-0.4784,-0.4784,-0.4885,-0.5238,-0.5539,-0.5904,-0.6369,-0.6588,-0.676,-0.703,-0.7296,-0.7616,-0.8002,-0.8291,-0.8684,-0.9247,-0.9399,-0.9454,-0.929,-0.9385,-0.9369,-0.9195,-0.9175,-0.9175,-0.9175,-0.9175,-0.9175,-0.9175,-0.9175,-0.9175,-0.9175,-0.9175,-0.9229,-0.9381,-0.9381,-0.943,-0.9579,-0.9826,-0.9969,-0.9969,-0.9969,-0.9969,-0.9969,-0.9969,-0.9969,-0.9969,0.0,-0.9969,-0.9969,-0.9969,-0.9969,-0.9969,-0.9969,-0.9969,-0.9969,-0.9969,-0.9969,-0.9961,0.0,0.0,0.0,0.0,0.0,0.0,0.0,0.0,0.0,0.0,0.0,0.0,0.0,0.0,0.0,0.0,0.0,0.0,0.0,0.0,0.0,0.0,0.0,0.0,0.0,0.0,0.2933,0.2697,0.2602,0.2205,0.1474,0.045,-0.0605,0.0,0.0,0.0,0.0,0.0,0.0,0.0,0.0,0.0,0.0,0.0,0.0,0.0,0.0,0.0,0.0,0.0,0.0,0.0,0.0,0.0,0.0,-0.4784,-0.4784,-0.4784,-0.4784,-0.4784,-0.4784,-0.4784,-0.5004,-0.5295,-0.5782,-0.5975,-0.612,-0.6361,-0.6572,-0.681,-0.714,-0.7515,-0.7977,-0.8381,-0.8584,-0.8651,-0.8605,-0.8658,-0.8718,-0.8645,-0.8627,-0.8627,-0.8627,-0.8627,-0.8627,-0.8627,-0.8627,-0.8627,-0.8627,-0.8627,-0.873,-0.8985,-0.9034,-0.9133,-0.9426,-0.9426,-0.948,-0.9579,-0.9579,-0.9579,-0.9579,-0.9529,-0.9529,-0.948,-0.9426,-0.9426,-0.9426,-0.9426,-0.9426,-0.9426,-0.9426,-0.9426,-0.9426,-0.9426,-0.9426,-0.9426,0.0,0.0,0.0,0.0,0.0,0.0,0.0,0.0,0.0,0.0,0.0,0.0,0.0,0.0,0.0,0.0,0.0,0.0,0.0,0.0,0.0,0.0,0.0,0.0,0.0,0.3043,0.2873,0.2599,0.2366,0.1467,0.0049,-0.1,-0.1916,-0.2725,0.0,0.0,0.0,0.0,0.0,0.0,0.0,0.0,0.0,0.0,0.0,0.0,0.0,0.0,0.0,0.0,0.0,0.0,0.0,0.0,-0.4784,-0.4784,-0.4784,-0.4784,-0.4784,-0.4784,-0.4784,-0.4784,-0.49,-0.5015,-0.5074,-0.5302,-0.558,-0.5587,-0.5882,-0.6221,-0.6487,-0.6963,-0.7227,-0.7165,-0.7259,-0.7398,-0.7579,-0.7639,-0.7796,-0.8038,-0.8038,-0.8038,-0.8038,-0.8038,-0.8038,-0.8038,-0.8038,-0.8038,-0.8038,-0.8038,-0.8187,-0.8432,-0.8482,-0.8581,-0.8874,-0.8874,-0.9126,-0.9579,-0.9579,-0.9579,-0.9579,-0.9331,-0.9236,-0.9232,-0.8977,-0.8874,-0.8874,-0.8874,-0.8874,-0.8874,-0.8874,-0.8874,-0.8874,-0.8874,-0.8874,-0.8874,0.0,0.0,0.0,0.0,0.0,0.0,0.0,0.0,0.0,0.0,0.0,0.0,0.0,0.0,0.0,0.0,0.0,0.0,0.0,0.0,0.0,0.0,0.0,0.1913,0.2019,0.2186,0.2042,0.1679,0.0605,-0.0382,-0.1374,-0.2198,0.0,0.0,0.0,0.0,0.0,0.0,0.0,0.0,0.0,0.0,0.0,0.0,0.0,0.0,0.0,0.0,0.0,0.0,-0.4784,-0.4784,-0.4784,-0.4784,-0.4784,-0.4784,-0.4784,-0.4784,-0.4784,-0.4784,-0.4784,-0.4784,-0.4947,-0.5057,-0.5057,-0.5182,-0.5318,-0.5433,-0.5581,-0.5771,-0.6042,-0.6186,-0.6319,-0.6443,-0.65,-0.6621,-0.6681,-0.6768,-0.6883,-0.6986,-0.6986,-0.6986,-0.6986,-0.6986,-0.6986,-0.6986,-0.6986,-0.6986,-0.6986,-0.6986,-0.7135,-0.7381,-0.7584,-0.7783,-0.8028,-0.823,-0.8386,-0.8584,-0.8928,-0.9126,-0.9076,-0.8829,-0.8684,-0.8684,-0.8435,-0.8283,-0.8283,-0.8283,-0.8283,-0.8283,-0.8283,-0.8283,-0.8283,-0.8283,-0.8283,-0.8283,0.0,0.0,0.0,0.0,0.0,0.0,0.0,0.0,0.0,0.0,0.0,0.0,0.0,0.0,0.0,0.0,0.0,0.0,0.0,0.0,0.0,0.0,0.0,0.1031,0.0942,0.0993,0.0951,0.0861,-0.0802,-0.1845,-0.2325,0.0,0.0,0.0,0.0,0.0,0.0,0.0,0.0,0.0,0.0,0.0,0.0,0.0,0.0,0.0,0.0,0.0,0.0,0.0,-0.4784,-0.4784,-0.4784,-0.4784,-0.4784,-0.4784,-0.4784,-0.4784,-0.4784,-0.4784,-0.4792,-0.4871,-0.4994,-0.5116,-0.5145,-0.5222,-0.5306,-0.5369,-0.5382,-0.5427,-0.5562,-0.5558,-0.5602,-0.5757,-0.5789,-0.584,-0.5858,-0.5939,-0.6037,-0.6134,-0.6137,-0.6137,-0.6137,-0.6087,-0.6037,-0.6037,-0.5937,-0.5884,-0.5884,-0.5884,-0.6034,-0.6284,-0.6487,-0.6686,-0.6983,-0.7135,-0.7238,-0.7238,-0.763,-0.8024,-0.8428,-0.8131,-0.7982,-0.7882,-0.7637,-0.7487,-0.7487,-0.7487,-0.7487,-0.7487,-0.7487,-0.7487,-0.7487,-0.7487,-0.7487,-0.7487,0.0,0.0,0.0,0.0,0.0,0.0,0.0,0.0,0.0,0.0,0.0,0.0,0.0,0.0,0.0,0.0,0.0,0.0,0.0,0.0,0.0,0.0,0.0,0.0269,0.0,-0.0549,-0.0463,0.0278,-0.1588,-0.2625,-0.2826,-0.3883,0.0,0.0,0.0,0.0,0.0,0.0,0.0,0.0,0.0,0.0,0.0,0.0,0.0,0.0,0.0,0.0,0.0,0.0,-0.4784,-0.4784,-0.4784,-0.4784,-0.4784,-0.4784,-0.4784,-0.4784,-0.4784,-0.4784,-0.4806,-0.4949,-0.5041,-0.5132,-0.5168,-0.5314,-0.5382,-0.5382,-0.5382,-0.5353,-0.5207,-0.5188,-0.513,-0.5002,-0.5023,-0.5043,-0.5153,-0.519,-0.529,-0.5536,-0.5584,-0.5584,-0.5584,-0.5338,-0.519,-0.519,-0.4937,-0.4784,-0.4784,-0.4784,-0.4937,-0.519,-0.519,-0.5338,-0.5584,-0.5584,-0.5584,-0.5584,-0.5584,-0.6284,-0.758,-0.7285,-0.7033,-0.6781,-0.6484,-0.6387,-0.6387,-0.6387,-0.6387,-0.6387,-0.6387,-0.6387,-0.6387,-0.6387,-0.6387,-0.6387,0.0,0.0,0.0,0.0,0.0,0.0,0.0,0.0,0.0,0.0,0.0,0.0,0.0,0.0,0.0,0.0,0.0,0.0,0.0,0.0,0.0,0.0,0.0,0.0,0.0,0.0,-0.2234,-0.188,-0.3021,-0.3663,0.0,0.0,0.0,-0.4686,0.0,0.0,0.0,0.0,0.0,0.0,0.0,0.0,0.0,0.0,0.0,0.0,0.0,0.0,0.0,0.0,0.0,0.0,-0.3682,-0.3781,-0.3979,-0.3979,-0.4234,-0.4487,-0.4284,-0.4384,-0.4508,-0.4385,-0.4467,-0.4546,-0.4573,-0.4985,-0.5382,-0.5382,-0.5382,-0.5353,-0.5207,-0.5138,-0.511,-0.499,-0.4918,-0.4817,-0.4642,-0.464,-0.4587,-0.4483,-0.4483,-0.4483,-0.4483,-0.4384,-0.4334,-0.4334,-0.4284,-0.4234,-0.4234,-0.4234,-0.4284,-0.4334,-0.4537,-0.4688,-0.4738,-0.4935,-0.5035,-0.5035,-0.5035,-0.5434,-0.6184,-0.5937,-0.5739,-0.5687,-0.5589,-0.5539,-0.5589,-0.5737,-0.5834,-0.5834,-0.5834,-0.5834,-0.5834,-0.5834,-0.5834,-0.5834,0.0,0.0,0.0,0.0,0.0,0.0,0.0,0.0,0.0,0.0,0.0,0.0,0.0,0.0,0.0,0.0,0.0,0.0,0.0,0.0,0.0,0.0,0.0,0.0,0.0,-0.3246,-0.3524,0.0,0.0,0.0,0.0,0.0,0.0,-0.4784,0.0,-0.4784,0.0,0.0,0.0,0.0,-0.4234,-0.4033,-0.3882,0.0,0.0,0.0,0.0,0.0,0.0,0.0,0.0,0.0,-0.2876,-0.2976,-0.3126,-0.3226,-0.353,-0.3732,-0.3682,-0.3702,-0.374,-0.3702,-0.3663,-0.362,-0.3684,-0.4394,-0.5043,-0.5043,-0.5018,-0.4915,-0.4719,-0.4636,-0.4503,-0.432,-0.4213,-0.4083,-0.3934,-0.3935,-0.3885,-0.3682,-0.3781,-0.383,-0.383,-0.3833,-0.3835,-0.3835,-0.3732,-0.3682,-0.3682,-0.358,-0.353,-0.353,-0.358,-0.3581,-0.3581,-0.378,-0.383,-0.383,-0.393,-0.4182,-0.4481,-0.4786,-0.4839,-0.4738,-0.4839,-0.4939,-0.5037,-0.5236,-0.5286,-0.5286,-0.5286,-0.5286,-0.5286,-0.5286,-0.5286,-0.5286,0.0,0.0,0.0,0.0,0.0,0.0,0.0,0.0,0.0,0.0,0.0,0.0,0.0,0.0,0.0,0.0,0.0,0.0,0.0,0.0,0.0,0.0,0.0,0.0,0.0,0.0,0.0,0.0,0.0,0.0,0.0,0.0,-0.4784,-0.4784,0.0,-0.4784,0.0,0.0,0.0,0.0,-0.3729,-0.3325,-0.3022,-0.2724,0.0,0.0,0.0,0.0,0.0,0.0,0.0,0.0,-0.217,-0.222,-0.227,-0.2523,-0.2674,-0.2725,-0.2977,-0.2865,-0.2708,-0.2808,-0.2644,-0.2474,-0.2512,-0.3412,-0.4246,-0.4301,-0.4307,-0.4185,-0.3837,-0.372,-0.3554,-0.3139,-0.3079,-0.3079,-0.3029,-0.3027,-0.3027,-0.3027,-0.3228,-0.3376,-0.3426,-0.343,-0.3433,-0.3433,-0.318,-0.3079,-0.3079,-0.2826,-0.2674,-0.2674,-0.2472,-0.232,-0.2371,-0.2371,-0.2371,-0.2422,-0.2623,-0.2775,-0.2775,-0.3833,-0.4185,-0.3984,-0.4237,-0.4487,-0.4734,-0.4734,-0.4734,-0.4784,-0.4784,-0.4784,-0.4784,-0.4784,-0.4784,-0.4784,0.0,0.0,0.0,0.0,0.0,0.0,0.0,0.0,0.0,0.0,0.0,0.0,0.0,0.0,0.0,0.0,0.0,0.0,0.0,0.0,0.0,0.0,0.0,0.0,0.0,0.0,0.0,0.0,0.0,0.0,0.0,0.0,0.0,-0.4784,0.0,-0.4686,0.0,0.0,0.0,-0.3426,-0.2874,-0.237,-0.1916,-0.1413,-0.106,0.0,0.0,0.0,0.0,0.0,0.0,0.0,-0.0505,-0.0656,-0.0858,-0.1161,-0.1514,-0.1865,-0.1916,-0.1891,-0.1823,-0.1696,-0.1635,-0.1507,-0.1344,-0.1831,-0.2527,-0.2964,-0.3231,-0.3301,-0.2938,-0.286,-0.2732,-0.2328,-0.2269,-0.2118,-0.1664,-0.1613,-0.1613,-0.1613,-0.1663,-0.1814,-0.2017,-0.2017,-0.2017,-0.2017,-0.1967,-0.1967,-0.1967,-0.1865,-0.1865,-0.1865,-0.1815,-0.1865,-0.2068,-0.2068,-0.2169,-0.2422,-0.2472,-0.2371,-0.2219,-0.3078,-0.3533,-0.3685,-0.3736,-0.3935,-0.4183,-0.4183,-0.4286,-0.4487,-0.4487,-0.4638,-0.4784,-0.4784,-0.4686,-0.4487,0.0,0.0,0.0,0.0,0.0,0.0,0.0,0.0,0.0,0.0,0.0,0.0,0.0,0.0,0.0,0.0,0.0,0.0,0.0,0.0,-0.3665,-0.4007,0.0,0.0,0.0,0.0,0.0,0.0,0.0,0.0,-0.4784,-0.4784,0.0,-0.4587,0.0,-0.4384,0.0,0.0,-0.3126,-0.2571,-0.1917,-0.1312,-0.0807,-0.0404,-0.0051,0.0202,0.0354,0.0,0.0,0.0,0.0,0.0,0.0,0.0,0.0101,-0.0152,-0.0404,-0.0656,-0.0807,-0.0716,-0.0574,-0.0321,-0.022,-0.0168,0.0111,-0.022,-0.0598,-0.0641,-0.1491,-0.2067,-0.1508,-0.139,-0.1223,-0.0757,-0.0655,-0.0554,-0.0302,-0.0252,-0.0252,-0.0252,-0.0454,-0.0706,-0.0806,-0.1058,-0.121,-0.121,-0.121,-0.121,-0.121,-0.111,-0.1009,-0.1009,-0.0908,-0.0959,-0.1211,-0.1211,-0.1363,-0.1615,-0.1615,-0.1564,-0.1462,-0.2118,-0.2573,-0.2826,-0.2826,-0.3078,-0.3429,-0.3429,-0.3581,-0.3835,-0.3835,-0.3934,-0.4033,-0.4033,-0.3883,-0.3632,0.0,0.0,0.0,0.0,0.0,0.0,0.0,0.0,0.0,0.0,0.0,0.0,0.0,0.0,0.0,0.0,0.0,0.0,0.0,-0.3975,-0.4065,-0.4271,0.0,0.0,0.0,0.0,0.0,0.0,0.0,-0.4695,-0.4712,-0.4728,-0.4585,-0.4338,0.0,0.0,0.0,0.0,-0.222,-0.1665,-0.0909,-0.0253,0.0253,0.0455,0.0707,0.096,0.096,0.096,0.096,0.096,0.0,0.0,0.0,0.0,0.0909,0.0657,0.0606,0.0556,0.0353,0.0461,0.0785,0.108,0.1155,0.1163,0.142,0.1194,0.1075,0.1617,0.0363,-0.0673,0.0052,0.0255,0.0454,0.0907,0.1008,0.1008,0.1058,0.1058,0.1058,0.1008,0.0605,0.0302,0.0302,-0.0101,-0.0403,-0.0403,-0.0403,-0.0403,-0.0403,-0.0151,-0.005,-0.005,0.0151,0.0151,-0.0101,-0.0151,-0.0303,-0.0505,-0.0454,-0.0454,-0.0454,-0.0857,-0.131,-0.1815,-0.1815,-0.2068,-0.2472,-0.2472,-0.2623,-0.2876,-0.2876,-0.2876,-0.2927,-0.2927,-0.2775,-0.2522,0.0,0.0,0.0,0.0,0.0,0.0,0.0,0.0,0.0,0.0,0.0,-0.3684,-0.3684,-0.3724,0.0,0.0,0.0,0.0,-0.382,0.0,0.0,0.0,0.0,0.0,0.0,0.0,0.0,0.0,-0.4669,-0.4565,-0.4381,-0.4403,-0.4286,-0.4033,-0.3577,0.0,0.0,0.0,-0.111,-0.0555,0.0,0.0556,0.1061,0.1061,0.1263,0.1516,0.1516,0.1516,0.1516,0.1516,0.1516,0.0,0.0,0.0,0.1465,0.1465,0.1465,0.1414,0.1412,0.1636,0.1928,0.2234,0.2088,0.1984,0.23,0.1901,0.1669,0.2232,0.1555,0.098,0.1319,0.1364,0.1462,0.1815,0.1815,0.1916,0.2169,0.2169,0.2118,0.1865,0.1765,0.1664,0.1412,0.131,0.126,0.126,0.126,0.126,0.126,0.1311,0.1311,0.1311,0.1361,0.1261,0.1008,0.0757,0.0606,0.0605,0.0806,0.0958,0.0958,0.1109,0.0403,-0.0958,-0.0958,-0.1008,-0.1058,-0.1058,-0.121,-0.1462,-0.1462,-0.1613,-0.1815,-0.1815,-0.1664,-0.1361,0.0,0.0,0.0,0.0,0.0,0.0,0.0,0.0,0.0,0.0,0.0,-0.3802,-0.3802,-0.3802,0.0,0.0,0.0,0.0,-0.3836,-0.3963,0.0,0.0,0.0,0.0,0.0,0.0,0.0,0.0,-0.4587,-0.4512,-0.4315,-0.3897,-0.3578,-0.3328,-0.2773,0.0,0.0,0.0,-0.0202,0.0303,0.0707,0.1061,0.1415,0.1415,0.1516,0.1617,0.1617,0.1617,0.1617,0.1617,0.1617,0.1617,0.1768,0.0,0.0,0.0,0.207,0.207,0.2068,0.2199,0.2338,0.2462,0.2539,0.2604,0.2684,0.2661,0.2638,0.2866,0.2604,0.2291,0.2273,0.2269,0.2371,0.2623,0.2674,0.2725,0.2826,0.2826,0.2826,0.2674,0.2522,0.2422,0.2269,0.2118,0.2068,0.2068,0.2068,0.2068,0.2068,0.2068,0.2068,0.2068,0.2068,0.1916,0.1664,0.1513,0.1463,0.1462,0.1613,0.1714,0.1865,0.2017,0.1513,0.0554,0.0554,0.0454,0.0302,0.0302,0.0151,-0.0101,-0.0101,-0.0151,-0.0252,-0.0252,-0.0101,0.0151,0.0,0.0,0.0,0.0,0.0,0.0,0.0,0.0,0.0,0.0,0.0,0.0,-0.3802,0.0,0.0,0.0,0.0,0.0,-0.3861,0.0,0.0,0.0,0.0,0.0,0.0,0.0,0.0,-0.4265,-0.4422,-0.4269,-0.3846,-0.3289,-0.2722,-0.217,-0.1766,-0.1161,0.0,0.0,0.0556,0.0909,0.1212,0.1415,0.1617,0.1617,0.1617,0.1617,0.1617,0.1617,0.1617,0.1667,0.1718,0.1768,0.2122,0.2223,0.0,0.0,0.0,0.3025,0.3025,0.3056,0.3089,0.2986,0.3174,0.3301,0.3102,0.3247,0.3337,0.324,0.318,0.313,0.2927,0.2927,0.2977,0.318,0.318,0.3185,0.3201,0.3203,0.3208,0.3223,0.3071,0.2962,0.2949,0.2743,0.2638,0.2624,0.2623,0.2623,0.2623,0.2623,0.2623,0.2623,0.2623,0.2522,0.232,0.232,0.2269,0.2219,0.2269,0.2422,0.2623,0.2623,0.2371,0.2017,0.1865,0.1714,0.1513,0.1513,0.1412,0.121,0.121,0.121,0.121,0.121,0.131,0.1513,0.0,0.0,0.0,0.0,0.0,0.0,0.0,0.0,0.0,0.0,0.0,0.0,0.0,0.0,0.0,0.0,0.0,0.0,0.0,0.0,0.0,0.0,0.0,0.0,0.0,0.0,-0.417,-0.3909,-0.4111,-0.3715,-0.2673,-0.2528,-0.1766,-0.0505,-0.0505,-0.0202,0.0354,0.0909,0.0,0.0,0.1465,0.1566,0.1617,0.1617,0.1617,0.1617,0.1617,0.1617,0.1617,0.187,0.1971,0.2071,0.2575,0.2775,0.2927,0.0,0.0,0.0,0.4684,0.4686,0.4642,0.4343,0.4297,0.4199,0.3691,0.3591,0.3488,0.3232,0.318,0.318,0.318,0.318,0.318,0.318,0.318,0.32,0.3309,0.3316,0.3338,0.3397,0.3402,0.3327,0.327,0.3264,0.3242,0.3184,0.318,0.318,0.318,0.318,0.318,0.318,0.318,0.313,0.313,0.313,0.3027,0.2775,0.3027,0.313,0.318,0.318,0.313,0.3079,0.2573,0.237,0.232,0.232,0.232,0.232,0.232,0.232,0.232,0.232,0.232,0.2371,0.0,0.0,0.0,0.0,0.0,0.0,0.0,0.0,0.0,0.0,0.0,0.0,0.0,-0.4114,-0.419,-0.419,0.0,0.0,0.0,0.0,0.0,0.0,0.0,0.0,0.0,-0.4389,-0.4166,-0.3903,-0.3875,-0.3434,-0.2573,-0.1956,-0.1097,-0.0152,0.0051,0.0404,0.096,0.1313,0.1465,0.1465,0.1566,0.1617,0.1617,0.1617,0.1617,0.1617,0.1617,0.1617,0.0,0.0,0.2121,0.2372,0.3077,0.3528,0.3979,0.4782,0.5183,0.5336,0.5336,0.5336,0.5286,0.5188,0.5037,0.4839,0.469,0.4487,0.4334,0.4234,0.4234,0.4234,0.4234,0.3682,0.3192,0.3282,0.3289,0.3311,0.3371,0.3379,0.3388,0.341,0.3413,0.3403,0.3382,0.3379,0.3354,0.3293,0.3289,0.322,0.3183,0.318,0.318,0.318,0.318,0.318,0.318,0.318,0.313,0.3079,0.313,0.318,0.318,0.318,0.318,0.318,0.2977,0.2927,0.2927,0.2927,0.2927,0.2927,0.2927,0.2927,0.2927,0.2927,0.2927,0.2927,0.0,0.0,0.0,0.0,0.0,0.0,0.0,0.0,0.0,0.0,0.0,0.0,0.0,0.0,-0.4492,-0.4492,0.0,0.0,0.0,0.0,0.0,0.0,0.0,0.0,0.0,-0.4389,-0.4076,-0.3678,-0.3525,-0.2933,-0.1934,-0.1259,-0.0444,0.04,0.0604,0.0909,0.1364,0.1516,0.1617,0.1617,0.1617,0.1617,0.1617,0.1617,0.1617,0.1617,0.1617,0.1667,0.0,0.0,0.0,0.2924,0.3729,0.4632,0.5482,0.6084,0.6334,0.6387,0.6387,0.6387,0.6387,0.6284,0.6087,0.5839,0.5639,0.5388,0.5188,0.5085,0.5085,0.5085,0.5085,0.4558,0.4036,0.3778,0.3597,0.353,0.354,0.3494,0.3448,0.3469,0.3471,0.3463,0.3443,0.344,0.3416,0.3357,0.3352,0.3326,0.3213,0.3211,0.3201,0.3181,0.318,0.318,0.318,0.318,0.318,0.318,0.318,0.318,0.318,0.318,0.318,0.318,0.318,0.318,0.318,0.318,0.318,0.318,0.318,0.318,0.318,0.318,0.318,0.318,0.0,0.0,0.0,0.0,0.0,0.0,0.0,0.0,0.0,-0.4787,0.0,0.0,0.0,0.0,0.0,-0.4703,0.0,0.0,0.0,0.0,0.0,0.0,0.0,0.0,0.0,-0.43,-0.3941,-0.3183,-0.3063,-0.2217,-0.0694,-0.0481,0.0196,0.1179,0.1201,0.1364,0.1617,0.1617,0.1617,0.1617,0.1617,0.1617,0.1617,0.1617,0.1617,0.1617,0.1617,0.1768,0.0,0.2321,0.0,0.0,0.4582,0.5934,0.7285,0.758,0.7832,0.8038,0.0,0.0,0.0,0.768,0.7434,0.7086,0.6587,0.6239,0.5989,0.5737,0.5684,0.5687,0.5689,0.5831,0.5698,0.482,0.4264,0.3967,0.3928,0.3718,0.3575,0.358,0.3587,0.3564,0.3504,0.3499,0.3476,0.342,0.3416,0.3388,0.3327,0.3322,0.3293,0.3183,0.318,0.318,0.318,0.318,0.318,0.318,0.318,0.318,0.318,0.318,0.318,0.318,0.318,0.318,0.318,0.318,0.318,0.318,0.318,0.318,0.318,0.318,0.318,0.318,0.0,0.0,0.0,0.0,0.0,0.0,-0.6917,-0.6444,-0.6,0.0,0.0,0.0,-0.5196,-0.5183,-0.5202,-0.5202,0.0,0.0,0.0,0.0,0.0,-0.5144,-0.4868,-0.4661,-0.4569,-0.4214,-0.3765,-0.3183,-0.2661,-0.1823,-0.0694,-0.0094,0.0525,0.1228,0.1383,0.1547,0.1617,0.1617,0.1617,0.1617,0.1617,0.1617,0.1617,0.1617,0.1617,0.1617,0.0,0.1768,0.2071,0.0,0.3228,0.4182,0.0,0.7235,0.8131,0.8379,0.8528,0.8581,0.8581,0.0,0.0,0.0,0.0,0.0,0.7882,0.7637,0.7441,0.7338,0.7338,0.7366,0.7512,0.7492,0.7302,0.702,0.599,0.5072,0.4663,0.4562,0.4349,0.3923,0.3868,0.3805,0.362,0.3563,0.3538,0.0,0.3473,0.3448,0.339,0.3345,0.3293,0.3183,0.318,0.318,0.318,0.318,0.318,0.318,0.318,0.318,0.318,0.318,0.318,0.318,0.318,0.318,0.318,0.318,0.318,0.318,0.318,0.318,0.318,0.318,0.318,0.3187,0.0,0.0,0.0,0.0,0.0,-0.8218,-0.8074,-0.7596,-0.7105,0.0,0.0,0.0,-0.5726,-0.5606,-0.5521,0.0,0.0,0.0,0.0,0.0,-0.5256,-0.5233,-0.4882,-0.4661,-0.4525,-0.4125,-0.3587,-0.2911,-0.2198,-0.1309,-0.0228,0.0,0.0,0.1343,0.1512,0.1581,0.1598,0.1611,0.1617,0.1617,0.1617,0.1617,0.1617,0.1617,0.1617,0.0,0.0,0.0,0.2272,0.2925,0.4029,0.0,0.7182,0.8184,0.8783,0.9076,0.9126,0.9126,0.9126,0.9126,0.9126,0.9126,0.0,0.0,0.8733,0.8535,0.8333,0.8333,0.8333,0.8382,0.8584,0.8588,0.8533,0.841,0.7723,0.6853,0.5813,0.5431,0.5152,0.4817,0.454,0.4316,0.4147,0.3923,0.3741,0.3704,0.3589,0.3499,0.3417,0.3354,0.3293,0.3183,0.318,0.318,0.318,0.318,0.318,0.318,0.318,0.318,0.318,0.318,0.318,0.318,0.318,0.318,0.318,0.318,0.318,0.318,0.318,0.318,0.318,0.318,0.3196,0.3221,0.0,0.0,-0.9473,-0.9325,-0.9444,-0.9411,-0.9055,-0.8771,-0.8276,0.0,-0.7172,-0.68,-0.618,-0.5897,-0.5729,0.0,0.0,0.0,0.0,0.0,-0.5255,-0.4985,-0.4752,-0.4525,-0.4255,-0.3989,-0.3361,-0.2464,-0.1704,-0.0718,0.0405,0.0,0.0,0.0,0.1596,0.1622,0.1579,0.1605,0.1617,0.1617,0.1617,0.1617,0.1617,0.1617,0.1617,0.1617,0.1921,0.2171,0.2573,0.3527,0.5229,0.0,0.8131,0.8832,0.9286,0.9529,0.9579,0.0,0.9579,0.9579,0.9579,0.9579,0.943,0.0,0.9236,0.908,0.8874,0.8874,0.8874,0.8927,0.9146,0.932,0.938,0.9219,0.9381,0.8878,0.7157,0.6434,0.6044,0.5933,0.5431,0.5096,0.4985,0.4484,0.4148,0.4092,0.3813,0.3595,0.3428,0.3364,0.3304,0.3192,0.3184,0.318,0.318,0.318,0.318,0.318,0.318,0.318,0.318,0.318,0.318,0.318,0.318,0.318,0.318,0.318,0.318,0.318,0.318,0.318,0.3181,0.3188,0.3223,0.3323,0.0,-1.0099,-1.0208,-1.0578,-1.0466,-1.0349,-1.0266,-0.9862,-0.9436,-0.8927,-0.7941,-0.6976,-0.6327,-0.6097,0.0,0.0,0.0,0.0,0.0,0.0,-0.5141,-0.4869,-0.4566,-0.4257,-0.3991,-0.3542,-0.3004,-0.2242,-0.13,-0.0407,0.0414,0.0,0.0,0.0,0.1615,0.1585,0.1609,0.1614,0.1617,0.1617,0.1617,0.1617,0.1617,0.1617,0.1617,0.1617,0.1921,0.2323,0.3026,0.4878,0.6531,0.7885,0.0,0.9076,0.9529,0.9579,0.9579,0.9579,0.9579,0.9579,0.9579,0.9579,0.9579,0.0,0.9529,0.948,0.9426,0.9426,0.9426,0.9528,0.9704,0.9884,0.9955,0.9858,0.9977,0.9647,0.8318,0.7823,0.7376,0.693,0.6546,0.6156,0.5654,0.5318,0.5039,0.4763,0.4204,0.3779,0.3484,0.3425,0.3367,0.3305,0.3205,0.318,0.318,0.318,0.318,0.318,0.318,0.318,0.318,0.318,0.318,0.318,0.318,0.318,0.318,0.318,0.318,0.318,0.318,0.318,0.3187,0.3286,0.3311,0.3335,0.0,-1.0482,-1.0713,-1.0945,-1.0958,-1.0904,-1.0804,-1.0608,-1.0251,-0.969,-0.8477,-0.7435,-0.6833,-0.647,0.0,0.0,0.0,0.0,0.0,0.0,-0.5109,-0.4875,-0.4598,-0.4342,-0.4068,-0.3421,-0.2681,-0.1849,-0.0832,0.0046,0.0799,0.1127,0.1377,0.1549,0.1565,0.158,0.1595,0.1611,0.1617,0.1617,0.1617,0.1617,0.1617,0.1617,0.1617,0.1667,0.207,0.2977,0.4234,0.5684,0.7083,0.0,0.8832,0.9278,0.9579,0.0,0.9579,0.9579,0.9579,0.9579,0.9579,0.9579,0.0,0.0,0.0,0.9579,0.9579,0.9579,0.9579,0.9681,0.9851,1.0034,1.0221,1.0186,1.0357,1.0308,0.9699,0.9096,0.8598,0.8266,0.7875,0.7435,0.6932,0.6485,0.5984,0.5375,0.4929,0.4559,0.4153,0.4119,0.3945,0.3581,0.3496,0.3413,0.318,0.318,0.318,0.318,0.318,0.318,0.318,0.3332,0.3383,0.3383,0.3531,0.3581,0.3632,0.3734,0.3784,0.3784,0.3381,0.3199,0.3279,0.3311,0.3411,0.3632,-1.0358,-1.0697,-1.0999,-1.1047,-1.1177,-1.1278,-1.1152,-1.1114,-1.0842,-1.0061,-0.8977,-0.8012,-0.73,-0.6851,-0.6438,-0.6202,0.0,0.0,0.0,-0.5468,-0.5215,-0.4879,-0.4674,-0.4429,-0.4047,-0.3285,-0.2428,-0.1332,-0.0381,0.0478,0.1199,0.1438,0.1538,0.1545,0.1569,0.158,0.1582,0.1607,0.1617,0.1617,0.1617,0.1617,0.1617,0.1617,0.1617,0.1667,0.2321,0.3679,0.534,0.6187,0.7335,0.8482,0.9034,0.9381,0.0,0.0,0.0,0.9579,0.9579,0.9579,0.9579,0.0,0.0,0.9579,0.0,0.0,0.0,0.9579,0.9579,0.9669,0.9811,0.9985,1.0168,1.0355,1.053,1.0655,1.0688,1.0091,0.9655,0.9599,0.9096,0.8598,0.8322,0.7654,0.6932,0.6098,0.5819,0.5507,0.5105,0.5031,0.4744,0.4191,0.4055,0.3859,0.3552,0.3539,0.3531,0.3531,0.3531,0.3531,0.3531,0.3734,0.3836,0.3836,0.4135,0.4234,0.4234,0.4537,0.4638,0.4537,0.3783,0.3571,0.3632,0.3646,0.3884,0.4153,-1.0554,-1.0805,-1.1052,-1.123,-1.1289,-1.1375,-1.1584,-1.1616,-1.1249,-1.0278,-0.9588,-0.8697,-0.7501,-0.7027,-0.665,-0.6396,-0.6346,-0.6148,-0.565,-0.552,-0.5275,-0.474,-0.4664,-0.4239,-0.3526,-0.2953,-0.2048,-0.081,0.0,0.0625,0.1223,0.1469,0.1581,0.1607,0.161,0.1611,0.1612,0.1615,0.1617,0.1617,0.1617,0.1617,0.1617,0.1617,0.1617,0.1718,0.2726,0.4034,0.534,0.0,0.7481,0.8482,0.0,0.9381,0.9579,0.9579,0.0,0.0,0.0,0.0,0.0,0.0,0.9579,0.0,0.0,0.0,0.9579,0.9579,0.0,0.9583,0.9652,0.0,0.0,1.0216,1.0347,1.0517,1.0672,1.0637,1.0472,1.0257,0.9871,0.9541,0.9268,0.8432,0.7654,0.6988,0.6712,0.6427,0.6135,0.5775,0.5556,0.5478,0.5107,0.4864,0.4803,0.4673,0.4634,0.4634,0.4634,0.4634,0.4634,0.4634,0.4684,0.4684,0.4937,0.5039,0.509,0.5338,0.5486,0.5386,0.4834,0.4688,0.4826,0.4853,0.4992,0.5138,-1.0837,-1.1031,-1.1187,-1.1289,-1.1418,-1.1585,-1.1682,-1.1799,-1.1543,-1.0651,-1.0071,-0.9217,-0.7897,-0.7307,-0.6839,-0.6437,-0.6387,-0.6187,-0.5636,-0.5596,0.0,-0.4781,-0.4745,-0.4332,-0.3546,-0.2856,-0.1823,-0.0543,0.0247,0.0892,0.0,0.0,0.1605,0.1617,0.1617,0.1617,0.1617,0.1617,0.1617,0.1617,0.1617,0.1617,0.1617,0.1617,0.1718,0.192,0.2675,0.3731,0.4885,0.0,0.703,0.0,0.0,0.0,0.0,0.9579,0.0,0.0,0.0,0.0,0.0,0.0,0.0,0.0,0.9579,0.0,0.9579,0.0,0.0,0.0,0.0,0.0,0.0,0.0,1.0314,1.0493,1.0668,1.0692,1.0637,1.0527,0.0,0.0,0.9926,0.9265,0.8712,0.8432,0.8152,0.7873,0.7595,0.7216,0.6884,0.6542,0.6068,0.5699,0.5541,0.5335,0.5286,0.5286,0.5286,0.5286,0.5286,0.5436,0.5489,0.5539,0.5937,0.6134,0.6184,0.6584,0.6826,0.6946,0.6842,0.63,0.5527,0.5683,0.5891,0.6095,-1.1069,-1.1187,-1.1327,-1.1391,-1.1585,-1.1697,-1.1786,-1.1962,-1.1791,-1.0827,-1.0276,-0.9472,-0.8035,-0.7487,-0.6989,-0.6437,-0.6337,-0.6087,-0.5636,-0.5536,-0.5286,-0.4834,-0.4784,-0.4383,-0.353,-0.2774,-0.1716,-0.0303,0.0455,0.1061,0.0,0.0,0.1617,0.1617,0.1617,0.1617,0.1617,0.1617,0.1617,0.1617,0.1617,0.1617,0.1617,0.1617,0.1768,0.2071,0.2624,0.3377,0.4329,0.5432,0.6434,0.0,0.8226,0.8779,0.9133,0.0,0.0,0.0,0.9579,0.0,0.0,0.0,0.0,0.0,0.0,0.0,0.0,0.0,0.0,0.0,0.0,0.0,0.0,0.0,0.0,1.044,0.0,1.0692,1.0692,0.0,0.0,0.0,0.0,0.9926,0.9655,0.9655,0.9313,0.9034,0.8871,0.8543,0.8164,0.7735,0.7282,0.6893,0.6616,0.6444,0.6316,0.6237,0.6237,0.6237,0.6287,0.6439,0.6542,0.6592,0.7033,0.7229,0.7282,0.7822,0.8106,0.8269,0.8553,0.7965,0.6898,0.6883,0.7051,0.7321,-1.1246,-1.13,-1.138,-1.165,-1.1693,-1.1764,-1.1942,-1.2214,-1.1917,-1.0596,-1.0162,-0.9373,-0.7779,-0.7385,-0.6989,-0.6437,-0.6139,-0.5889,-0.5636,-0.5338,-0.509,-0.4834,-0.4784,-0.4284,-0.323,-0.2674,-0.1614,0.0,0.0556,0.1061,0.1617,0.0,0.0,0.1617,0.1617,0.1617,0.1617,0.1617,0.1617,0.1617,0.1617,0.1617,0.1617,0.0,0.1768,0.2071,0.2624,0.0,0.0,0.4887,0.5789,0.0,0.0,0.0,0.0,0.0,0.0,0.0,0.0,0.0,0.0,0.9579,0.0,0.0,0.0,0.0,0.9579,0.0,0.0,0.0,0.0,0.0,0.0,0.0,0.0,0.0,0.0,0.0,1.0692,0.0,0.0,0.0,0.0,1.0421,1.0257,0.0,0.9981,0.9761,0.9761,0.9485,0.932,0.9316,0.8889,0.8575,0.8423,0.8271,0.8126,0.7939,0.7939,0.7939,0.7939,0.7939,0.7939,0.7939,0.8233,0.8333,0.8393,0.8852,0.9075,0.9112,0.9425,0.9552,0.9394,0.8814,0.8692,0.8809,-1.1564,-1.1704,-1.179,-1.1715,-1.182,-1.1854,-1.1776,-1.1638,-1.1243,-1.0265,-0.9571,-0.8775,-0.773,-0.7188,-0.6792,-0.6437,-0.6139,-0.5889,-0.5636,-0.5338,-0.509,-0.4834,-0.4636,-0.4135,-0.323,-0.2522,-0.1412,0.0,0.0556,0.1061,0.1617,0.1617,0.0,0.0,0.1617,0.1617,0.1617,0.1617,0.1617,0.1617,0.1617,0.1617,0.1617,0.0,0.1667,0.1768,0.2122,0.2624,0.0,0.388,0.4784,0.5739,0.6534,0.7381,0.8127,0.873,0.913,0.9385,0.0,0.0,0.9579,0.9579,0.0,0.0,0.0,0.0,0.0,0.0,0.0,0.0,0.0,0.0,0.0,0.0,0.0,0.0,0.0,0.0,1.0692,1.0692,1.0692,1.0692,0.0,0.0,1.0582,1.0582,1.0472,1.0417,1.0417,1.0147,0.9981,0.9981,0.9548,0.9222,0.9014,0.8903,0.874,0.8531,0.8531,0.8531,0.8531,0.8531,0.8531,0.8531,0.8832,0.8935,0.8947,0.9462,0.9705,0.9836,1.0069,1.0232,1.0272,0.9676,0.9435,0.9537,-1.1806,-1.2062,-1.2129,-1.1842,-1.176,-1.1573,-1.1224,-1.0846,-1.0355,-0.9521,-0.8878,-0.823,-0.7385,-0.6992,-0.6642,-0.6287,-0.5989,-0.5739,-0.5486,-0.5188,-0.4987,-0.4784,-0.4537,-0.3986,-0.3079,-0.2269,-0.1211,0.0152,0.0657,0.1162,0.1617,0.1617,0.0,0.0,0.1617,0.1617,0.1617,0.1617,0.1617,0.1617,0.1617,0.1617,0.0,0.0,0.1617,0.1617,0.0,0.2272,0.2724,0.3278,0.4033,0.4939,0.5739,0.6537,0.7322,0.8065,0.8645,0.9045,0.9335,0.9433,0.0,0.9612,0.9579,0.0,0.9579,0.0,0.9579,0.0,0.0,0.0,0.0,0.0,0.0,0.0,0.0,0.0,0.0,1.0692,0.0,1.0692,1.0692,1.0692,1.0692,1.0692,1.0692,1.0692,1.0692,1.0692,0.0,1.0527,1.0417,1.0417,1.0144,0.9869,0.9642,0.953,0.9357,0.9076,0.9076,0.9076,0.9076,0.9076,0.9076,0.9076,0.9278,0.9367,0.9484,0.9861,1.0091,1.0278,1.0456,1.0595,1.0637,1.0253,1.0143,1.0143,-1.2067,-1.2217,-1.2241,-1.1957,-1.1501,-1.0949,-1.0408,-0.9858,-0.9266,-0.8482,-0.8137,-0.764,-0.6895,-0.6795,-0.6592,-0.6042,-0.5737,-0.5489,-0.5247,-0.4943,-0.4792,-0.4798,-0.4545,-0.389,-0.2829,-0.1968,-0.0908,0.0404,0.096,0.1314,0.1617,0.1617,0.0,0.0,0.1617,0.1617,0.1617,0.1617,0.1617,0.1617,0.1617,0.1617,0.1617,0.1617,0.1617,0.1617,0.187,0.2171,0.2472,0.2977,0.3481,0.4083,0.4889,0.5684,0.6454,0.7125,0.7907,0.8579,0.8864,0.9156,0.9397,0.9571,0.9571,0.0,0.0,0.0,0.9579,0.0,0.0,0.0,0.0,0.0,0.0,0.0,0.0,0.0,0.0,0.0,1.0692,0.0,1.0692,1.0692,1.0692,1.0692,1.0692,1.0692,1.0692,1.0692,0.0,1.0692,1.0692,1.0692,1.0692,1.0521,1.0216,1.0212,0.9981,0.9579,0.9579,0.9579,0.9579,0.9579,0.9579,0.9579,0.9579,0.9726,0.99,1.0139,1.027,1.0399,1.0627,1.0692,1.0692,1.0692,1.0692,1.0692,-1.2072,-1.1599,-1.1118,-1.0875,-1.0721,-1.031,-0.9369,-0.8775,-0.8283,-0.7882,-0.7388,-0.7042,-0.6845,-0.6639,-0.6389,-0.6042,-0.5737,-0.5519,-0.5346,-0.5092,-0.4864,-0.4717,-0.425,-0.35,-0.2575,-0.1525,-0.0555,0.0404,0.096,0.1314,0.1617,0.1617,0.1617,0.0,0.1617,0.1617,0.1617,0.1617,0.1617,0.1617,0.1617,0.1617,0.1617,0.0,0.1617,0.1617,0.1667,0.1869,0.2122,0.2273,0.2676,0.3228,0.383,0.4388,0.502,0.6025,0.6771,0.7452,0.811,0.868,0.9176,0.9413,0.9527,0.9579,0.0,0.0,0.0,0.0,0.0,0.0,0.0,0.0,0.0,0.0,0.0,0.0,0.0,0.0,0.0,1.0692,1.0692,1.0692,1.0692,1.0692,1.0692,1.0692,1.0692,1.0692,1.0692,1.0692,1.0692,1.0692,1.0692,1.0521,1.0216,1.0212,0.9981,0.9579,0.9579,0.9579,0.9579,0.9579,0.9579,0.9579,0.9579,0.9726,0.99,1.0139,1.027,1.0399,1.0627,1.0692,1.0692,1.0692,1.0692,1.0692,-1.1874,-1.1167,-1.0408,-0.9817,-0.9521,-0.9126,-0.8531,-0.7885,-0.7441,-0.7288,-0.6889,-0.6639,-0.6639,-0.6389,-0.616,-0.5908,-0.5657,-0.5446,-0.5289,-0.5137,-0.4948,-0.4731,-0.4005,-0.3187,-0.2178,-0.1027,0.0,0.0758,0.1162,0.1465,0.1617,0.1617,0.1617,0.1617,0.1617,0.1617,0.1617,0.1617,0.1617,0.1617,0.1617,0.1617,0.0,0.1617,0.1617,0.1617,0.1617,0.1768,0.2022,0.2022,0.2272,0.2674,0.3127,0.3601,0.4148,0.4905,0.5701,0.6485,0.7081,0.7783,0.8408,0.8837,0.9139,0.9335,0.9414,0.9529,0.9579,0.0,0.9579,0.9579,0.0,0.0,0.0,0.0,0.0,0.0,0.0,0.0,0.0,0.0,1.0692,0.0,1.0692,1.0692,1.0692,1.0692,1.0692,1.0692,0.0,1.0692,1.0692,1.0692,1.0692,1.0521,1.0216,1.0212,0.9981,0.9579,0.9579,0.9579,0.9579,0.9579,0.9579,0.9579,0.9579,0.977,1.0014,1.0171,1.0314,1.0558,1.0655,1.0692,1.0692,1.0692,1.0692,1.0692,-1.1404,-1.0703,-0.9817,-0.8874,-0.8233,-0.7846,-0.7865,-0.7253,-0.6742,-0.6742,-0.6553,-0.6408,-0.6361,-0.6176,-0.5974,-0.5759,-0.5561,-0.5346,-0.512,-0.5073,-0.4917,-0.4605,-0.3741,-0.2754,-0.1613,-0.0519,0.0411,0.0,0.0,0.1617,0.1617,0.1617,0.1617,0.1617,0.1617,0.1617,0.1617,0.1617,0.1617,0.1617,0.1617,0.1617,0.1617,0.1617,0.1617,0.1617,0.1617,0.1768,0.1971,0.1971,0.2121,0.2321,0.2624,0.3021,0.3443,0.3813,0.4621,0.5437,0.5928,0.6612,0.7393,0.7958,0.8486,0.89,0.9049,0.9282,0.9525,0.9529,0.9529,0.9579,0.0,0.0,0.0,0.0,0.0,0.0,0.0,0.0,0.0,0.0,0.0,0.0,0.0,1.0692,1.0692,1.0692,1.0692,0.0,0.0,0.0,1.0692,1.0692,1.0692,1.0521,1.0216,1.0212,0.9981,0.9579,0.9579,0.9579,0.9579,0.9579,0.9579,0.9579,0.9652,0.9851,1.0216,1.0241,1.0391,1.0692,1.0692,1.0692,1.0692,1.0692,1.0692,1.0692,-1.0145,-0.9316,-0.863,-0.8237,-0.749,-0.703,-0.7139,-0.6757,-0.6487,-0.6487,-0.6526,-0.6487,-0.6233,-0.6269,-0.6123,-0.5615,-0.5512,-0.5392,-0.5214,-0.5002,0.0,-0.4164,-0.3232,-0.2211,-0.106,-0.0157,0.0617,0.0,0.0,0.1617,0.1617,0.1617,0.1617,0.1617,0.1617,0.1617,0.1617,0.1617,0.0,0.1617,0.1617,0.1617,0.1617,0.1617,0.1617,0.1617,0.1617,0.1617,0.1667,0.1667,0.1718,0.1768,0.2071,0.2149,0.2315,0.2786,0.3469,0.4118,0.4541,0.5521,0.6514,0.7023,0.7666,0.8252,0.8478,0.873,0.9027,0.9232,0.9282,0.9335,0.9579,0.0,0.0,0.0,0.0,0.0,0.0,0.0,0.0,0.0,0.0,1.0692,0.0,0.0,0.0,1.0692,1.0692,1.0692,0.0,0.0,1.0692,0.0,1.0692,1.0521,0.0,0.0,0.9981,0.9579,0.9579,0.9579,0.9579,0.9579,0.9579,0.9587,0.9778,0.9961,1.0228,1.0327,1.0509,1.0692,1.0692,1.0692,1.0692,1.0692,1.0692,1.0692,-0.892,-0.823,-0.7633,-0.7238,-0.6796,-0.6455,-0.6408,-0.6264,-0.6213,-0.6372,-0.6316,-0.6192,-0.6036,-0.5982,-0.5822,-0.5549,-0.5448,-0.5272,-0.5033,-0.4814,-0.4332,-0.3586,-0.2502,-0.1483,-0.0432,0.0425,0.1043,0.1435,0.0,0.0,0.1617,0.1617,0.1617,0.1617,0.1617,0.1617,0.1617,0.0,0.0,0.1617,0.1617,0.1617,0.1617,0.1617,0.1617,0.1617,0.1617,0.1617,0.1617,0.1617,0.1617,0.1617,0.1768,0.1858,0.199,0.2215,0.2728,0.3223,0.3535,0.4371,0.5204,0.5638,0.64,0.71,0.7319,0.7779,0.828,0.8535,0.8783,0.913,0.9529,0.9579,0.0,0.0,0.0,0.0,0.0,0.0,1.0465,0.0,0.0,0.0,0.0,0.0,0.0,0.0,1.0692,1.0692,1.0692,0.0,1.0692,0.0,0.0,0.0,1.0216,0.0,0.9888,0.9579,0.9579,0.9579,0.9579,0.9579,0.9579,0.9587,0.9811,0.9989,1.0237,1.0456,1.0615,1.0692,1.0692,1.0692,1.0692,1.0692,1.0692,1.0692,-0.7777,-0.7324,-0.6867,-0.6361,-0.6187,-0.6101,-0.5912,-0.5829,-0.5926,-0.628,-0.6083,-0.5936,-0.5827,-0.569,-0.5573,-0.5536,-0.5326,-0.5027,-0.4814,-0.4424,-0.3808,-0.2858,-0.1738,-0.0723,0.0164,0.0917,0.1432,0.0,0.0,0.0,0.0,0.0,0.0,0.0,0.0,0.0,0.0,0.0,0.1617,0.1617,0.1617,0.1617,0.1617,0.1617,0.1617,0.1617,0.1617,0.1617,0.1617,0.1617,0.1617,0.1617,0.1617,0.1768,0.1915,0.1837,0.2173,0.2605,0.2748,0.3268,0.3914,0.4345,0.515,0.5876,0.6116,0.6684,0.7282,0.7587,0.8184,0.8779,0.9327,0.948,0.0,0.0,0.0,0.0,0.0,0.0,1.0347,0.0,0.0,0.0,1.0688,0.0,0.0,0.0,0.0,1.0692,1.0692,1.0692,1.0692,0.0,0.0,1.0347,1.0216,0.0,0.9799,0.9579,0.9579,0.9579,0.9579,0.9579,0.9579,0.9591,0.9851,1.0071,1.0347,1.0578,1.0692,1.0692,1.0692,1.0692,1.0692,1.0692,1.0692,1.0692,-0.66,-0.6445,-0.6288,-0.5977,-0.5934,-0.5972,-0.607,-0.5818,-0.5683,-0.5914,-0.6039,-0.599,-0.566,-0.5742,-0.5688,-0.5423,-0.5142,-0.4808,-0.4534,-0.3696,-0.2858,-0.1963,-0.1009,-0.0056,0.082,0.1146,0.1449,0.0,0.0,0.1643,0.1617,0.1617,0.0,0.0,0.0,0.0,0.0,0.1617,0.1617,0.1617,0.1617,0.1617,0.1617,0.1617,0.1617,0.1617,0.1617,0.1617,0.1617,0.1617,0.1617,0.1617,0.1617,0.1617,0.1616,0.1613,0.1814,0.2058,0.2019,0.2429,0.3049,0.3491,0.4115,0.472,0.5186,0.5536,0.5934,0.6437,0.7385,0.8233,0.8775,0.908,0.9331,0.0,0.0,0.0,0.0,0.0,1.0059,1.0342,0.0,0.0,1.0676,1.0692,0.0,0.0,1.0692,1.0692,1.0692,1.0692,1.0692,1.0692,1.0526,1.0347,1.0216,0.9977,0.9799,0.9579,0.9579,0.9579,0.9579,0.9579,0.9579,0.9599,0.9989,1.0384,1.0647,1.068,1.0692,1.0692,1.0692,1.0692,1.0692,1.0692,1.0692,1.0692,-0.6162,-0.5953,-0.5797,-0.5693,-0.5581,0.0,0.0,-0.5509,-0.5533,-0.5606,-0.5634,-0.5603,-0.549,-0.5524,-0.5435,-0.51,-0.4817,-0.4369,-0.3696,-0.2802,-0.1906,-0.1009,-0.0112,0.0615,0.111,0.1429,0.163,0.0,0.0,0.1707,0.1643,0.1625,0.0,0.0,0.0,0.1617,0.1617,0.1617,0.1617,0.1617,0.1617,0.1617,0.1617,0.1617,0.1617,0.1617,0.1617,0.1617,0.1617,0.1617,0.1617,0.1617,0.1617,0.1617,0.1617,0.1617,0.1667,0.1765,0.1702,0.2009,0.2369,0.255,0.301,0.3478,0.3731,0.4234,0.4734,0.5131,0.6331,0.7484,0.8184,0.8535,0.8832,0.9076,0.0,0.0,0.0,0.0,0.0,1.0031,0.0,1.0505,1.0676,1.0692,0.0,0.0,0.0,1.0692,1.0692,1.0692,1.0692,1.0692,0.0,1.0237,1.0212,0.9876,0.9697,0.9579,0.9579,0.9579,0.9583,0.9734,0.9904,1.0067,1.0266,1.0465,1.0692,1.0692,1.0692,1.0692,1.0692,1.0692,1.0692,1.0692,1.0692,1.0692,-0.5833,0.0,-0.5461,0.0,-0.5352,-0.5284,-0.5284,-0.5339,-0.5382,-0.5268,-0.5268,-0.5268,-0.5268,-0.5268,-0.51,-0.4651,-0.4313,-0.3696,-0.2802,-0.1906,-0.0953,-0.0056,0.0673,0.0,0.1458,0.1663,0.1814,0.1804,0.1762,0.1731,0.1714,0.1631,0.0,0.0,0.1617,0.1617,0.1617,0.1617,0.1617,0.1617,0.1617,0.1617,0.1617,0.1617,0.1617,0.1617,0.1617,0.1617,0.1617,0.1617,0.1617,0.1617,0.1617,0.1617,0.1617,0.1617,0.1617,0.1617,0.1617,0.1718,0.1921,0.1971,0.2272,0.2574,0.2674,0.3127,0.3629,0.4078,0.5179,0.6381,0.7335,0.7836,0.8184,0.8627,0.0,0.0,0.0,0.9076,0.0,0.9771,1.0067,1.0337,1.0672,1.0692,0.0,0.0,0.0,1.0692,1.0692,1.0692,0.0,0.0,0.0,0.0,1.0212,0.9807,0.9579,0.9579,0.9681,0.9701,0.9709,0.9888,1.0136,1.0383,1.0383,1.0534,1.0692,1.0692,1.0692,1.0692,1.0692,1.0692,1.0692,1.0692,1.0692,1.0692,-0.5433,-0.5377,-0.5377,-0.5377,-0.538,-0.538,-0.538,-0.538,-0.5268,-0.4931,-0.4929,-0.4929,-0.4929,-0.4929,-0.4651,-0.4036,-0.3475,-0.2746,-0.1851,-0.0953,0.0,0.0,0.0,0.1458,0.1795,0.1795,0.178,0.1804,0.0,0.0,0.1714,0.0,0.1617,0.1617,0.1617,0.1617,0.1617,0.1617,0.1617,0.1617,0.1617,0.1617,0.1617,0.1617,0.1617,0.1617,0.1617,0.1617,0.1617,0.1617,0.1617,0.1617,0.1617,0.1617,0.1617,0.1617,0.1617,0.1617,0.1617,0.1617,0.1667,0.1921,0.2022,0.2071,0.2322,0.2422,0.2622,0.3426,0.4028,0.483,0.6184,0.6836,0.7484,0.8283,0.0,0.0,0.0,0.8825,0.0,0.9704,0.9803,1.0042,1.0655,1.0692,0.0,0.0,0.0,0.0,0.0,0.0,0.0,1.0692,1.0347,0.0,1.0212,0.9807,0.9579,0.9579,0.9803,0.9884,0.9888,1.0075,1.0262,1.0383,1.0383,1.0534,1.0692,1.0692,1.0692,1.0692,1.0692,1.0692,1.0692,1.0692,1.0692,1.0692,-0.5437,-0.5382,-0.5382,-0.5382,-0.5212,-0.5043,-0.5043,-0.4709,-0.443,-0.4316,-0.3923,-0.3585,-0.3417,-0.3754,-0.3755,0.0,-0.2353,-0.157,0.0,0.0,0.0673,0.1177,0.1458,0.1683,0.1795,0.1795,0.179,0.178,0.0,0.0,0.0,0.1661,0.1648,0.1647,0.1626,0.1617,0.1617,0.1617,0.1617,0.1617,0.1617,0.1617,0.1617,0.1617,0.1617,0.1617,0.1617,0.1617,0.1617,0.1617,0.1617,0.1617,0.1617,0.1617,0.1617,0.1617,0.1617,0.1617,0.1617,0.1617,0.1617,0.1718,0.1718,0.1768,0.1818,0.202,0.2323,0.2925,0.3478,0.413,0.5133,0.5887,0.6639,0.7437,0.7789,0.0,0.8233,0.0,0.866,0.9032,0.9521,0.9885,1.0216,1.051,0.0,0.0,0.0,0.0,0.0,0.0,0.0,0.0,1.0347,0.0,1.0347,0.9985,0.9868,0.9994,1.0046,1.014,1.0262,1.0322,1.0444,1.0611,1.0611,1.0639,1.0692,1.0692,1.0692,1.0692,1.0692,1.0692,1.0692,1.0692,1.0692,1.0692,-0.5382,-0.5382,-0.5382,-0.5212,-0.4931,-0.465,-0.4426,-0.3979,-0.3587,-0.3362,-0.2913,-0.2464,-0.2073,-0.2185,0.0,-0.2017,-0.1289,-0.0561,0.0056,0.0673,0.1177,0.1458,0.1683,0.1795,0.1795,0.1795,0.0,0.1795,0.182,0.1849,0.1882,0.1903,0.194,0.2044,0.1969,0.1959,0.1959,0.1959,0.1908,0.1804,0.1804,0.1746,0.1634,0.1634,0.1627,0.1617,0.1617,0.1617,0.1617,0.1617,0.1617,0.1617,0.1617,0.1617,0.1617,0.1617,0.1617,0.1617,0.1617,0.1617,0.1617,0.1617,0.1617,0.1617,0.1617,0.1718,0.197,0.2424,0.2775,0.3278,0.418,0.4985,0.5851,0.6852,0.7418,0.7841,0.8147,0.0,0.848,0.0,0.0,0.0,0.0,1.0419,1.0692,0.0,0.0,0.0,0.0,0.0,1.0692,1.0692,1.0412,1.0318,1.0379,1.014,1.0098,1.0212,1.0233,1.0359,1.053,1.053,1.059,1.0692,1.0692,1.0692,1.0692,1.0692,1.0692,1.0692,1.0692,1.0692,1.0692,1.0692,1.0692,1.0692,-0.5382,-0.5382,-0.5268,0.0,-0.4592,-0.4201,-0.3586,-0.3194,-0.2745,-0.2128,-0.1848,-0.1456,-0.0897,-0.028,-0.0112,-0.0673,0.0,0.0,0.0897,0.1177,0.1458,0.1795,0.1795,0.1795,0.1795,0.1795,0.1795,0.1851,0.1822,0.1972,0.2245,0.2207,0.2348,0.2616,0.2613,0.2611,0.2611,0.2611,0.2451,0.2237,0.2237,0.2006,0.1717,0.1717,0.1699,0.1623,0.1623,0.1623,0.1623,0.1623,0.1623,0.1623,0.1623,0.1622,0.162,0.1618,0.1617,0.1617,0.1617,0.1617,0.1617,0.1617,0.1617,0.1617,0.1617,0.1617,0.1667,0.1921,0.1971,0.2323,0.3377,0.4236,0.5225,0.6449,0.7346,0.8014,0.8462,0.837,0.8436,0.0,0.0,0.0,0.9923,1.0419,1.0692,0.0,0.0,0.0,0.0,0.0,1.0692,1.0692,1.0526,1.0387,1.0399,1.027,1.0241,1.0253,1.0371,1.0538,1.0692,1.0692,1.0692,1.0692,1.0692,1.0692,1.0692,1.0692,1.0692,1.0692,1.0692,1.0692,1.0692,1.0692,1.07,1.0712,0.0,0.0,-0.4875,-0.4316,-0.3755,-0.3249,-0.2632,-0.1905,-0.1289,-0.0897,-0.0392,-0.0056,0.0056,0.0617,0.0953,0.0785,0.0897,0.1065,0.1177,0.1514,0.1739,0.1795,0.1795,0.1795,0.1795,0.1795,0.1907,0.2132,0.2123,0.2286,0.2565,0.2521,0.2555,0.2608,0.2573,0.2611,0.2611,0.2611,0.2558,0.2504,0.2504,0.2339,0.2066,0.2066,0.1902,0.1684,0.1684,0.1684,0.1684,0.1684,0.1684,0.1684,0.1684,0.1669,0.1647,0.1624,0.1617,0.1617,0.1617,0.1617,0.1617,0.1617,0.1617,0.1617,0.1617,0.1617,0.1617,0.1667,0.1869,0.2223,0.2875,0.3874,0.5045,0.62,0.7113,0.787,0.8426,0.8455,0.8497,0.0,0.9168,0.9575,0.9666,1.0315,1.0692,0.0,0.0,1.0692,1.0692,1.0692,1.0692,1.0692,1.0526,1.0443,1.0631,1.0456,1.0436,1.0566,1.0611,1.0651,1.0692,1.0692,1.0692,1.0692,1.0692,1.0692,1.0692,1.0692,1.0692,1.0692,1.0692,1.0692,1.0692,1.0692,1.0781,1.0903,-0.4596,-0.4372,-0.4091,-0.353,-0.2802,-0.2073,-0.1457,-0.0785,-0.0168,0.0168,0.0561,0.0785,0.0785,0.1234,0.1514,0.1514,0.1514,0.1514,0.1514,0.1683,0.1795,0.1795,0.1795,0.1795,0.1795,0.1908,0.2132,0.2413,0.2413,0.258,0.2859,0.2833,0.2932,0.3041,0.3067,0.3055,0.3055,0.3055,0.2945,0.2836,0.2836,0.266,0.2373,0.2373,0.22,0.1918,0.1918,0.1811,0.1704,0.1704,0.1704,0.1704,0.1704,0.1694,0.1678,0.1662,0.1638,0.1617,0.1617,0.1617,0.1617,0.1617,0.1617,0.1617,0.1617,0.1617,0.1617,0.1617,0.1819,0.2178,0.2756,0.3808,0.4994,0.6235,0.7155,0.7971,0.8575,0.8632,0.8584,0.8584,0.919,0.962,0.962,1.026,1.0692,1.0692,1.0692,0.0,1.0692,1.0692,1.0692,1.0692,1.0603,1.0599,1.0692,1.0599,1.0599,1.0692,1.0692,1.0692,1.0692,1.0692,1.0692,1.0692,1.0692,1.0692,1.0692,1.0692,1.0692,1.0692,1.0692,1.0745,1.0818,1.0818,1.0932,1.1086,-0.3924,-0.3531,-0.3141,-0.2529,-0.1688,-0.0901,-0.0282,0.0226,0.0678,0.1017,0.1243,0.1413,0.1413,0.1639,0.1808,0.1808,0.1865,0.1861,0.1795,0.1795,0.1795,0.1795,0.1851,0.1851,0.1851,0.2132,0.2413,0.2748,0.2748,0.2917,0.3194,0.3194,0.3306,0.3587,0.3587,0.3587,0.3587,0.3587,0.3418,0.3194,0.3194,0.3001,0.269,0.269,0.2503,0.2255,0.2201,0.204,0.1771,0.1718,0.1718,0.1718,0.1718,0.1714,0.1711,0.1711,0.1673,0.163,0.163,0.1627,0.1624,0.1624,0.162,0.1617,0.1617,0.162,0.1624,0.1674,0.1881,0.2252,0.3013,0.4015,0.5164,0.6457,0.7425,0.8186,0.8809,0.0,0.8743,0.8798,0.928,0.9658,0.9712,1.033,1.0692,1.0692,1.0692,1.0692,1.0692,1.0692,1.0692,1.0692,1.0692,1.0692,1.0692,1.0692,1.0692,1.0692,1.0692,1.0692,1.0692,1.0692,1.0692,1.0692,1.0692,1.0692,1.0692,1.0692,1.0708,1.0737,1.0737,1.0846,1.1009,1.1009,1.1118,1.1265,-0.3025,-0.2464,-0.1913,-0.1314,-0.063,0.0,0.07,0.1053,0.1345,0.1696,0.1755,0.1813,0.1813,0.1872,0.1872,0.1872,0.2165,0.2139,0.1798,0.1795,0.1795,0.1795,0.202,0.2132,0.2132,0.2469,0.2748,0.3026,0.3026,0.3194,0.3531,0.3531,0.3531,0.3587,0.3587,0.3587,0.3587,0.3587,0.3587,0.3531,0.3531,0.3301,0.3014,0.3014,0.2843,0.2562,0.2283,0.2171,0.2115,0.1837,0.1781,0.1781,0.1781,0.1763,0.1797,0.1797,0.1718,0.169,0.169,0.1673,0.1707,0.1707,0.1636,0.1617,0.1617,0.1637,0.1758,0.1963,0.2092,0.2485,0.3551,0.4557,0.558,0.6805,0.7825,0.8517,0.8878,0.0,0.8958,0.9233,0.9559,0.9889,1.0159,1.0511,1.0692,1.0692,1.0692,1.0692,1.0692,1.0692,1.0692,1.0692,1.0692,1.0692,1.0692,1.0692,1.0692,1.0692,1.0692,1.0692,1.0692,1.0692,1.0692,1.0692,1.0692,1.0692,1.0692,1.0692,1.0785,1.0928,1.0928,1.1033,1.1183,1.1183,1.1297,1.1455,-0.1871,-0.1249,-0.0685,-0.0232,0.0349,0.0876,0.1177,0.1473,0.1709,0.1885,0.2063,0.2181,0.2181,0.2356,0.2414,0.2414,0.2591,0.2575,0.2421,0.2419,0.2419,0.2419,0.2455,0.2546,0.2691,0.2859,0.3083,0.3362,0.3362,0.3474,0.3587,0.3587,0.3587,0.3587,0.3587,0.3587,0.3587,0.3587,0.3587,0.3587,0.3587,0.3531,0.3362,0.3362,0.3195,0.2915,0.2747,0.2467,0.2188,0.2076,0.1908,0.1795,0.1795,0.1785,0.1774,0.1774,0.1741,0.1704,0.1704,0.1695,0.1685,0.1685,0.1674,0.1664,0.1664,0.1832,0.2001,0.2105,0.2647,0.3364,0.4256,0.5318,0.6342,0.7391,0.8112,0.0,0.8881,0.8885,0.9051,0.9379,0.9651,0.9926,1.0257,1.0527,1.0692,1.0692,1.0692,1.0692,1.0692,1.0692,1.0692,1.0692,1.0692,1.0692,1.0692,1.0692,1.0692,1.0692,1.0692,1.0692,1.0692,1.0692,1.0692,1.07,1.0798,1.0842,1.0846,1.094,1.1029,1.1106,1.1106,1.1216,1.137,1.137,1.1488,1.165,-0.0688,-0.0115,0.0407,0.0709,0.1244,0.1661,0.1666,0.1965,0.2145,0.2145,0.2383,0.2562,0.2562,0.2799,0.2915,0.2915,0.2976,0.3035,0.3035,0.3095,0.3085,0.2885,0.2908,0.3044,0.3233,0.3288,0.3395,0.3608,0.3608,0.3601,0.3587,0.3587,0.3587,0.3587,0.3587,0.3587,0.3589,0.3602,0.3608,0.3609,0.3624,0.363,0.363,0.363,0.3458,0.3231,0.3174,0.2779,0.2326,0.227,0.2038,0.1806,0.1806,0.18,0.1795,0.1795,0.1762,0.1725,0.1725,0.172,0.1714,0.1714,0.171,0.1704,0.1811,0.2031,0.2305,0.2572,0.3385,0.4327,0.515,0.6146,0.7103,0.7971,0.0,0.8654,0.8881,0.8885,0.9047,0.9434,0.9651,0.9981,1.0363,1.0582,1.0692,1.0692,1.0692,1.0692,1.0692,1.0692,1.0692,1.0692,1.0692,1.0692,1.0692,1.0692,1.0692,1.0692,1.0692,1.0716,1.0757,1.0757,1.0777,1.0822,1.0968,1.1029,1.1037,1.1171,1.1248,1.1285,1.1285,1.1399,1.1565,1.1565,1.1654,1.1776,0.0345,0.0873,0.1301,0.1381,0.1926,0.2357,0.2392,0.2705,0.289,0.289,0.2952,0.2952,0.2952,0.2951,0.3012,0.3012,0.3259,0.3444,0.3444,0.369,0.3522,0.2946,0.3116,0.3407,0.3756,0.3756,0.3728,0.3672,0.3672,0.3643,0.3587,0.3587,0.3587,0.3587,0.3587,0.3587,0.3591,0.3647,0.3672,0.3676,0.3733,0.3756,0.3756,0.3756,0.3756,0.3696,0.3402,0.3049,0.2698,0.2466,0.2151,0.178,0.178,0.1818,0.1795,0.1795,0.1792,0.1789,0.1789,0.1767,0.1801,0.1801,0.1725,0.1757,0.2077,0.2158,0.2511,0.3655,0.4195,0.491,0.6311,0.7085,0.775,0.8371,0.0,0.0,0.8885,0.8885,0.9103,0.9706,0.9816,1.0036,1.0637,1.0692,1.0692,1.0692,1.0692,1.0692,1.0692,1.0692,1.0692,1.0692,1.0692,1.0692,1.0692,1.0692,1.0692,1.0692,1.0692,1.0781,1.1004,1.1004,1.1033,1.1183,1.1196,1.1204,1.1204,1.122,1.1325,1.148,1.148,1.1593,1.1756,1.1756,1.1764,1.1776,0.1652,0.2082,0.2342,0.244,0.2629,0.2757,0.2835,0.29,0.3023,0.3023,0.3208,0.3332,0.3332,0.3455,0.358,0.358,0.3703,0.3765,0.3765,0.3826,0.3791,0.353,0.3645,0.3688,0.377,0.3829,0.3816,0.3734,0.3734,0.3724,0.37,0.37,0.37,0.37,0.37,0.37,0.3702,0.3725,0.3734,0.3737,0.3819,0.3829,0.3829,0.3829,0.3829,0.3768,0.3651,0.3238,0.2766,0.2709,0.2288,0.1868,0.1868,0.1861,0.1848,0.1828,0.1937,0.2103,0.2081,0.1954,0.1833,0.2001,0.2046,0.2146,0.2639,0.3038,0.3549,0.4381,0.5236,0.6154,0.7096,0.7762,0.8263,0.8712,0.0,0.8885,0.8885,0.9103,0.9379,0.9761,0.9981,1.0257,1.0637,1.0692,1.0692,1.0692,1.0692,1.0692,1.0692,1.0692,1.0692,1.0692,1.0692,1.0692,1.0692,1.0692,1.0749,1.0867,1.0867,1.0956,1.1126,1.1126,1.1159,1.1228,1.1342,1.1395,1.1403,1.152,1.161,1.1671,1.1671,1.1715,1.1776,1.1776,1.1776,1.1776,0.2581,0.2783,0.2924,0.3018,0.3085,0.3146,0.3146,0.3209,0.3271,0.3271,0.3455,0.3642,0.3642,0.3765,0.3889,0.3889,0.3889,0.3889,0.3889,0.3889,0.3871,0.389,0.3888,0.3869,0.3827,0.3827,0.3816,0.3858,0.3858,0.3847,0.3829,0.3829,0.3829,0.3829,0.3829,0.3829,0.383,0.3848,0.3858,0.3859,0.3819,0.3827,0.3827,0.3827,0.3827,0.3827,0.3827,0.3466,0.2988,0.2928,0.2502,0.2018,0.1959,0.1953,0.2058,0.2151,0.2375,0.2659,0.2572,0.2563,0.2556,0.2474,0.2467,0.2691,0.3361,0.3918,0.4531,0.5312,0.6262,0.7154,0.7762,0.8263,0.8712,0.8881,0.8885,0.8885,0.8885,0.9213,0.9489,0.9761,1.0091,1.0417,1.0692,1.0692,1.0692,1.0692,1.0692,1.0692,1.0692,1.0692,1.072,1.0777,1.0777,1.0806,1.0858,1.0806,1.0871,1.1049,1.1049,1.1139,1.1309,1.1309,1.1342,1.1403,1.1533,1.1585,1.1593,1.1723,1.1776,1.1776,1.1776,1.1776,1.1776,1.1776,1.1776,1.1776,0.2894,0.2992,0.3023,0.3023,0.3271,0.3517,0.3517,0.3703,0.3889,0.3889,0.3889,0.3889,0.3889,0.3889,0.3889,0.3889,0.3889,0.3889,0.3889,0.3889,0.3889,0.3889,0.3889,0.3889,0.3889,0.3889,0.3921,0.3921,0.3921,0.389,0.383,0.383,0.383,0.383,0.383,0.383,0.3834,0.3895,0.3921,0.3927,0.3927,0.3889,0.3889,0.3889,0.3889,0.3889,0.3889,0.3703,0.3455,0.3146,0.2748,0.2351,0.1991,0.215,0.2476,0.2826,0.312,0.3416,0.3414,0.3883,0.4144,0.3334,0.3138,0.3362,0.4313,0.47,0.5256,0.649,0.7207,0.7814,0.8374,0.8712,0.8885,0.8885,0.8885,0.8885,0.8885,0.9213,0.9489,0.9761,1.0091,1.0417,1.0692,1.0692,1.0692,1.0692,1.0692,1.0692,1.0692,1.0692,1.0777,1.102,1.1028,1.1053,1.1224,1.1057,1.1057,1.1224,1.1224,1.1321,1.15,1.15,1.1602,1.1776,1.1776,1.1776,1.1776,1.1776,1.1776,1.1776,1.1776,1.1776,1.1776,1.1776,1.1776,1.1776,0.3547,0.363,0.3642,0.3642,0.3703,0.3765,0.3765,0.3828,0.3889,0.3889,0.3889,0.3889,0.3889,0.3889,0.3889,0.3889,0.3889,0.3889,0.3889,0.3889,0.3889,0.3889,0.3889,0.3889,0.3889,0.3889,0.388,0.3924,0.3924,0.3914,0.3897,0.3897,0.3897,0.3897,0.3897,0.3897,0.3898,0.3916,0.3924,0.3925,0.3883,0.3889,0.3889,0.3889,0.3889,0.3889,0.3889,0.3703,0.3455,0.3394,0.3137,0.2818,0.3003,0.3117,0.328,0.3782,0.4185,0.4471,0.495,0.5346,0.5393,0.4535,0.454,0.4955,0.5694,0.6203,0.6707,0.7432,0.7931,0.8318,0.8712,0.8826,0.8885,0.8885,0.8885,0.8992,0.9213,0.9485,0.9816,1.0091,1.0417,1.0637,1.0692,1.0692,1.0692,1.0692,1.0692,1.0749,1.0879,1.0887,1.0968,1.1143,1.1147,1.1232,1.1415,1.1236,1.1236,1.1415,1.1415,1.1516,1.1695,1.1695,1.1723,1.1776,1.1776,1.1776,1.1776,1.1776,1.1776,1.1776,1.1776,1.1776,1.1776,1.1776,1.1776,1.1776,0.3881,0.3889,0.3889,0.3889,0.3889,0.3889,0.3889,0.3889,0.3889,0.3889,0.3889,0.3889,0.3889,0.3889,0.3889,0.3889,0.3889,0.3889,0.3889,0.3889,0.3889,0.3889,0.3889,0.3889,0.3889,0.3889,0.3889,0.3889,0.3889,0.3889,0.3889,0.3889,0.3889,0.3889,0.3889,0.3889,0.3889,0.3889,0.3889,0.3889,0.3889,0.3889,0.3889,0.3889,0.4011,0.4071,0.4071,0.4071,0.401,0.3887,0.3639,0.3453,0.3884,0.413,0.4369,0.4997,0.5524,0.5931,0.6352,0.6755,0.6936,0.6343,0.6181,0.6311,0.6887,0.7404,0.7862,0.8263,0.8602,0.8884,0.9057,0.9113,0.9113,0.9113,0.9226,0.9339,0.956,0.9954,1.0287,1.0455,1.0735,1.0875,1.081,1.0863,1.0903,1.0903,1.0903,1.0952,1.1066,1.107,1.1151,1.1325,1.133,1.1419,1.161,1.1496,1.1496,1.161,1.161,1.1667,1.1776,1.1776,1.1776,1.1776,1.1776,1.1776,1.1776,1.1776,1.1776,1.1776,1.1776,1.1776,1.1776,1.1776,1.1776,1.1776,0.3889,0.3889,0.3889,0.3889,0.3889,0.3889,0.3889,0.3889,0.3889,0.3889,0.3889,0.3889,0.3889,0.3889,0.3889,0.3889,0.3889,0.3889,0.3889,0.3889,0.3889,0.3889,0.395,0.3952,0.3959,0.3952,0.395,0.395,0.4013,0.4013,0.4011,0.4011,0.4013,0.4011,0.4011,0.395,0.395,0.395,0.395,0.395,0.395,0.395,0.4013,0.4018,0.4265,0.4572,0.4577,0.4828,0.5014,0.4758,0.4442,0.425,0.4925,0.5356,0.5726,0.6401,0.7011,0.7495,0.7556,0.7986,0.8477,0.8538,0.8002,0.754,0.8,0.8338,0.8678,0.8916,0.9207,0.9381,0.9381,0.9381,0.9381,0.9439,0.9729,0.9903,0.9957,1.0478,1.082,1.082,1.1051,1.1159,1.1009,1.1131,1.1224,1.1224,1.1224,1.1228,1.1244,1.1248,1.1334,1.152,1.1524,1.1606,1.1776,1.1776,1.1776,1.1776,1.1776,1.1776,1.1776,1.1776,1.1776,1.1776,1.1776,1.1776,1.1776,1.1776,1.1776,1.1776,1.1776,1.1776,1.1776,1.1776,1.1776,1.1776,0.3889,0.3889,0.3889,0.3889,0.3889,0.3889,0.3889,0.3889,0.3889,0.3889,0.3889,0.3889,0.3889,0.3889,0.3889,0.3889,0.3889,0.3889,0.3889,0.3889,0.3889,0.3889,0.4133,0.4342,0.4456,0.4343,0.4316,0.4316,0.4808,0.4931,0.4689,0.4931,0.4931,0.4689,0.4689,0.4564,0.4316,0.4316,0.4316,0.4316,0.4316,0.4624,0.506,0.5185,0.5456,0.5774,0.6157,0.6309,0.6427,0.6478,0.6401,0.6335,0.67,0.6884,0.707,0.7744,0.805,0.8294,0.8784,0.8967,0.9153,0.9454,0.9348,0.915,0.8922,0.9049,0.9204,0.9265,0.9323,0.9381,0.9381,0.9381,0.9497,0.9729,0.9845,1.0073,1.0536,1.0709,1.0878,1.1109,1.1166,1.1208,1.1171,1.12,1.1224,1.1224,1.1224,1.1285,1.1431,1.1439,1.1524,1.1711,1.1715,1.1736,1.1776,1.1776,1.1776,1.1776,1.1776,1.1776,1.1776,1.1776,1.1776,1.1776,1.1776,1.1776,1.1776,1.1776,1.1776,1.1776,1.1776,1.1776,1.1776,1.1776,1.1776,1.1776,0.3889,0.3889,0.3889,0.3889,0.3889,0.3889,0.3889,0.3889,0.3889,0.3889,0.3889,0.3889,0.3889,0.3889,0.3899,0.3926,0.3928,0.4067,0.4286,0.4287,0.4413,0.4728,0.4913,0.5245,0.5664,0.5749,0.5602,0.5288,0.5745,0.5974,0.5978,0.61,0.6038,0.5729,0.5771,0.5602,0.5288,0.5288,0.5288,0.5351,0.5475,0.5725,0.6106,0.6343,0.6615,0.6939,0.7439,0.7776,0.8082,0.8149,0.8149,0.8157,0.8471,0.872,0.8907,0.9221,0.9411,0.9588,0.9643,0.9623,0.9668,0.9778,0.9822,0.9741,0.948,0.9526,0.9591,0.9591,0.9591,0.9591,0.9591,0.9591,0.971,1.0062,1.0243,1.0476,1.0949,1.1189,1.1311,1.1484,1.1488,1.1488,1.1488,1.1407,1.139,1.148,1.1488,1.1529,1.1626,1.163,1.1675,1.1776,1.1776,1.1776,1.1776,1.1776,1.1776,1.1776,1.1776,1.1776,1.1776,1.1776,1.1776,1.1776,1.1776,1.1776,1.1776,1.1776,1.1776,1.1776,1.1776,1.1776,1.1776,1.1776,1.1776,1.1776,0.3889,0.3889,0.3889,0.3889,0.3889,0.3889,0.3889,0.3889,0.3892,0.3901,0.3903,0.3907,0.3918,0.3981,0.4062,0.4173,0.4177,0.439,0.4833,0.4965,0.5222,0.5863,0.5991,0.6381,0.71,0.7488,0.7352,0.6629,0.6925,0.7197,0.7511,0.7577,0.7386,0.7009,0.7096,0.6947,0.6567,0.6567,0.6567,0.6565,0.6947,0.7139,0.7267,0.7601,0.7996,0.8322,0.8729,0.9297,0.9784,0.9784,0.9767,0.9751,1.0076,1.0333,1.052,1.052,1.0651,1.0823,1.0312,1.0152,1.0118,0.9992,0.99,0.99,0.99,0.9859,0.9822,0.9822,0.9822,0.9822,0.9822,0.9822,0.994,1.0304,1.0607,1.091,1.1337,1.1647,1.1776,1.1776,1.1776,1.1776,1.1776,1.1638,1.161,1.1764,1.1776,1.1776,1.1776,1.1776,1.1776,1.1776,1.1776,1.1776,1.1776,1.1776,1.1776,1.1776,1.1776,1.1776,1.1776,1.1776,1.1776,1.1776,1.1776,1.1776,1.1776,1.1776,1.1776,1.1776,1.1776,1.1776,1.1776,1.1776,1.1776,1.1776,0.3889,0.3889,0.3889,0.3889,0.3889,0.3889,0.3889,0.3889,0.3907,0.3954,0.396,0.3979,0.4097,0.436,0.4683,0.5009,0.5011,0.5208,0.5544,0.5863,0.6246,0.6626,0.7203,0.7763,0.825,0.8897,0.8843,0.8098,0.8658,0.8964,0.9085,0.9408,0.9155,0.8513,0.853,0.8159,0.7589,0.7589,0.7589,0.7653,0.8034,0.8481,0.9006,0.9432,0.987,1.0217,1.0674,1.1029,1.13,1.13,1.1212,1.1038,1.1102,1.1165,1.1165,1.1165,1.1229,1.1225,1.1139,1.0879,1.0686,1.0665,1.0472,1.0219,1.0219,1.0012,0.9822,0.9822,0.9822,0.9822,0.9822,0.9822,1.0001,1.0607,1.0789,1.1035,1.1651,1.1776,1.1776,1.1776,1.1776,1.1776,1.1776,1.1752,1.1748,1.1776,1.1776,1.1776,1.1776,1.1776,1.1776,1.1776,1.1776,1.1776,1.1776,1.1776,1.1776,1.1776,1.1776,1.1776,1.1776,1.1776,1.1776,1.1776,1.1776,1.1776,1.1776,1.1776,1.1776,1.1776,1.1776,1.1776,1.1776,1.1776,1.1776,1.1776,0.3889,0.3889,0.3889,0.3889,0.3889,0.3899,0.3931,0.3935,0.4082,0.4334,0.4406,0.4544,0.496,0.5349,0.5752,0.612,0.6124,0.6406,0.6981,0.7376,0.7832,0.8421,0.8878,0.9434,1.0021,1.0284,1.0516,1.0579,1.0368,1.0388,1.0642,1.0777,1.0581,1.0003,1.0087,0.9863,0.9409,0.9409,0.9409,0.9475,0.9801,1.0127,1.0397,1.085,1.1075,1.1286,1.1684,1.1995,1.2257,1.2257,1.221,1.2148,1.2148,1.2148,1.2083,1.1888,1.1888,1.1804,1.1517,1.117,1.0891,1.0806,1.0534,1.028,1.028,1.0175,1.0053,0.9906,0.9886,0.9862,0.9836,0.994,1.0243,1.0728,1.097,1.1277,1.1712,1.1776,1.1776,1.1776,1.1776,1.1776,1.1776,1.1776,1.1776,1.1776,1.1776,1.1776,1.1776,1.1776,1.1776,1.1776,1.1776,1.1776,1.1776,1.1776,1.1776,1.1776,1.1776,1.1776,1.1776,1.1776,1.1776,1.1776,1.1776,1.1776,1.1776,1.1776,1.1776,1.1776,1.1776,1.1776,1.1776,1.1776,1.1776,1.1776]},{"header":{"parameterUnit":"m.s-1","parameterCategory":1,"la1":30.6,"la2":28.766,"lo1":-90.7593,"lo2":-88.6598,"dy":0.0162,"dx":0.0183,"nx":116,"ny":114,"refTime":"2024-06-12T00:00:00:Z","depth":0,"parameterNumber":3,"parameterNumberName":"V-component_of_WINDS"},"data":[0.0,0.0,0.0,0.0,0.0,0.0,0.0,0.0,0.0,0.0,0.0,0.0,0.0,0.0,0.0,0.0,0.0,0.0,0.0,0.0,0.0,0.0,0.0,0.0,0.0,0.0,0.0,0.0,0.0,0.0,0.0,0.0,0.0,0.0,0.0,0.0,0.0,0.0,0.0,0.0,0.0,0.0,0.0,0.0,0.0,0.0,0.0,0.0,0.0,0.0,0.0,0.0,0.0,0.0,0.0,0.0,0.0,0.0,0.0,0.0,0.0,0.0,0.0,0.0,0.0,0.0,0.0,0.0,0.0,0.0,0.0,0.0,0.0,0.0,0.0,0.0,0.0,0.0,0.0,0.0,0.0,0.0,0.0,0.0,0.0,0.0,0.0,0.0,0.0,0.0,0.0,0.0,0.0,0.0,0.0,0.0,0.0,0.0,0.0,0.0,0.0,0.0,0.0,0.0,0.0,0.0,0.0,0.0,0.0,0.0,0.0,0.0,0.0,0.0,0.0,0.0,0.0,0.0,0.0,0.0,0.0,0.0,0.0,0.0,0.0,0.0,0.0,0.0,0.0,0.0,0.0,0.0,0.0,0.0,0.0,0.0,0.0,0.0,0.0,0.0,0.0,0.0,0.0,0.0,0.0,0.0,0.0,0.0,0.0,0.0,0.0,0.0,0.0,0.0,0.0,0.0,0.0,0.0,0.0,0.0,0.0,0.0,0.0,0.0,0.0,0.0,0.0,0.0,0.0,0.0,0.0,0.0,0.0,0.0,0.0,0.0,0.0,0.0,0.0,0.0,0.0,0.0,0.0,0.0,0.0,0.0,0.0,0.0,0.0,0.0,0.0,0.0,0.0,0.0,0.0,0.0,0.0,0.0,0.0,0.0,0.0,0.0,0.0,0.0,0.0,0.0,0.0,0.0,0.0,0.0,0.0,0.0,0.0,0.0,0.0,0.0,0.0,0.0,0.0,0.0,0.0,0.0,0.0,0.0,0.0,0.0,0.0,0.0,0.0,0.0,0.0,0.0,0.0,0.0,0.0,0.0,0.0,0.0,0.0,0.0,0.0,0.0,0.0,0.0,0.0,0.0,0.0,0.0,0.0,0.0,0.0,0.0,0.0,0.0,0.0,0.0,0.0,0.0,0.0,0.0,0.0,0.0,0.0,0.0,0.0,0.0,0.0,0.0,0.0,0.0,0.0,0.0,0.0,0.0,0.0,0.0,0.0,0.0,0.0,0.0,0.0,0.0,0.0,0.0,0.0,0.0,0.0,0.0,0.0,0.0,0.0,0.0,0.0,0.0,0.0,0.0,0.0,0.0,0.0,0.0,0.0,0.0,0.0,0.0,0.0,0.0,0.0,0.0,0.0,0.0,0.0,0.0,0.0,0.0,0.0,0.0,0.0,0.0,0.0,0.0,0.0,0.0,0.0,0.0,0.0,0.0,0.0,0.0,0.0,0.0,0.0,0.0,0.0,0.0,0.0,0.0,0.0,0.0,0.0,0.0,0.0,0.0,0.0,0.0,0.0,0.0,0.0,0.0,0.0,0.0,0.0,0.0,0.0,0.0,0.0,0.0,0.0,0.0,0.0,0.0,0.0,0.0,0.0,0.0,0.0,0.0,0.0,0.0,0.0,0.0,0.0,0.0,0.0,0.0,0.0,0.0,0.0,0.0,0.0,0.0,0.0,0.0,0.0,0.0,0.0,0.0,0.0,0.0,0.0,0.0,0.0,0.0,0.0,0.0,0.0,0.0,0.0,0.0,0.0,0.0,0.0,0.0,0.0,0.0,0.0,0.0,0.0,0.0,0.0,0.0,0.0,0.0,0.0,0.0,0.0,0.0,0.0,0.0,0.0,0.0,0.0,0.0,0.0,0.0,0.0,0.0,0.0,0.0,0.0,0.0,0.0,0.0,0.0,0.0,0.0,0.0,0.0,0.0,0.0,0.0,0.0,0.0,0.0,0.0,0.0,0.0,0.0,0.0,0.0,0.0,0.0,0.0,0.0,0.0,0.0,0.0,0.0,0.0,0.0,0.0,0.0,0.0,0.0,0.0,0.0,0.0,0.0,0.0,0.0,0.0,0.0,0.0,0.0,0.0,0.0,0.0,0.0,0.0,0.0,0.0,0.0,0.0,0.0,0.0,0.0,0.0,0.0,0.0,0.0,0.0,0.0,0.0,0.0,0.0,0.0,0.0,0.0,0.0,0.0,0.0,0.0,0.0,0.0,0.0,0.0,0.0,0.0,0.0,0.0,0.0,0.0,0.0,0.0,0.0,0.0,0.0,0.0,0.0,0.0,0.0,0.0,0.0,0.0,0.0,0.0,0.0,0.0,0.0,0.0,0.0,0.0,0.0,0.0,0.0,0.0,0.0,0.0,0.0,0.0,0.0,0.0,0.0,0.0,0.0,0.0,0.0,0.0,0.0,0.0,0.0,0.0,0.0,0.0,0.0,0.0,0.0,0.0,0.0,0.0,0.0,0.0,0.0,0.0,0.0,0.0,0.0,0.0,0.0,0.0,0.0,0.0,0.0,0.0,0.0,0.0,0.0,0.0,0.0,0.0,0.0,0.0,0.0,0.0,0.0,0.0,0.0,0.0,0.0,0.0,0.0,0.0,0.0,0.0,0.0,0.0,0.0,0.0,0.0,0.0,0.0,0.0,0.0,0.0,0.0,0.0,0.0,0.0,0.0,0.0,0.0,0.0,0.0,0.0,0.0,0.0,0.0,0.0,0.0,0.0,0.0,0.0,0.0,0.0,0.0,0.0,0.0,0.0,0.0,0.0,0.0,0.0,0.0,0.0,0.0,0.0,0.0,0.0,0.0,0.0,0.0,0.0,0.0,0.0,0.0,0.0,0.0,0.0,0.0,0.0,0.0,0.0,0.0,0.0,0.0,0.0,0.0,0.0,0.0,0.0,0.0,0.0,0.0,0.0,0.0,0.0,0.0,0.0,0.0,0.0,0.0,0.0,0.0,0.0,0.0,0.0,0.0,0.0,0.0,0.0,0.0,0.0,0.0,0.0,0.0,0.0,0.0,0.0,0.0,0.0,0.0,0.0,0.0,0.0,0.0,0.0,0.0,0.0,0.0,0.0,0.0,0.0,0.0,0.0,0.0,0.0,0.0,0.0,0.0,0.0,0.0,0.0,0.0,0.0,0.0,0.0,0.0,0.0,0.0,0.0,0.0,0.0,0.0,0.0,0.0,0.0,0.0,0.0,0.0,0.0,0.0,0.0,0.0,0.0,0.0,0.0,0.0,0.0,0.0,0.0,0.0,0.0,0.0,0.0,0.0,0.0,0.0,0.0,0.0,0.0,0.0,0.0,0.0,0.0,0.0,0.0,0.0,0.0,0.0,0.0,0.0,0.0,0.0,0.0,0.0,0.0,0.0,0.0,0.0,0.0,0.0,0.0,0.0,0.0,0.0,0.0,0.0,0.0,0.0,0.0,0.0,0.0,0.0,0.0,0.0,0.0,0.0,0.0,0.0,0.0,0.0,0.0,0.0,0.0,0.0,0.0,0.0,0.0,0.0,0.0,0.0,0.0,0.0,0.0,0.0,0.0,0.0,0.0,0.0,0.0,0.0,0.0,0.0,0.0,0.0,0.0,0.0,0.0,0.0,0.0,0.0,0.0,0.0,0.0,0.0,0.0,0.0,0.0,0.0,0.0,0.0,0.0,0.0,0.0,0.0,0.0,0.0,0.0,0.0,0.0,0.0,0.0,0.0,0.0,0.0,0.0,0.0,0.0,0.0,0.0,0.0,0.0,0.0,0.0,0.0,0.0,0.0,0.0,0.0,0.0,0.0,0.0,0.0,0.0,0.0,0.0,0.0,0.0,0.0,0.0,0.0,0.0,0.0,0.0,0.0,0.0,0.0,0.0,0.0,0.0,0.0,0.0,0.0,0.0,0.0,0.0,0.0,0.0,0.0,0.0,0.0,0.0,0.0,0.0,0.0,0.0,0.0,0.0,0.0,0.0,0.0,0.0,0.0,0.0,0.0,0.0,0.0,0.0,0.0,0.0,0.0,0.0,0.0,0.0,0.0,0.0,0.0,0.0,0.0,0.0,0.0,0.0,0.0,0.0,0.0,0.0,0.0,0.0,0.0,0.0,0.0,0.0,0.0,0.0,0.0,0.0,0.0,0.0,0.0,0.0,0.0,0.0,0.0,0.0,0.0,0.0,0.0,0.0,0.0,0.0,0.0,0.0,0.0,0.0,0.0,0.0,0.0,0.0,0.0,0.0,0.0,0.0,0.0,0.0,0.0,0.0,0.0,0.0,0.0,0.0,0.0,0.0,0.0,0.0,0.0,0.0,0.0,0.0,0.0,0.0,0.0,0.0,0.0,0.0,0.0,0.0,0.0,0.0,0.0,0.0,0.0,0.0,0.0,0.0,0.0,0.0,0.0,0.0,0.0,0.0,0.0,0.0,0.0,0.0,0.0,0.0,0.0,0.0,0.0,0.0,0.0,0.0,0.0,0.0,0.0,0.0,0.0,0.0,0.0,0.0,0.0,0.0,0.0,0.0,0.0,0.0,0.0,0.0,0.0,0.0,0.0,0.0,0.0,0.0,0.0,0.0,0.0,0.0,0.0,0.0,0.0,0.0,0.0,0.0,0.0,0.0,0.0,0.0,0.0,0.0,0.0,0.0,0.0,0.0,0.0,0.0,0.0,0.0,0.0,0.0,0.0,0.0,0.0,0.0,0.0,0.0,0.0,0.0,0.0,0.0,0.0,0.0,0.0,0.0,0.0,0.0,0.0,0.0,0.0,0.0,0.0,0.0,0.0,0.0,0.0,0.0,0.0,0.0,0.0,0.0,0.0,0.0,0.0,0.0,0.0,0.0,0.0,0.0,0.0,0.0,0.0,0.0,0.0,0.0,0.0,0.0,0.0,0.0,0.0,0.0,0.0,0.0,0.0,0.0,0.0,0.0,0.0,0.0,0.0,0.0,0.0,0.0,0.0,0.0,0.0,0.0,0.0,0.0,0.0,0.0,0.0,0.0,0.0,0.0,0.0,0.0,0.0,0.0,0.0,0.0,0.0,0.0,0.0,0.0,0.0,0.0,0.0,0.0,0.0,0.0,0.0,0.0,0.0,0.0,0.0,0.0,0.0,0.0,0.0,0.0,0.0,0.0,0.0,0.0,0.0,0.0,0.0,0.0,0.0,0.0,0.0,0.0,0.0,0.0,0.0,0.0,0.0,0.0,0.0,0.0,0.0,0.0,0.0,0.0,0.0,0.0,0.0,0.0,0.0,0.0,0.0,0.0,0.0,0.0,0.0,0.0,0.0,0.0,0.0,0.0,0.0,0.0,0.0,0.0,0.0,0.0,0.0,0.0,0.0,0.0,0.0,0.0,0.0,0.0,0.0,0.0,0.0,0.0,0.0,0.0,0.0,0.0,0.0,0.0,0.0,0.0,0.0,0.0,0.0,0.0,0.0,0.0,0.0,0.0,0.0,0.0,0.0,0.0,0.0,0.0,0.0,0.0,0.0,0.0,0.0,0.0,0.0,0.0,0.0,0.0,0.0,0.0,0.0,0.0,0.0,0.0,0.0,0.0,0.0,0.0,0.0,0.0,0.0,0.0,0.0,0.0,0.0,0.0,0.0,0.0,0.0,0.0,0.0,0.0,0.0,0.0,0.0,0.0,0.0,0.0,0.0,0.0,0.0,0.0,0.0,0.0,0.0,0.0,0.0,0.0,0.0,0.0,0.0,0.0,0.0,0.0,0.0,0.0,0.0,0.0,0.0,0.0,0.0,0.0,0.0,0.0,0.0,0.0,0.0,0.0,0.0,0.0,0.0,0.0,0.0,0.0,0.0,0.0,0.0,0.0,0.0,0.0,0.0,0.0,0.0,0.0,0.0,0.0,0.0,0.0,0.0,0.0,0.0,0.0,0.0,0.0,0.0,0.0,0.0,0.0,0.0,0.0,0.0,0.0,0.0,0.0,0.0,0.0,0.0,0.0,0.0,0.0,0.0,0.0,0.0,0.0,0.0,0.0,0.0,0.0,0.0,0.0,0.0,0.0,0.0,0.0,0.0,0.0,0.0,0.0,0.0,0.0,0.0,0.0,0.0,0.0,0.0,0.0,0.0,0.0,0.0,1.9341,1.8741,0.0,0.0,0.0,0.0,0.0,0.0,0.0,0.0,0.0,0.0,0.0,0.0,0.0,0.0,0.0,0.0,0.0,0.0,0.0,0.0,0.0,0.0,0.0,2.4528,2.4375,2.4172,2.3999,2.3788,2.3531,0.0,0.0,0.0,0.0,0.0,2.246,2.2304,2.213,2.1955,2.1797,2.1433,2.0909,2.0844,2.0711,2.0492,0.0,0.0,0.0,0.0,0.0,0.0,0.0,0.0,0.0,0.0,0.0,0.0,0.0,0.0,0.0,0.0,0.0,0.0,0.0,0.0,0.0,0.0,0.0,0.0,0.0,0.0,0.0,0.0,0.0,0.0,0.0,0.0,0.0,0.0,0.0,0.0,0.0,0.0,0.0,0.0,0.0,0.0,0.0,0.0,0.0,0.0,0.0,0.0,0.0,0.0,0.0,0.0,0.0,0.0,0.0,0.0,0.0,0.0,0.0,0.0,0.0,0.0,0.0,0.0,0.0,0.0,0.0,0.0,0.0,0.0,2.0535,1.9763,0.0,0.0,0.0,0.0,0.0,0.0,0.0,0.0,0.0,0.0,0.0,0.0,0.0,0.0,0.0,0.0,0.0,0.0,0.0,0.0,0.0,2.4783,2.452,2.4356,2.4163,2.3907,2.3774,2.358,2.3301,2.3156,0.0,0.0,0.0,2.2335,2.2251,2.2073,2.1928,2.1766,2.1588,2.1135,2.051,2.0373,2.027,2.0218,2.0235,0.0,0.0,0.0,0.0,0.0,0.0,0.0,0.0,0.0,0.0,0.0,0.0,0.0,0.0,0.0,0.0,0.0,0.0,0.0,0.0,0.0,0.0,0.0,0.0,0.0,0.0,0.0,0.0,0.0,0.0,0.0,0.0,0.0,0.0,0.0,0.0,0.0,0.0,0.0,0.0,0.0,0.0,0.0,0.0,0.0,0.0,0.0,0.0,0.0,0.0,0.0,0.0,0.0,0.0,0.0,0.0,0.0,0.0,0.0,0.0,0.0,0.0,0.0,2.2511,2.2465,2.243,2.2464,2.2533,2.25,2.2046,2.1193,2.0149,2.0114,0.0,0.0,0.0,0.0,0.0,0.0,0.0,0.0,0.0,0.0,0.0,0.0,0.0,0.0,0.0,0.0,0.0,0.0,0.0,2.4707,2.4432,2.4284,2.4115,2.3837,2.38,2.3616,2.3241,2.3095,0.0,0.0,2.2366,2.222,2.2041,2.1955,2.184,2.1708,2.123,2.0828,2.051,2.0373,2.0148,1.9884,1.999,2.0041,2.0041,0.0,0.0,0.0,0.0,0.0,0.0,0.0,0.0,0.0,0.0,0.0,0.0,0.0,0.0,0.0,0.0,0.0,0.0,0.0,0.0,0.0,0.0,0.0,0.0,0.0,0.0,0.0,0.0,0.0,0.0,0.0,0.0,0.0,0.0,0.0,0.0,0.0,0.0,0.0,0.0,0.0,2.3168,2.2442,0.0,0.0,0.0,0.0,0.0,0.0,0.0,0.0,0.0,0.0,0.0,0.0,0.0,2.307,2.3258,2.3668,2.3813,2.3668,2.3668,2.3584,2.3402,2.3596,2.3777,2.3957,2.403,0.0,2.1623,2.1416,0.0,0.0,0.0,0.0,0.0,0.0,0.0,0.0,0.0,0.0,0.0,0.0,0.0,0.0,0.0,0.0,0.0,0.0,0.0,0.0,0.0,2.421,2.4056,2.3821,2.3721,2.3544,2.3217,2.3045,2.2994,2.307,2.29,2.2755,2.2683,2.2532,2.2196,2.1634,2.1246,2.0925,2.0662,2.046,2.022,1.9975,1.999,1.9937,1.983,1.983,0.0,0.0,0.0,0.0,0.0,0.0,0.0,0.0,0.0,0.0,0.0,0.0,0.0,0.0,0.0,0.0,0.0,0.0,0.0,0.0,0.0,0.0,0.0,0.0,0.0,0.0,0.0,0.0,0.0,0.0,0.0,0.0,0.0,0.0,0.0,0.0,0.0,0.0,0.0,2.396,2.3942,2.3624,2.3684,2.3638,0.0,0.0,0.0,0.0,0.0,0.0,0.0,0.0,0.0,2.3352,2.4129,2.4583,2.4691,2.495,2.5055,2.497,2.4715,2.4539,2.4431,2.4418,2.4526,2.473,2.4802,2.4389,2.3618,2.27,2.1563,2.0331,0.0,0.0,0.0,0.0,1.9944,2.0301,0.0,0.0,0.0,0.0,0.0,0.0,0.0,0.0,0.0,0.0,0.0,0.0,2.4321,2.4181,2.4014,2.3825,2.3707,2.3539,2.3265,2.3082,2.3185,2.363,2.3418,2.3356,2.3501,2.3116,2.2481,2.1635,2.1373,2.1119,2.0909,2.0646,2.041,2.0202,2.0148,2.0008,1.978,1.978,1.9797,1.9848,0.0,0.0,0.0,0.0,0.0,0.0,0.0,0.0,0.0,0.0,0.0,0.0,0.0,0.0,0.0,0.0,0.0,0.0,0.0,0.0,0.0,0.0,0.0,0.0,0.0,0.0,0.0,0.0,0.0,0.0,0.0,0.0,0.0,0.0,0.0,0.0,0.0,2.4832,2.4797,2.4577,2.4519,2.4341,0.0,0.0,0.0,0.0,0.0,0.0,2.3676,2.4003,2.4331,2.4637,2.5452,2.5865,2.5939,2.6039,2.6076,2.599,2.5504,2.5254,2.5218,2.498,2.4957,2.5123,2.5147,2.5111,2.5016,2.3847,2.2635,2.1501,2.1431,2.126,2.0994,2.0894,2.1183,2.1543,0.0,0.0,0.0,0.0,0.0,0.0,0.0,0.0,0.0,0.0,0.0,2.4541,2.4312,2.4181,2.4014,2.3825,2.3793,2.3685,0.0,2.3265,2.3365,2.3767,2.3594,2.3759,2.4332,2.338,2.2512,2.1694,2.1434,2.1262,2.1183,2.0958,2.0729,2.0477,2.0477,2.0289,1.9988,1.9988,1.9988,1.9988,1.9988,0.0,0.0,0.0,0.0,0.0,0.0,0.0,0.0,0.0,0.0,0.0,0.0,0.0,0.0,0.0,0.0,0.0,0.0,0.0,0.0,0.0,0.0,0.0,0.0,0.0,0.0,0.0,0.0,0.0,0.0,0.0,0.0,0.0,0.0,0.0,0.0,0.0,0.0,2.5071,2.4693,0.0,0.0,0.0,0.0,2.4218,2.422,2.4601,2.5438,2.5471,2.5806,2.6441,2.6512,2.6661,2.6812,2.6849,2.6737,2.6536,2.6014,2.5691,2.5543,2.5242,2.5087,2.5111,2.5241,2.5206,2.5076,2.4826,2.4189,2.335,2.3139,2.2808,2.2412,2.2389,2.2593,2.291,0.0,0.0,0.0,0.0,0.0,2.4079,2.4562,2.4821,2.491,2.4801,2.4684,2.4541,2.4375,2.4228,2.4074,2.3884,2.3813,2.3725,2.3539,2.3395,2.3527,2.3971,2.4309,2.468,2.5169,2.3849,2.3006,2.2663,2.2014,2.1632,2.1527,2.1324,2.1119,2.0957,2.086,2.0763,2.063,2.0323,2.0183,2.0183,2.0183,2.0078,0.0,0.0,0.0,0.0,0.0,0.0,0.0,0.0,0.0,0.0,0.0,0.0,0.0,0.0,0.0,0.0,0.0,0.0,0.0,0.0,0.0,0.0,0.0,0.0,0.0,0.0,0.0,0.0,0.0,0.0,0.0,0.0,0.0,0.0,0.0,0.0,0.0,2.5975,2.603,0.0,2.5709,2.5743,2.5805,2.5765,2.5777,2.5907,2.6212,2.6235,2.6394,2.6772,2.7145,2.7363,2.7402,2.7402,2.7363,2.7313,2.6749,2.646,2.6411,2.5972,2.5745,2.5733,2.5421,2.5276,2.5206,2.5147,2.4732,2.414,2.4068,2.3917,2.3756,2.341,2.3502,2.381,0.0,0.0,0.0,0.0,2.4226,2.4517,2.5012,2.5018,2.4917,2.4849,2.4707,2.4564,2.4472,2.434,2.4162,2.3969,2.3937,2.3824,2.3689,2.356,2.3715,2.4221,2.5007,2.5525,2.5747,2.4467,2.3648,2.3304,2.2413,2.1911,2.1825,2.1691,2.1525,2.1403,2.1308,2.1229,2.115,2.0828,2.0629,2.051,2.051,2.0375,2.0166,0.0,0.0,0.0,0.0,0.0,0.0,0.0,0.0,0.0,0.0,0.0,0.0,0.0,0.0,0.0,0.0,0.0,0.0,0.0,0.0,0.0,0.0,0.0,0.0,0.0,0.0,0.0,0.0,0.0,0.0,0.0,0.0,0.0,0.0,2.7741,2.7708,2.7063,2.7215,2.7233,2.6907,2.6905,2.686,2.6697,2.6697,2.6769,2.6947,2.6959,2.7119,2.7426,2.7762,2.7993,2.7993,2.7993,2.7993,2.7942,2.7414,2.7162,2.7138,2.6597,2.6382,2.6346,2.5805,2.5576,2.5564,2.5384,2.5099,2.4766,2.4766,2.4766,2.4719,2.4355,2.44,2.4585,0.0,0.0,0.0,2.4007,2.474,2.5185,2.5125,2.505,2.4977,2.4905,2.4734,2.4618,2.4615,2.4419,2.4266,2.4126,2.4114,2.4016,2.3816,2.3753,2.3961,2.452,2.5684,2.6256,2.6169,2.5266,2.4394,2.3551,2.2581,2.2124,2.2124,2.2053,2.194,2.1827,2.1827,2.1721,2.1539,2.1539,2.1308,2.0974,2.0958,2.0794,2.0559,0.0,0.0,0.0,0.0,0.0,0.0,0.0,0.0,0.0,0.0,0.0,0.0,0.0,0.0,0.0,0.0,0.0,0.0,0.0,0.0,0.0,0.0,0.0,0.0,0.0,0.0,0.0,0.0,0.0,0.0,0.0,0.0,0.0,2.8666,2.9045,2.9134,2.8274,2.8153,2.7938,2.7335,2.7072,2.6983,2.6946,2.6946,2.7174,2.7678,2.7702,2.7942,2.8498,2.851,2.851,2.851,2.851,2.851,2.8498,2.7993,2.7702,2.769,2.7162,2.6922,2.6885,2.637,2.6117,2.6057,2.554,2.5324,2.5312,2.5312,2.5312,2.5312,2.5312,2.5312,2.5312,0.0,0.0,2.4174,2.4967,2.5211,2.5264,2.5255,2.5149,2.5057,2.4987,2.4851,2.4753,2.476,2.4615,2.4452,2.4328,2.4266,2.4191,2.4029,2.3949,2.4418,2.5541,2.6278,2.6866,2.7324,2.5903,2.5021,2.4725,2.3342,2.2624,2.2517,2.2521,2.244,2.2304,2.2304,2.229,2.2231,2.2231,2.2404,2.2665,2.2231,2.1939,2.1788,0.0,0.0,0.0,0.0,0.0,0.0,0.0,0.0,0.0,0.0,0.0,0.0,0.0,0.0,0.0,0.0,0.0,0.0,0.0,0.0,0.0,0.0,0.0,0.0,0.0,0.0,0.0,0.0,0.0,0.0,0.0,3.0783,3.0914,3.0259,3.049,3.0478,2.9833,2.9639,2.929,2.8712,2.8557,2.8417,2.8288,2.8144,2.8138,2.8282,2.8294,2.8366,2.851,2.851,2.851,2.851,2.851,2.851,2.851,2.8366,2.8294,2.827,2.7702,2.7474,2.7438,2.6898,2.6466,2.6093,2.5937,2.5661,2.5312,2.5312,2.5312,2.5312,2.5312,2.5312,2.5312,0.0,2.3985,2.4551,2.5354,2.5418,2.5344,2.5332,2.5247,2.5157,2.5084,2.4981,2.4927,2.4931,2.4813,2.467,2.4572,2.4512,2.4409,2.4275,2.4475,2.5218,2.665,2.6937,2.7379,2.8083,2.6419,2.5531,2.5447,2.3877,2.3052,2.2957,2.2957,2.2889,2.2803,2.2803,2.2764,2.2729,2.3053,2.3333,2.3639,2.3895,2.357,2.2997,2.3268,2.3398,2.3385,2.3272,2.3258,2.3336,2.3293,0.0,0.0,0.0,0.0,0.0,0.0,0.0,0.0,0.0,0.0,0.0,0.0,0.0,0.0,0.0,0.0,0.0,0.0,0.0,0.0,0.0,0.0,0.0,0.0,3.1932,3.2243,3.1954,3.183,3.1587,3.1041,3.0806,3.0474,2.9955,2.9656,2.9431,2.9302,2.904,2.8882,2.8882,2.8736,2.8618,2.8618,2.855,2.851,2.851,2.851,2.855,2.8618,2.8618,2.8657,2.8736,2.8343,2.8198,2.8251,2.7642,2.716,2.6785,2.6493,2.608,0.0,0.0,0.0,0.0,0.0,2.543,2.543,0.0,2.4389,2.4677,2.5401,2.5473,2.5418,2.5421,2.5364,2.5298,2.523,2.5163,2.5121,2.5118,2.5013,2.4915,2.4847,2.4855,2.4869,0.0,0.0,2.6334,2.7703,2.7661,2.7882,2.8538,2.6945,2.6068,2.5989,2.4492,2.3696,2.3644,2.3644,2.3608,2.3548,2.3548,2.3476,2.3388,2.405,2.4305,2.435,2.5669,2.5388,2.4181,2.4133,2.4375,2.4684,2.4471,2.4668,2.5017,2.5033,0.0,0.0,0.0,0.0,0.0,0.0,0.0,0.0,0.0,0.0,0.0,0.0,0.0,0.0,0.0,0.0,0.0,0.0,0.0,0.0,0.0,0.0,0.0,0.0,3.3093,3.3518,3.359,3.3111,3.2591,3.2076,3.1811,3.1516,3.1121,3.052,3.0139,3.0152,2.9755,2.9535,2.9496,2.9145,0.0,0.0,0.0,2.863,2.863,2.863,2.8736,2.891,2.891,2.9,2.917,2.9,2.8988,2.9133,2.8486,2.8124,2.7914,2.7198,2.6652,2.6198,2.5594,2.5382,2.5382,2.5571,2.5641,2.5641,0.0,2.4942,2.5476,2.5638,2.561,2.5554,2.5557,2.5506,2.5437,2.538,2.5293,2.5269,2.5253,2.5195,2.5121,2.5043,2.5628,2.6216,0.0,0.0,2.7848,2.8087,2.8524,2.8812,2.891,2.789,2.731,2.7245,2.6299,2.5793,2.5719,2.5719,2.5685,2.561,2.561,2.5582,2.5518,2.5644,2.597,2.6419,2.659,2.615,2.5422,2.5949,2.6066,2.5922,2.5799,2.5772,2.5854,2.6273,2.6331,2.6254,2.6618,2.672,0.0,0.0,0.0,0.0,0.0,0.0,0.0,0.0,0.0,0.0,0.0,0.0,0.0,0.0,0.0,0.0,0.0,0.0,0.0,3.3198,3.3416,3.3678,3.4167,3.3989,3.3702,3.3448,3.301,3.2547,3.2151,3.1553,3.1145,3.0959,3.062,3.0317,3.0126,2.9909,2.9678,2.951,2.9471,2.9484,2.9484,2.9484,2.9471,2.951,2.951,0.0,2.96,2.9549,2.9549,2.9588,2.9603,2.9366,2.8886,2.8439,2.7579,2.6543,2.6002,2.5793,2.5793,2.584,2.5828,2.5828,2.5058,2.5403,2.5701,2.5694,2.5641,2.5603,2.5598,2.5571,2.5543,2.5502,2.5469,2.5433,2.5398,2.537,2.5504,2.587,2.6617,0.0,0.0,2.8396,2.8693,2.9039,2.928,2.9378,2.9345,2.8505,2.8009,2.7958,2.7144,2.6717,2.665,2.665,2.662,2.6606,2.6606,2.6526,2.6417,2.6794,2.7065,2.727,2.7582,2.74,2.6949,2.6947,2.6841,2.6674,2.6522,2.6636,2.6932,2.7171,2.7368,2.7538,2.7776,2.7906,2.7929,0.0,0.0,0.0,0.0,0.0,0.0,0.0,0.0,0.0,0.0,0.0,0.0,0.0,0.0,3.2421,3.2919,0.0,3.3536,3.4131,3.4134,3.4199,3.452,3.438,3.4162,3.3991,3.3577,3.3227,3.3016,3.2547,3.2209,3.2101,3.1626,3.1294,3.122,3.0822,3.0545,3.0469,3.0342,3.0291,3.0291,3.0291,3.0342,3.0469,3.0469,3.0494,3.0607,3.0494,3.0494,3.0607,3.0582,3.0459,3.0188,2.9377,2.8371,2.731,2.704,2.6679,2.6314,2.6508,2.6508,2.6474,2.5709,2.5702,2.57,2.5696,2.5652,2.5626,2.5612,2.5621,2.5611,2.5601,2.576,2.5834,2.5785,2.5915,2.6356,0.0,0.0,0.0,0.0,2.92,2.9367,2.9946,2.9861,2.979,2.9786,2.9072,2.8671,2.8619,2.7987,2.7639,2.756,2.756,2.7571,2.7556,2.7556,2.7456,2.7315,2.7923,2.8051,2.7938,2.8658,2.8799,2.8528,2.8099,2.773,2.7453,2.7243,2.7606,2.8185,2.8216,2.8509,2.8824,2.8898,2.9072,2.9237,2.9174,2.9464,0.0,0.0,0.0,0.0,0.0,0.0,0.0,0.0,3.2737,3.3101,3.349,3.3889,3.4213,3.44,3.4515,3.4688,3.4996,3.4935,3.4817,3.4798,3.4616,3.4433,3.4264,3.3937,3.3709,3.3709,3.3368,3.3164,3.3164,3.2668,3.2381,3.2345,3.1859,3.1516,3.1479,3.1318,3.1267,3.1267,3.1267,3.1318,3.1479,3.1479,3.1589,3.1736,3.1553,3.1589,3.1736,3.1589,3.1456,3.1232,3.0281,2.9217,2.8254,2.83,2.7861,2.7242,2.733,2.7297,2.7209,0.0,2.5697,2.5707,2.57,2.5683,2.5683,2.5681,2.5696,2.5667,2.5618,2.6265,2.6748,2.6743,2.7434,2.8223,2.9024,0.0,0.0,3.0363,3.0293,3.0238,3.0256,3.0184,3.0117,3.0066,2.9908,2.9813,2.9802,2.9726,2.9627,2.9588,2.9588,2.9583,2.9569,2.9569,2.9492,2.9369,2.9456,2.9373,2.9246,2.9939,3.008,2.9934,3.0392,2.9823,2.875,2.8563,2.8958,2.9641,3.0039,3.0224,3.034,3.0685,3.0819,3.0807,3.0558,3.097,3.1487,3.1336,3.1964,3.2708,3.2773,3.3597,3.4377,0.0,3.4702,3.5042,3.4996,3.5256,3.5442,3.5277,3.5661,3.5899,3.564,3.5447,3.5267,3.5148,3.4968,3.4835,3.4802,3.4366,3.4025,3.4025,3.3902,3.3813,3.3813,3.357,3.3333,3.3164,3.2938,3.2725,3.2547,3.2511,3.2511,3.2511,3.2511,3.2511,3.2511,3.2511,3.2547,3.2547,3.2547,3.2547,3.2583,3.2725,3.2264,3.1394,3.1254,3.0369,2.917,2.9369,2.9261,2.8917,2.8189,2.7908,2.7908,0.0,2.5639,2.5641,2.564,2.5679,2.5697,2.57,2.6132,2.6445,2.6425,2.7148,2.7656,2.7653,2.843,2.9086,2.9439,2.9853,3.0275,3.0639,3.0616,3.0568,3.0536,3.0472,3.0419,3.0399,3.0337,3.0284,3.0298,3.0294,3.0277,3.0265,3.0733,3.0957,3.0963,3.1447,3.1568,3.1443,3.1399,3.1264,3.1111,3.1359,3.1334,3.1169,3.1389,3.1333,3.1025,3.0125,3.0225,0.0,0.0,3.1168,3.146,3.1643,3.1543,3.1457,3.182,3.1999,3.2211,3.2763,3.3555,3.4297,3.4562,3.5011,3.5463,3.573,3.6228,3.6575,3.6437,3.6772,3.7001,3.6735,3.6793,3.6799,3.6569,3.6228,3.5928,3.5799,3.5542,3.5282,3.51,3.4883,3.4668,3.4481,3.4278,3.4259,3.4361,3.4191,3.4074,3.4128,3.3908,3.377,3.3701,3.3701,3.3632,3.3514,3.3514,3.3493,3.3403,3.3403,3.3403,3.3403,3.3493,3.3597,3.3701,3.3908,3.326,3.2051,3.2163,3.1369,3.0068,3.0144,3.0144,2.9976,2.9198,2.8849,2.8771,0.0,2.5576,2.5644,2.5894,2.5977,2.6004,2.6023,2.6572,2.7044,2.7265,2.8025,2.8612,2.8854,2.947,2.9863,2.9863,3.0616,3.1095,3.1095,3.1303,3.1436,3.1436,3.1376,3.1349,3.1343,3.1296,3.1278,3.1274,3.1274,3.1262,3.1258,3.1838,3.2116,3.214,3.2717,3.2914,3.282,3.2746,3.2604,3.2454,3.2598,3.2524,3.2374,3.2529,3.2816,3.2963,3.1596,3.1473,0.0,0.0,3.1997,3.2284,3.2232,3.2194,3.2272,3.2805,3.3022,3.3318,3.4346,3.493,3.5372,3.5867,3.61,3.6348,3.6962,3.7537,3.791,3.7785,3.8054,3.8214,3.794,3.7812,3.7637,3.7385,3.6996,3.6677,3.6507,3.6196,3.5894,3.5653,3.5492,3.5344,3.5082,3.475,3.4616,3.475,3.4616,3.4616,3.4765,3.4616,3.4534,3.4534,3.4534,3.4467,3.4332,3.4332,3.4264,3.4191,3.4191,3.4191,3.4191,3.4264,3.4399,3.4549,3.4683,3.3952,3.2643,3.2801,3.2022,3.0732,3.0732,3.0732,3.0672,3.0189,2.9867,2.9654,0.0,0.0,2.5767,2.6625,2.6764,2.6789,2.6846,2.6882,2.7184,2.7967,2.8821,2.9688,3.0535,3.0708,3.0764,3.0764,3.1556,3.2068,3.2068,3.2851,3.3317,3.3317,3.3245,3.323,3.322,3.3214,3.3223,3.3212,3.321,3.3183,3.3112,3.3134,3.3148,3.3149,3.3188,3.3158,3.3083,3.3026,3.2909,3.2849,3.3484,3.3664,3.363,3.426,3.4416,3.4085,3.2795,0.0,0.0,3.291,3.2818,3.274,3.2558,3.3018,3.36,3.3422,3.4208,3.5287,3.6038,3.5924,3.5735,3.634,3.6824,3.7319,3.8015,3.856,3.8963,3.8963,3.8871,3.875,3.8611,3.8583,3.8399,3.7943,3.7695,3.746,3.7208,3.6892,3.6662,3.6662,3.6258,3.5973,0.0,3.5329,3.4902,3.4902,3.4902,3.4902,3.4902,3.4902,3.4902,3.4902,3.4902,3.4902,3.4868,3.4868,3.4868,3.4868,3.4868,3.4868,3.4868,3.4868,3.4902,3.4902,3.4902,3.4165,3.2972,3.2972,3.2252,3.1087,3.1087,3.1087,3.1087,3.1043,3.0821,3.0568,0.0,0.0,0.0,2.7321,2.7451,2.7673,2.8261,2.845,2.8585,2.886,2.9656,0.0,0.0,0.0,0.0,0.0,3.2723,3.2909,3.2909,3.3167,3.3334,3.3334,3.3308,3.3294,3.3296,3.33,3.332,3.3376,3.3372,3.3348,3.3341,3.3879,3.4433,3.5006,3.5541,3.6103,3.6612,3.6545,3.6463,3.6407,3.6573,3.6573,3.6466,3.6558,3.648,3.6284,0.0,0.0,3.3569,3.3415,3.3238,3.3145,3.357,3.3764,3.4004,3.4869,3.5759,3.6501,3.6606,3.6533,3.6519,3.6992,3.7576,3.8187,3.8678,3.9354,3.9816,3.9625,3.9573,3.9468,3.9228,3.9121,3.8985,3.8678,3.8427,3.8201,3.7956,3.7666,3.7417,3.7178,3.6937,0.0,0.0,0.0,0.0,3.5429,3.5429,3.5509,3.5606,3.5621,3.5621,3.5621,3.5621,3.5574,3.5429,3.5429,3.5365,3.5219,3.5219,3.5249,3.5294,3.5294,3.5294,3.5294,3.5294,3.4535,3.3346,3.3346,3.2541,3.1366,3.1366,3.1366,3.1366,3.1366,3.1292,3.1176,0.0,0.0,0.0,0.0,0.0,0.0,0.0,0.0,0.0,0.0,0.0,0.0,0.0,0.0,0.0,0.0,0.0,3.3685,3.3685,3.3985,3.4156,3.4156,3.4158,3.4155,3.416,3.4187,3.4206,3.4254,3.4597,3.4759,3.478,3.5605,3.6289,3.6854,3.7368,3.7909,3.8438,3.8358,3.8311,3.8268,3.8177,3.8074,3.7938,3.7773,3.7611,0.0,0.0,0.0,3.502,3.4765,3.4497,3.4352,3.4769,3.4913,3.5166,3.6346,3.6965,3.7262,3.7127,3.7031,3.7086,3.7526,3.8187,3.8844,3.9324,3.9977,4.0444,4.0271,4.0138,3.9977,3.9772,3.9616,3.9432,3.9148,3.8942,3.8777,3.8511,3.8286,3.8087,3.7841,3.7653,3.746,0.0,3.6692,3.6244,3.6134,3.6149,3.618,3.6321,3.6321,3.6305,3.6258,3.6258,3.6148,3.599,3.6038,3.6023,3.5929,3.5881,3.5894,3.5925,3.5797,3.5733,3.5733,3.5716,3.5052,3.4014,3.3773,3.3036,3.1999,3.1773,3.1697,3.1754,3.1754,3.1783,3.1768,0.0,0.0,0.0,0.0,0.0,0.0,0.0,0.0,0.0,0.0,0.0,0.0,0.0,0.0,0.0,0.0,0.0,0.0,3.4444,3.5224,0.0,3.5684,3.5687,3.5674,3.5683,3.5783,3.5859,3.5856,3.6782,3.7247,3.7266,3.8098,3.8527,3.8553,3.8571,3.8593,3.8623,3.8573,3.8531,3.8516,3.8384,3.8293,3.8235,3.8087,0.0,0.0,0.0,3.7552,3.7351,3.6801,3.6463,3.6254,3.6117,3.6438,3.7026,3.77,3.7828,3.7703,3.7631,3.7484,3.7455,3.7961,3.8611,3.9293,3.9856,4.0441,4.0873,4.0849,4.0597,4.0313,4.0171,4.0037,3.9824,3.9481,3.9402,3.9311,3.9013,3.8815,3.8688,3.8688,3.8359,3.8144,3.8144,3.803,3.7695,3.7057,0.0,3.6951,3.6951,3.6951,3.6891,3.6769,3.6769,3.6693,3.6585,3.6693,3.6815,3.6966,3.6815,3.6754,3.6723,3.643,3.6258,3.6227,3.6085,3.5657,3.4988,3.4319,3.3649,3.298,3.2311,3.2122,3.2247,3.2247,3.2315,3.2342,0.0,0.0,0.0,0.0,0.0,0.0,0.0,0.0,0.0,0.0,0.0,0.0,0.0,0.0,0.0,0.0,0.0,0.0,3.5077,0.0,0.0,0.0,3.5393,3.5432,3.5475,3.614,3.6494,3.6561,3.7497,3.7946,3.7945,3.8263,3.8766,3.9402,3.9458,3.9833,4.0449,4.0423,4.0377,4.0329,0.0,4.0252,4.0164,0.0,0.0,0.0,0.0,3.9471,3.9066,3.7509,3.7161,3.7341,3.7048,3.7447,3.798,3.7981,3.7967,3.7897,3.7846,3.7793,3.7757,3.779,3.884,3.9832,3.979,4.0803,4.1701,4.1453,4.1318,4.1134,4.07,4.0507,4.0516,4.0815,4.0692,4.0735,4.1201,4.0508,3.9946,3.9946,3.916,3.8623,3.8623,3.8678,3.865,3.8495,3.7956,3.7637,3.7637,3.7637,3.7637,3.7594,3.7594,3.7594,3.7535,3.7594,3.7608,3.7637,3.7608,3.7476,3.7208,3.7148,3.6952,3.6723,3.6692,3.629,3.5622,3.4942,3.4275,3.3606,3.2881,3.2614,3.2641,3.2641,3.2668,3.2695,0.0,0.0,0.0,0.0,0.0,0.0,0.0,0.0,0.0,0.0,0.0,0.0,0.0,0.0,0.0,0.0,0.0,0.0,0.0,3.5254,0.0,3.5809,3.5833,3.601,3.6397,3.6891,3.7166,3.7209,0.0,0.0,3.8644,3.9148,3.9665,4.0198,4.0247,4.0569,4.1069,4.1092,0.0,0.0,0.0,0.0,0.0,0.0,0.0,0.0,4.0971,4.1017,4.0956,3.9811,3.9008,3.8468,3.8214,3.8372,3.8572,3.8332,3.8234,3.8203,3.8105,3.8342,3.856,3.8384,3.9571,4.0683,4.0474,4.1359,4.2187,4.1998,4.187,4.1679,4.1288,4.1366,4.1559,4.1734,4.1835,4.2039,4.2405,4.1521,4.0819,4.0756,3.9874,3.9265,3.9212,3.9265,3.9292,3.9292,3.8788,3.8451,3.8451,3.8451,3.8439,3.8383,3.8371,3.8371,3.8371,3.8371,3.8411,3.8451,3.8411,3.8286,3.81,3.794,3.778,3.7589,3.7531,3.7308,3.6896,3.6213,3.5733,3.5288,3.4255,3.3884,3.3889,3.3576,3.3491,3.3569,0.0,0.0,0.0,0.0,0.0,0.0,0.0,0.0,0.0,0.0,0.0,0.0,0.0,0.0,0.0,0.0,0.0,0.0,0.0,0.0,0.0,3.6599,3.6618,3.6943,3.7668,3.7799,3.7855,3.7844,0.0,0.0,0.0,0.0,0.0,0.0,0.0,0.0,0.0,0.0,0.0,0.0,0.0,0.0,0.0,0.0,0.0,0.0,4.1956,4.221,4.2633,4.2484,4.1257,3.9751,3.9608,3.9449,3.9264,3.9053,3.8927,3.8852,3.8713,3.9192,3.9667,3.9478,4.0565,4.1631,4.15,4.1996,4.2492,4.2472,4.2331,4.2124,4.1839,4.2344,4.2745,4.2544,4.2978,4.3358,4.3345,4.2449,4.1716,4.1477,4.0654,4.0011,3.9781,3.9781,3.9781,3.9781,3.954,3.9339,3.9259,3.9259,3.9222,3.9104,3.9104,3.9104,3.9104,3.9104,3.9142,3.9259,3.9142,3.9077,3.905,3.8772,3.8629,3.8601,3.8474,3.8435,3.837,3.7698,3.7433,3.7302,3.5984,3.5449,3.5388,3.4758,3.453,3.4546,0.0,0.0,0.0,0.0,0.0,0.0,0.0,0.0,0.0,0.0,3.4361,0.0,0.0,0.0,0.0,0.0,0.0,0.0,0.0,0.0,0.0,0.0,3.7242,3.7337,3.7528,3.8241,3.8603,3.8604,3.9547,0.0,0.0,0.0,0.0,0.0,0.0,0.0,0.0,0.0,0.0,0.0,0.0,0.0,0.0,0.0,0.0,0.0,4.2868,4.2806,4.2842,4.2686,4.2238,4.1695,4.1567,4.1443,4.1334,4.114,4.0989,4.0865,4.0728,4.0761,4.0808,4.0708,4.1387,4.2064,4.1922,4.2468,4.2955,4.2843,4.2728,4.2589,4.2333,4.287,4.3511,4.3935,4.4384,4.4889,4.5555,4.4557,4.3545,4.2849,4.1792,4.0883,4.0256,4.0205,4.0205,4.0205,4.0246,4.0096,3.9635,3.9609,3.9609,3.9573,3.9573,3.9573,3.9573,3.9573,3.9599,3.9609,3.9599,3.952,3.9405,3.9335,3.9239,3.9082,3.9055,0.0,3.9005,3.8312,3.8041,3.7959,3.71,3.6414,3.5893,3.5737,3.5323,3.4851,0.0,0.0,0.0,0.0,0.0,0.0,0.0,0.0,0.0,3.427,3.4755,3.5324,0.0,0.0,0.0,0.0,0.0,0.0,0.0,0.0,0.0,0.0,0.0,3.8302,3.8729,3.9166,3.9366,3.9378,0.0,4.0068,4.0158,4.0288,4.043,4.0602,4.0765,4.0893,4.1,0.0,0.0,0.0,4.1582,0.0,0.0,0.0,0.0,0.0,0.0,4.4399,4.4282,4.4202,4.3975,4.3574,4.2533,4.2121,4.198,4.1851,4.1736,4.1646,4.1545,4.1787,4.2045,4.1955,4.2484,4.2991,4.2856,4.303,4.3178,4.3068,4.2994,4.2879,4.2649,4.354,4.4411,4.4678,4.5517,4.6287,4.6654,4.5663,4.4603,4.372,4.2684,4.1688,4.0851,4.0782,4.0782,4.0782,4.0813,4.0645,4.0146,4.0062,4.0011,4.0011,3.9935,3.9935,4.0011,4.0011,4.0062,4.0138,4.0138,4.0087,4.0011,4.0011,3.9969,3.9876,3.9876,3.9876,3.9842,3.9531,3.9396,3.9312,3.857,3.8089,3.7684,3.6868,3.634,3.5986,0.0,0.0,0.0,0.0,0.0,0.0,0.0,3.2416,3.3026,3.4537,3.4841,3.5306,3.6339,3.6472,3.687,0.0,0.0,0.0,0.0,0.0,0.0,0.0,0.0,3.9248,3.99,0.0,0.0,3.9922,3.9922,0.0,0.0,0.0,0.0,0.0,4.0736,4.0869,4.0972,4.1071,4.121,0.0,0.0,4.2616,0.0,0.0,0.0,0.0,0.0,4.5745,4.5645,4.5565,4.5419,4.4994,4.3507,4.2905,4.2724,4.2649,4.259,4.2506,4.2439,4.2852,4.3287,4.3156,4.3515,4.3886,4.3761,4.3579,4.3425,4.3339,4.3251,4.3123,4.2918,4.3999,4.4971,4.5047,4.6166,4.7088,4.7249,4.6462,4.5465,4.4377,4.3497,4.2577,4.1501,4.1373,4.1351,4.1351,4.1351,4.1123,4.0638,4.051,4.0436,4.0379,4.0313,4.0313,4.0362,4.0436,4.0493,4.0614,4.0638,4.0638,4.0638,4.0638,4.0638,4.0638,4.0638,4.0638,4.0638,4.0638,4.0638,4.0587,4.0027,3.9678,3.9345,3.7968,3.7346,3.7067,0.0,0.0,0.0,0.0,0.0,0.0,0.0,3.1994,3.2819,3.3704,3.4453,3.5514,3.7116,3.7287,3.7921,0.0,0.0,0.0,0.0,0.0,0.0,0.0,0.0,0.0,0.0,0.0,0.0,3.9986,3.9986,0.0,0.0,0.0,0.0,0.0,0.0,4.0835,4.0913,4.1052,0.0,0.0,0.0,0.0,0.0,0.0,0.0,0.0,0.0,4.5874,4.584,4.5731,4.5588,4.5426,4.5208,4.4989,4.481,4.474,4.4631,4.4518,4.4453,4.4409,4.4341,4.4195,4.4204,4.4231,4.4162,4.403,4.3908,4.3775,4.3597,4.341,4.3214,4.3832,4.4573,4.5162,4.591,4.6639,4.736,4.7218,4.6471,4.4929,4.4448,4.3638,4.2161,4.1899,4.1839,4.1839,4.1839,4.1578,4.0977,4.0931,4.0853,4.0673,4.0769,4.0752,4.0673,4.0853,4.0931,4.0954,4.1071,4.114,4.114,4.114,4.114,4.114,4.114,4.114,0.0,4.114,4.114,4.1123,4.1053,4.0556,3.9754,3.894,3.8148,3.737,0.0,0.0,0.0,0.0,0.0,0.0,0.0,3.1876,3.2755,3.3645,3.4434,3.5533,3.723,3.7401,3.8073,0.0,0.0,0.0,0.0,0.0,0.0,0.0,0.0,0.0,0.0,0.0,4.0233,4.0771,4.0871,0.0,0.0,0.0,0.0,0.0,0.0,4.0911,4.1007,4.1584,0.0,0.0,0.0,0.0,0.0,0.0,0.0,0.0,0.0,0.0,4.595,4.5848,4.5759,4.5677,4.5588,4.5513,4.5361,4.5181,4.5049,4.4967,4.4943,4.4895,4.4846,4.4732,4.4655,4.4576,4.4513,4.4327,4.4132,4.4014,4.3825,4.3629,4.3478,4.398,4.4692,4.5475,4.6119,4.6814,4.763,4.7114,4.6266,4.5168,4.4447,4.3608,4.2499,4.2333,4.2313,4.2313,4.2313,4.219,4.1856,4.1547,4.1295,4.1134,4.1071,4.1134,4.1244,4.1318,4.1413,4.1534,4.1596,4.1622,4.1622,4.1622,4.1622,4.1622,4.1622,4.1622,0.0,4.1622,4.1622,4.1622,4.1622,4.1358,4.0885,4.0171,3.9332,3.8492,0.0,0.0,0.0,0.0,0.0,0.0,3.0598,3.1698,3.2669,3.3367,3.4328,3.559,3.725,3.744,3.8112,3.9767,0.0,0.0,0.0,0.0,0.0,0.0,0.0,0.0,0.0,0.0,0.0,4.1397,4.1762,4.2321,0.0,0.0,4.2331,4.2493,0.0,0.0,0.0,0.0,0.0,0.0,0.0,0.0,0.0,0.0,0.0,0.0,0.0,0.0,0.0,0.0,0.0,4.5827,4.5764,4.5692,4.5575,4.533,4.5224,4.5159,4.5136,4.5114,4.5091,4.5038,4.4955,4.487,4.4821,4.4674,4.4462,4.4327,4.4166,4.398,4.3777,4.4276,4.4965,4.5737,4.643,4.7135,4.7877,4.7096,4.6176,4.5375,4.4462,4.359,4.2818,4.2765,4.2785,4.2785,4.2785,4.2728,4.2611,4.2249,4.1913,4.1613,4.1552,4.1591,4.1758,4.1805,4.1895,4.2047,4.2089,4.211,4.211,4.211,4.211,4.211,4.211,4.211,0.0,4.211,4.211,4.211,4.211,4.2026,4.1814,4.1073,4.025,3.9388,0.0,0.0,0.0,0.0,0.0,0.0,0.0,3.1347,3.253,3.2599,3.4065,3.5702,3.7328,3.7508,3.8143,3.9748,0.0,0.0,0.0,0.0,0.0,0.0,0.0,0.0,0.0,0.0,0.0,0.0,0.0,4.3057,4.3194,4.326,4.3358,4.3501,0.0,0.0,0.0,0.0,0.0,0.0,0.0,0.0,0.0,0.0,0.0,0.0,0.0,0.0,0.0,0.0,0.0,0.0,0.0,4.5805,4.5648,4.5466,4.5351,4.5286,4.5213,4.5148,4.5103,4.5103,4.5103,4.5103,4.5103,4.5038,4.4943,4.4821,4.4699,4.4491,4.417,4.4699,4.5354,4.5897,4.6727,4.7518,4.8117,4.7396,4.6477,4.5595,4.4661,4.3826,4.3159,4.3142,4.3178,4.3178,4.3178,0.0,4.3104,4.3086,4.2765,4.2103,4.2225,4.2225,4.2103,4.229,4.2374,4.2412,4.2532,4.2589,4.2589,4.2589,4.2589,4.2589,4.2589,4.2589,0.0,4.2589,4.2589,4.2589,4.2589,4.2512,4.2304,4.1554,4.0708,3.9807,0.0,0.0,0.0,0.0,0.0,0.0,0.0,3.1372,3.252,3.2586,3.4539,3.6339,3.7443,3.8061,3.8831,3.9941,0.0,0.0,0.0,0.0,0.0,0.0,0.0,0.0,0.0,0.0,0.0,0.0,0.0,0.0,0.0,0.0,4.4375,4.4428,4.3837,4.358,0.0,0.0,0.0,0.0,0.0,0.0,0.0,0.0,0.0,0.0,0.0,0.0,0.0,0.0,0.0,0.0,0.0,0.0,0.0,4.5708,4.554,4.5361,4.5348,4.5297,4.5243,4.5243,4.5203,4.517,4.517,4.5125,4.5038,4.4943,4.4858,4.4928,4.5337,4.5477,4.5967,4.7292,4.751,4.7787,4.8567,4.7279,4.6159,4.5865,4.4565,4.3614,4.3376,4.3393,4.341,4.341,4.341,4.341,4.3375,4.3375,4.3142,4.2671,4.2689,4.2728,4.2765,4.286,4.2899,4.2957,4.2994,4.3013,4.3013,4.3013,4.3013,4.3013,4.3013,4.3013,4.3013,4.3013,4.3013,4.3013,4.3013,4.2956,4.2843,4.2627,4.1576,4.0293,0.0,0.0,0.0,0.0,0.0,0.0,0.0,3.1406,3.2553,3.2626,3.4829,3.6699,3.7557,3.8356,3.9309,4.0497,0.0,0.0,0.0,0.0,0.0,0.0,0.0,0.0,0.0,0.0,0.0,0.0,0.0,0.0,0.0,0.0,0.0,0.0,4.4818,0.0,0.0,0.0,0.0,0.0,0.0,0.0,0.0,0.0,0.0,0.0,0.0,0.0,0.0,0.0,0.0,0.0,0.0,0.0,0.0,0.0,4.5704,4.5528,4.5458,4.5389,4.5338,4.5338,4.5297,4.5243,4.5243,4.5203,4.5159,4.5091,4.5038,4.5245,4.5975,4.6257,4.6797,4.8097,4.8386,4.8589,4.9036,4.7475,4.601,4.5247,4.4289,4.3699,4.3699,4.373,4.3761,4.3761,4.3761,4.3761,4.3761,4.3761,4.3646,4.3407,4.3214,4.316,4.3251,4.3251,4.3269,4.3304,4.3304,4.3304,4.3304,4.3304,4.3304,4.3304,4.3304,4.3304,0.0,4.3304,4.3304,4.3304,4.3304,4.3286,4.3251,4.3251,4.2376,4.1157,0.0,0.0,0.0,0.0,0.0,0.0,0.0,0.0,0.0,3.2684,3.4915,3.6807,3.7603,3.8432,3.9576,0.0,0.0,0.0,0.0,0.0,0.0,0.0,0.0,0.0,0.0,0.0,0.0,4.4692,4.5592,4.6046,4.6117,0.0,0.0,0.0,0.0,0.0,0.0,0.0,0.0,0.0,0.0,0.0,0.0,0.0,0.0,0.0,0.0,0.0,0.0,0.0,0.0,0.0,0.0,0.0,0.0,0.0,0.0,0.0,0.0,4.5467,4.5399,4.5418,4.5359,4.5317,4.5307,4.5307,0.0,4.5213,4.5203,4.5456,4.6254,4.701,4.7758,4.8499,4.9286,4.9731,4.9476,4.7939,4.6102,4.4103,4.3968,4.4051,4.4051,4.4151,4.4254,4.4254,4.4254,4.4254,4.4254,4.4254,4.4254,4.4254,4.3809,4.3582,4.3548,4.3548,4.3548,4.3548,4.3548,4.3548,4.3548,4.3548,4.3548,0.0,4.3548,4.3548,4.3548,4.3548,4.3548,4.3548,4.3548,4.3548,4.3548,4.3548,4.3033,4.2222,0.0,0.0,0.0,0.0,0.0,0.0,0.0,0.0,0.0,0.0,3.4915,3.6806,3.7599,3.8458,3.968,0.0,0.0,0.0,0.0,0.0,0.0,0.0,0.0,0.0,0.0,0.0,0.0,4.5659,4.5949,4.6108,4.6181,4.6181,0.0,0.0,0.0,0.0,0.0,0.0,0.0,0.0,0.0,0.0,0.0,0.0,0.0,0.0,4.6002,4.6002,0.0,0.0,0.0,0.0,0.0,0.0,0.0,0.0,4.5937,4.5874,4.5819,0.0,4.5532,4.5495,4.5429,4.538,0.0,4.5388,4.5348,4.5297,4.5286,4.5715,4.719,4.7564,4.8126,4.9568,4.9898,4.9939,4.9866,4.8318,4.6514,4.4701,4.4532,4.4532,4.4532,4.4573,4.4568,4.4568,4.4568,4.4568,4.4568,4.4568,4.4568,4.4568,4.4472,4.4283,4.4045,4.4045,4.4045,4.4045,4.4045,4.4045,4.4045,4.4045,4.4045,4.4045,4.4045,4.4045,4.4045,4.4045,4.4045,4.4045,4.4045,4.4045,4.4045,4.4045,4.3524,4.272,0.0,0.0,0.0,0.0,0.0,0.0,0.0,0.0,0.0,0.0,0.0,0.0,0.0,0.0,0.0,0.0,0.0,0.0,0.0,0.0,0.0,0.0,0.0,0.0,0.0,0.0,0.0,0.0,0.0,4.6162,0.0,0.0,0.0,0.0,0.0,0.0,0.0,0.0,0.0,0.0,0.0,0.0,0.0,0.0,0.0,0.0,4.6002,4.6002,0.0,4.6002,4.6002,4.6002,0.0,0.0,0.0,0.0,4.5964,4.5947,4.5956,4.5805,4.5632,4.559,4.5547,4.5494,4.5458,4.5458,4.5419,4.5351,4.5666,4.6325,4.7603,4.8116,4.8751,5.0045,5.0175,4.9866,4.9049,4.8042,4.6746,4.5041,4.4833,4.4833,4.4833,4.4877,4.487,4.487,4.487,4.487,4.487,4.487,4.487,4.487,4.487,4.4726,4.4426,4.4426,4.4426,4.4426,4.4426,4.4426,4.4426,4.4426,4.4426,4.4426,4.4426,4.4426,4.4426,4.4426,4.4426,4.4426,4.4426,4.4426,4.4426,4.4426,4.4144,4.3656,0.0,0.0,0.0,0.0,0.0,0.0,0.0,0.0,0.0,0.0,0.0,0.0,0.0,0.0,0.0,0.0,0.0,0.0,0.0,0.0,0.0,0.0,0.0,0.0,0.0,0.0,0.0,0.0,0.0,0.0,0.0,0.0,4.6066,0.0,0.0,0.0,0.0,0.0,0.0,0.0,0.0,0.0,0.0,0.0,0.0,0.0,0.0,0.0,0.0,4.6002,4.6002,4.6002,4.6002,0.0,0.0,0.0,0.0,0.0,4.6008,4.5886,4.574,4.5727,4.568,4.5613,4.5547,4.554,4.5503,4.5428,4.6119,4.6953,4.7764,4.8577,4.939,5.0203,5.021,4.9557,4.7953,4.7505,4.6768,4.5228,4.5057,4.5057,4.5057,4.5103,4.5136,4.5136,4.5136,4.5136,4.5136,4.5136,4.5136,4.5136,4.5136,4.5014,4.4783,4.4757,4.4745,4.4745,4.4745,4.4745,4.4745,4.4745,4.4745,4.4745,0.0,0.0,4.4745,4.4745,4.4745,4.4745,4.4745,4.4745,4.4745,4.4745,4.4745,4.4644,0.0,0.0,0.0,0.0,0.0,0.0,0.0,0.0,0.0,0.0,0.0,0.0,0.0,0.0,0.0,0.0,0.0,0.0,0.0,0.0,0.0,0.0,0.0,0.0,0.0,0.0,0.0,0.0,0.0,0.0,4.5108,4.5097,4.549,0.0,0.0,0.0,0.0,0.0,0.0,0.0,0.0,0.0,0.0,0.0,0.0,0.0,0.0,0.0,0.0,4.6002,4.6002,4.6002,4.6002,0.0,0.0,0.0,0.0,0.0,4.5997,4.598,4.5947,4.588,4.5826,4.5745,4.5681,4.5661,4.5648,4.558,4.621,4.703,4.7837,4.8701,4.9525,5.0336,4.9803,4.8947,4.7999,4.7169,4.6304,4.5379,4.5246,4.5246,4.5246,4.5256,4.5275,4.5275,4.5275,4.5275,4.5275,4.5275,4.5275,4.5275,4.5275,4.5254,4.5203,4.5103,4.5045,4.5045,4.5045,4.5045,4.5045,4.5045,4.5045,4.5045,0.0,4.5045,4.5045,4.5045,4.5045,4.5045,4.5045,4.5045,4.5045,4.5045,4.5045,4.4912,0.0,0.0,0.0,0.0,0.0,0.0,0.0,0.0,0.0,0.0,0.0,0.0,0.0,0.0,0.0,0.0,0.0,0.0,0.0,0.0,0.0,0.0,0.0,0.0,0.0,0.0,0.0,0.0,0.0,4.4055,4.495,4.5398,4.5816,4.6208,0.0,0.0,0.0,0.0,0.0,0.0,0.0,0.0,0.0,0.0,0.0,0.0,0.0,0.0,0.0,0.0,4.6002,4.6002,4.6002,0.0,0.0,0.0,0.0,0.0,4.6002,4.6002,4.5991,4.5972,4.5937,4.6009,4.642,4.6508,4.6622,4.7036,4.7747,4.8428,4.8801,4.9545,5.0211,5.0508,4.9804,4.8919,4.8075,4.7181,4.6308,4.5446,4.5351,4.5351,4.5351,4.5351,4.5351,4.5351,4.5351,4.5351,4.5351,4.5351,4.536,4.5348,4.5348,4.5338,4.5307,4.5254,4.5203,4.5203,4.5203,4.5203,4.5203,4.5203,4.5203,4.5203,0.0,4.5203,4.5203,4.5203,4.5203,4.5203,4.5203,4.5203,4.5203,4.5203,4.5203,4.5164,0.0,0.0,0.0,0.0,0.0,0.0,0.0,0.0,0.0,0.0,0.0,0.0,0.0,0.0,0.0,0.0,0.0,0.0,0.0,0.0,0.0,0.0,0.0,0.0,0.0,0.0,4.3299,4.3314,4.332,4.3909,4.5015,4.5818,4.6207,0.0,0.0,0.0,0.0,0.0,0.0,0.0,0.0,0.0,0.0,0.0,0.0,0.0,0.0,0.0,0.0,0.0,0.0,0.0,0.0,0.0,0.0,4.6002,4.6002,4.6002,4.6002,4.6002,4.6002,4.6002,4.6155,4.6477,4.7088,4.7379,4.7695,4.8313,4.9093,4.9633,4.9626,5.0281,5.0724,5.0421,4.9634,4.875,4.7885,4.7002,4.6196,4.5534,4.5438,4.5438,4.5438,4.5438,4.5438,4.5438,4.5438,4.5438,4.5438,4.5438,4.5438,4.5429,4.5419,4.5399,4.5319,4.5319,4.5328,4.5307,4.5307,4.5307,4.5307,4.5317,4.5317,4.5328,4.5319,4.5319,4.5319,4.5319,4.5319,4.5319,4.5319,4.5319,4.5319,4.5319,4.5319,4.5319,0.0,0.0,0.0,0.0,0.0,0.0,0.0,0.0,0.0,0.0,0.0,0.0,0.0,0.0,0.0,0.0,0.0,0.0,0.0,0.0,0.0,0.0,0.0,0.0,0.0,4.2841,4.2422,4.2499,4.2493,4.3354,4.5019,4.5829,4.6191,4.6209,0.0,0.0,0.0,0.0,0.0,0.0,0.0,0.0,0.0,0.0,0.0,0.0,0.0,0.0,0.0,0.0,0.0,0.0,0.0,0.0,4.6002,4.6002,4.6002,4.6002,4.6002,4.6002,4.6002,4.6002,4.6618,4.7215,4.7287,4.793,4.8508,4.8566,4.924,4.9769,4.9695,5.0341,5.0619,4.98,4.8937,4.8067,4.7188,4.6268,4.5667,4.5586,4.5586,4.5586,4.5586,4.5586,4.5586,4.5586,4.5586,4.5586,4.5586,4.5586,4.5559,4.5495,4.5485,4.5467,4.539,4.539,4.5361,4.5307,4.5307,4.5307,4.5307,4.5359,4.5398,4.5379,4.539,4.539,4.539,4.539,4.539,4.539,4.539,4.539,4.539,4.539,4.539,4.539,0.0,0.0,0.0,0.0,0.0,0.0,0.0,0.0,0.0,0.0,0.0,0.0,0.0,0.0,0.0,0.0,0.0,0.0,0.0,0.0,0.0,0.0,0.0,4.1733,4.2041,4.172,4.1571,4.1587,4.2671,4.3807,4.4959,4.5767,0.0,0.0,0.0,0.0,0.0,0.0,0.0,0.0,0.0,0.0,0.0,0.0,0.0,0.0,0.0,0.0,0.0,0.0,4.6002,4.6002,4.6002,4.6002,4.6002,4.6002,4.6002,4.6002,4.6002,4.6002,4.6002,4.6002,4.7065,4.8114,4.8114,4.8788,4.9559,5.0116,5.0454,5.0649,5.0578,5.0383,5.0111,4.978,4.8551,4.749,4.7166,4.6324,4.5715,4.5719,4.5719,4.5719,4.5719,4.5719,4.5719,4.5719,4.5719,4.5719,4.5719,4.5719,4.5696,4.5637,4.5624,4.559,4.5528,4.5512,4.5523,4.5486,4.54,4.5361,4.537,4.5419,4.5467,4.5467,4.5514,4.5522,4.5522,4.5522,4.5522,4.5522,4.5522,4.5522,4.5522,4.5522,4.5522,4.5522,0.0,0.0,0.0,0.0,0.0,0.0,0.0,0.0,0.0,0.0,0.0,0.0,0.0,0.0,0.0,0.0,0.0,0.0,0.0,0.0,0.0,0.0,0.0,4.11,4.1102,4.1375,4.1512,4.1514,4.3235,4.4493,4.5311,0.0,0.0,0.0,0.0,0.0,0.0,0.0,0.0,0.0,0.0,0.0,0.0,0.0,0.0,0.0,0.0,0.0,0.0,0.0,4.6002,4.6002,4.6002,4.6002,4.6002,4.6002,4.6002,4.6002,4.6002,4.6002,4.6079,4.6346,4.7512,4.8677,4.8949,4.9687,5.0484,5.1086,5.1202,5.1099,5.079,5.024,4.9646,4.9097,4.8012,4.7139,4.6862,4.6281,4.5854,4.5822,4.5841,4.5841,4.5841,4.5848,4.5854,4.5854,4.5867,4.5854,4.5854,4.5854,4.5835,4.5801,4.5793,4.5764,4.57,4.5696,4.57,4.57,4.5596,4.5509,4.5475,4.553,4.5556,4.5573,4.5635,4.566,4.566,4.566,4.566,4.566,4.566,4.566,4.566,4.566,4.566,4.566,0.0,0.0,0.0,0.0,0.0,0.0,0.0,0.0,0.0,0.0,0.0,0.0,0.0,0.0,0.0,0.0,0.0,0.0,0.0,0.0,0.0,0.0,0.0,4.1093,4.1094,4.1969,4.2419,4.2421,4.4092,4.5354,4.6203,4.6126,0.0,0.0,0.0,0.0,0.0,0.0,0.0,0.0,0.0,0.0,0.0,0.0,0.0,0.0,0.0,0.0,0.0,0.0,4.6002,4.6002,4.6002,4.6002,4.6002,4.6002,4.6002,4.6002,4.6002,4.6002,4.6215,4.7084,4.7958,4.8832,4.9693,5.0561,5.1202,5.1202,5.1202,5.093,5.0062,4.9887,4.9324,4.7589,4.7293,4.6996,4.6119,4.5997,4.5986,4.5917,4.5892,4.5892,4.5892,4.596,4.5997,4.5997,4.6005,4.6002,4.6002,4.6002,4.6005,4.5997,4.5997,4.596,4.5892,4.5892,4.5892,4.5892,4.5892,4.5801,4.5605,4.5673,4.5692,4.5711,4.5773,4.5807,4.5807,4.5807,4.5807,4.5807,4.5807,4.5807,4.5807,4.5807,4.5807,4.5807,0.0,0.0,0.0,0.0,0.0,0.0,0.0,0.0,0.0,0.0,0.0,0.0,0.0,0.0,0.0,0.0,0.0,0.0,0.0,0.0,0.0,0.0,0.0,0.0,0.0,0.0,4.3536,4.4159,4.4605,4.5282,0.0,0.0,0.0,4.6032,0.0,0.0,0.0,0.0,0.0,0.0,0.0,0.0,0.0,0.0,0.0,0.0,0.0,0.0,0.0,0.0,0.0,0.0,4.6142,4.6115,4.6059,4.6059,4.6075,4.6071,4.6071,4.6061,4.6285,4.716,4.8035,4.8891,4.9771,5.0614,5.1202,5.1202,5.1202,5.093,5.0062,4.9401,4.8619,4.7473,4.6793,4.6313,4.6095,4.6075,4.6061,4.6032,4.6032,4.6032,4.6032,4.6061,4.6066,4.6066,4.6071,4.6075,4.6075,4.6075,4.6071,4.6066,4.6066,4.6051,4.6046,4.5986,4.5975,4.5975,4.5975,4.591,4.5815,4.5867,4.5912,4.5899,4.5931,4.5937,4.5931,4.5893,4.5861,4.5861,4.5861,4.5861,4.5861,4.5861,4.5861,4.5861,0.0,0.0,0.0,0.0,0.0,0.0,0.0,0.0,0.0,0.0,0.0,0.0,0.0,0.0,0.0,0.0,0.0,0.0,0.0,0.0,0.0,0.0,0.0,0.0,0.0,4.3042,4.4156,0.0,0.0,0.0,0.0,0.0,0.0,4.6002,0.0,4.6002,0.0,0.0,0.0,0.0,4.6075,4.6093,4.6106,0.0,0.0,0.0,0.0,0.0,0.0,0.0,0.0,0.0,4.62,4.6174,4.6144,4.6137,4.6135,4.6138,4.6142,4.6395,4.6863,4.7708,4.8573,4.9438,5.0314,5.0865,5.1197,5.1197,5.0945,5.0464,4.958,4.8706,4.7855,4.7009,4.6411,4.6089,4.6122,4.6141,4.6145,4.6142,4.6115,4.6091,4.6091,4.613,4.6149,4.6149,4.6138,4.6142,4.6142,4.6131,4.6135,4.6135,4.6131,4.615,4.615,4.6095,4.6091,4.6091,4.6083,4.606,4.6013,4.6021,4.6035,4.6046,4.6035,4.6025,4.5994,4.5953,4.5947,4.5947,4.5947,4.5947,4.5947,4.5947,4.5947,4.5947,0.0,0.0,0.0,0.0,0.0,0.0,0.0,0.0,0.0,0.0,0.0,0.0,0.0,0.0,0.0,0.0,0.0,0.0,0.0,0.0,0.0,0.0,0.0,0.0,0.0,0.0,0.0,0.0,0.0,0.0,0.0,0.0,4.6002,4.6002,0.0,4.6002,0.0,0.0,0.0,0.0,4.6099,4.6111,4.6112,4.6189,0.0,0.0,0.0,0.0,0.0,0.0,0.0,0.0,4.6219,4.6216,4.6214,4.622,4.6192,4.6209,4.6193,4.6846,4.7696,4.8512,4.9421,5.0349,5.113,5.1195,5.1093,5.1089,5.05,4.9707,4.8755,4.7942,4.7132,4.6339,4.6206,4.6206,4.6209,4.619,4.619,4.619,4.6157,4.6107,4.6103,4.6162,4.6201,4.6201,4.6199,4.6206,4.6206,4.6203,4.6192,4.6192,4.6203,4.6192,4.6209,4.6209,4.6209,4.6206,4.6195,4.6206,4.6206,4.613,4.6099,4.6117,4.6114,4.6071,4.6007,4.6007,4.6007,4.6002,4.6002,4.6002,4.6002,4.6002,4.6002,4.6002,0.0,0.0,0.0,0.0,0.0,0.0,0.0,0.0,0.0,0.0,0.0,0.0,0.0,0.0,0.0,0.0,0.0,0.0,0.0,0.0,0.0,0.0,0.0,0.0,0.0,0.0,0.0,0.0,0.0,0.0,0.0,0.0,0.0,4.6002,0.0,4.6032,0.0,0.0,0.0,4.6103,4.6161,4.6189,4.6191,4.6248,4.6277,0.0,0.0,0.0,0.0,0.0,0.0,0.0,4.6286,4.6284,4.6281,4.6274,4.6245,4.6193,4.6191,4.6837,4.7719,4.8564,4.9954,5.115,5.133,5.0846,5.0327,5.0264,5.013,4.9538,4.8035,4.7609,4.7206,4.6348,4.6194,4.6201,4.62,4.6202,4.6202,4.6202,4.6181,4.6175,4.6186,4.6186,4.6206,4.6206,4.6208,4.6208,4.6208,4.6193,4.6193,4.6193,4.6195,4.6193,4.6204,4.6204,4.6199,4.6206,4.6203,4.6209,4.6197,4.6187,4.6174,4.6181,4.6177,4.6141,4.608,4.608,4.609,4.6071,4.6071,4.6056,4.6002,4.6002,4.6032,4.6071,0.0,0.0,0.0,0.0,0.0,0.0,0.0,0.0,0.0,0.0,0.0,0.0,0.0,0.0,0.0,0.0,0.0,0.0,0.0,0.0,3.8949,4.0231,0.0,0.0,0.0,0.0,0.0,0.0,0.0,0.0,4.6002,4.6002,0.0,4.6061,0.0,4.6061,0.0,0.0,4.6144,4.6159,4.621,4.6251,4.6243,4.6287,4.6308,4.6308,4.6307,0.0,0.0,0.0,0.0,0.0,0.0,0.0,4.6308,4.6308,4.6287,4.6245,4.6243,4.6889,4.7848,4.91,5.0429,5.1289,5.0879,5.0429,4.984,4.898,4.8805,4.855,4.7652,4.7167,4.6722,4.6263,4.6206,4.6208,4.619,4.6191,4.6191,4.6191,4.6209,4.6205,4.6204,4.6199,4.6195,4.6195,4.6195,4.6195,4.6195,4.6237,4.6258,4.6258,4.6241,4.6259,4.6254,4.6254,4.6249,4.6241,4.6241,4.6223,4.6207,4.6201,4.6198,4.6203,4.6203,4.6187,4.6142,4.6142,4.615,4.6149,4.6149,4.6122,4.6093,4.6093,4.6126,4.6146,0.0,0.0,0.0,0.0,0.0,0.0,0.0,0.0,0.0,0.0,0.0,0.0,0.0,0.0,0.0,0.0,0.0,0.0,0.0,3.7819,3.9086,4.0635,0.0,0.0,0.0,0.0,0.0,0.0,0.0,4.5147,4.5793,4.5949,4.6042,4.6105,0.0,0.0,0.0,0.0,4.6216,4.622,4.628,4.6308,4.6308,4.6306,4.6303,4.6299,4.6299,4.6299,4.6299,4.6299,0.0,0.0,0.0,0.0,4.63,4.6304,4.6305,4.6305,4.6288,4.6912,4.7943,4.95,5.0416,5.0768,5.0038,4.9751,4.9246,4.7805,4.7499,4.7456,4.7305,4.6698,4.6209,4.6202,4.62,4.62,4.6199,4.6199,4.6199,4.62,4.6207,4.619,4.619,4.6191,4.6209,4.6209,4.6209,4.6209,4.6209,4.625,4.6289,4.6289,4.6289,4.6289,4.6289,4.6289,4.6288,4.6286,4.6287,4.6248,4.6209,4.6203,4.6192,4.6195,4.6195,4.6204,4.6203,4.6203,4.6195,4.62,4.62,4.62,4.6196,4.6196,4.6206,4.6201,0.0,0.0,0.0,0.0,0.0,0.0,0.0,0.0,0.0,0.0,0.0,3.5807,3.5807,3.5803,0.0,0.0,0.0,0.0,3.5969,0.0,0.0,0.0,0.0,0.0,0.0,0.0,0.0,0.0,4.4423,4.4846,4.4982,4.5726,4.609,4.6093,4.6092,0.0,0.0,0.0,4.6237,4.6286,4.6308,4.6305,4.6296,4.6296,4.6291,4.6303,4.6303,4.6303,4.6303,4.6303,4.6303,0.0,0.0,0.0,4.6305,4.6305,4.6305,4.6287,4.6228,4.6846,4.7754,4.8738,4.9057,4.912,4.9008,4.8381,4.7783,4.7545,4.7494,4.7275,4.6505,4.6288,4.6207,4.6195,4.6195,4.6191,4.6199,4.6199,4.6201,4.6193,4.6197,4.62,4.6209,4.6192,4.6194,4.6194,4.6194,4.6194,4.6194,4.6212,4.6212,4.6212,4.621,4.6213,4.62,4.6263,4.6265,4.6207,4.6204,4.6201,4.6201,4.6198,4.6209,4.6201,4.6201,4.62,4.6199,4.6199,4.6195,4.6207,4.6207,4.6202,4.6195,4.6195,4.62,4.6191,0.0,0.0,0.0,0.0,0.0,0.0,0.0,0.0,0.0,0.0,0.0,3.5795,3.5795,3.5795,0.0,0.0,0.0,0.0,3.6498,3.7702,0.0,0.0,0.0,0.0,0.0,0.0,0.0,0.0,4.3646,4.4322,4.4812,4.5693,4.6111,4.615,4.6167,0.0,0.0,0.0,4.6269,4.6307,4.6303,4.6296,4.6306,4.6306,4.6303,4.63,4.63,4.63,4.63,4.63,4.63,4.63,4.6294,0.0,0.0,0.0,4.6243,4.6243,4.6204,4.6843,4.7599,4.7984,4.8449,4.868,4.8187,4.7777,4.7368,4.6865,4.6763,4.6643,4.6272,4.6194,4.6209,4.6195,4.6192,4.6209,4.6203,4.6203,4.6203,4.6192,4.6201,4.6206,4.6194,4.6201,4.6204,4.6204,4.6204,4.6204,4.6204,4.6204,4.6204,4.6204,4.6204,4.6191,4.62,4.6225,4.6227,4.6207,4.6202,4.6199,4.6193,4.6206,4.6206,4.6208,4.6208,4.6209,4.619,4.619,4.6191,4.6191,4.6191,4.6191,4.6191,4.6191,4.6191,4.6191,0.0,0.0,0.0,0.0,0.0,0.0,0.0,0.0,0.0,0.0,0.0,0.0,3.5795,0.0,0.0,0.0,0.0,0.0,3.6731,0.0,0.0,0.0,0.0,0.0,0.0,0.0,0.0,4.1893,4.2976,4.3835,4.4522,4.5604,4.615,4.6238,4.6236,4.6255,0.0,0.0,4.6305,4.63,4.6293,4.6306,4.63,4.63,4.63,4.63,4.63,4.63,4.63,4.6298,4.6296,4.6294,4.6279,4.6275,0.0,0.0,0.0,4.6151,4.6151,4.6619,4.7125,4.7132,4.7629,4.7953,4.732,4.7173,4.6991,4.6332,4.6199,4.6203,4.6196,4.6196,4.6193,4.6199,4.6199,4.6277,4.6511,4.653,4.6608,4.6823,4.6852,4.6762,4.6547,4.6521,4.6449,4.6215,4.6195,4.6195,4.6195,4.6195,4.6195,4.6195,4.6195,4.6201,4.6192,4.6192,4.6194,4.6197,4.6194,4.6206,4.6195,4.6195,4.6209,4.6206,4.6193,4.6199,4.6206,4.6206,4.6209,4.6195,4.6195,4.6195,4.6195,4.6195,4.6192,4.6206,0.0,0.0,0.0,0.0,0.0,0.0,0.0,0.0,0.0,0.0,0.0,0.0,0.0,0.0,0.0,0.0,0.0,0.0,0.0,0.0,0.0,0.0,0.0,0.0,0.0,0.0,4.096,4.1064,4.2693,4.3553,4.3707,4.5398,4.6236,4.6286,4.6286,4.6308,4.6307,4.63,0.0,0.0,4.6305,4.6302,4.63,4.63,4.63,4.63,4.63,4.63,4.63,4.631,4.6306,4.6282,4.6237,4.6206,4.6196,0.0,0.0,0.0,4.6012,4.6032,4.6095,4.6163,4.6207,4.6255,4.6259,4.6267,4.6255,4.6215,4.6199,4.6199,4.6199,4.6199,4.6199,4.6199,4.6199,4.6491,4.7326,4.7423,4.7735,4.8573,4.8651,4.8343,4.7505,4.7427,4.7095,4.6258,4.6199,4.6199,4.6199,4.6199,4.6199,4.6199,4.6199,4.6203,4.6203,4.6203,4.619,4.6206,4.619,4.6203,4.6199,4.6199,4.6203,4.6206,4.6198,4.6189,4.6192,4.6192,4.6192,4.6192,4.6192,4.6192,4.6192,4.6192,4.6192,4.6209,0.0,0.0,0.0,0.0,0.0,0.0,0.0,0.0,0.0,0.0,0.0,0.0,0.0,3.576,3.5732,3.5732,0.0,0.0,0.0,0.0,0.0,0.0,0.0,0.0,0.0,4.0898,4.0921,4.1006,4.2166,4.3027,4.3635,4.4801,4.5709,4.6308,4.6308,4.6307,4.6299,4.629,4.6305,4.6305,4.6302,4.63,4.63,4.63,4.63,4.63,4.63,4.63,0.0,0.0,4.626,4.6228,4.6167,4.6115,4.6059,4.5982,4.5939,4.5941,4.5941,4.5941,4.5947,4.5978,4.5994,4.6035,4.607,4.6071,4.6066,4.6075,4.6075,4.6075,4.6075,4.6142,4.6375,4.6936,4.7033,4.7345,4.8202,4.8319,4.8456,4.8768,4.8806,4.867,4.8358,4.8319,4.7969,4.7092,4.7033,4.6784,4.6238,4.6199,4.6199,4.6199,4.6199,4.6199,4.6199,4.6199,4.6203,4.6206,4.6203,4.6199,4.6199,4.6199,4.6199,4.6199,4.6193,4.6196,4.6196,4.6196,4.6196,4.6196,4.6196,4.6196,4.6196,4.6196,4.6196,4.6196,0.0,0.0,0.0,0.0,0.0,0.0,0.0,0.0,0.0,0.0,0.0,0.0,0.0,0.0,3.6581,3.6581,0.0,0.0,0.0,0.0,0.0,0.0,0.0,0.0,0.0,4.0898,4.093,4.1007,4.1864,4.2614,4.3218,4.4396,4.5271,4.5877,4.6168,4.63,4.6308,4.6303,4.63,4.63,4.63,4.63,4.63,4.63,4.63,4.63,4.63,4.6298,0.0,0.0,0.0,4.6157,4.6099,4.5998,4.5885,4.5828,4.5794,4.5807,4.5807,4.5807,4.5807,4.5801,4.5848,4.5899,4.5925,4.5955,4.5978,4.5969,4.5969,4.5969,4.5969,4.628,4.672,4.7349,4.7696,4.8211,4.9091,4.9192,4.9313,4.9605,4.9644,4.9527,4.9235,4.9196,4.8845,4.8008,4.793,4.756,4.6686,4.6647,4.6511,4.6219,4.6199,4.6199,4.6199,4.6199,4.6199,4.6199,4.6199,4.6199,4.6199,4.6199,4.6199,4.6199,4.6199,4.6199,4.6199,4.6199,4.6199,4.6199,4.6199,4.6199,4.6199,4.6199,4.6199,4.6199,0.0,0.0,0.0,0.0,0.0,0.0,0.0,0.0,0.0,3.5755,0.0,0.0,0.0,0.0,0.0,3.8306,0.0,0.0,0.0,0.0,0.0,0.0,0.0,0.0,0.0,4.0907,4.0924,4.1009,4.1841,4.2305,4.2436,4.4138,4.4941,4.5043,4.5883,4.6288,4.63,4.63,4.63,4.63,4.63,4.63,4.63,4.63,4.63,4.63,4.63,4.6294,0.0,4.6211,0.0,0.0,4.6003,4.5848,4.5673,4.5605,4.5582,4.5586,0.0,0.0,0.0,4.5588,4.5648,4.5704,4.5778,4.5847,4.588,4.5893,4.588,4.5899,4.5918,4.6649,4.7255,4.7353,4.8132,4.9039,4.9904,5.0038,5.0342,5.1203,5.13,5.0969,5.0112,5.0034,4.9703,4.8904,4.8845,4.8456,4.7579,4.7501,4.7092,4.6238,4.6199,4.6199,4.6199,4.6199,4.6199,4.6199,4.6199,4.6199,4.6199,4.6199,4.6199,4.6199,4.6199,4.6199,4.6199,4.6199,4.6199,4.6199,4.6199,4.6199,4.6199,4.6199,4.6199,4.6199,0.0,0.0,0.0,0.0,0.0,0.0,3.7095,3.7259,3.7353,0.0,0.0,0.0,3.7868,3.8086,3.8222,3.8222,0.0,0.0,0.0,0.0,0.0,4.0436,4.0745,4.0907,4.0898,4.0956,4.098,4.1009,4.1281,4.1757,4.2416,4.289,4.3786,4.5003,4.5252,4.5716,4.63,4.63,4.63,4.63,4.63,4.63,4.63,4.63,4.63,4.63,0.0,4.6294,4.6282,0.0,4.6157,4.606,0.0,4.568,4.553,4.5485,4.5457,4.5467,4.5467,0.0,0.0,0.0,0.0,0.0,4.5573,4.5635,4.5687,4.5684,4.5684,4.5857,4.6447,4.7301,4.8141,4.8794,4.9227,4.9821,5.0743,5.087,5.0987,5.1276,5.13,5.1206,5.0965,5.095,5.0599,0.0,4.9664,4.9313,4.8475,4.7832,4.7092,4.6238,4.6199,4.6199,4.6199,4.6199,4.6199,4.6199,4.6199,4.6199,4.6199,4.6199,4.6199,4.6199,4.6199,4.6199,4.6199,4.6199,4.6199,4.6199,4.6199,4.6199,4.6199,4.6199,4.6199,4.6297,0.0,0.0,0.0,0.0,0.0,3.7069,3.758,3.7759,3.7874,0.0,0.0,0.0,3.9193,3.927,3.9282,0.0,0.0,0.0,0.0,0.0,4.0264,4.0779,4.0862,4.0907,4.0903,4.0965,4.0996,4.099,4.1074,4.1366,4.1874,0.0,0.0,4.3944,4.4681,4.5285,4.5773,4.6144,4.63,4.63,4.63,4.63,4.63,4.63,4.63,0.0,0.0,0.0,4.6253,4.6177,4.6054,0.0,4.5669,4.554,4.5448,4.537,4.5361,4.5361,4.5361,4.5361,4.5361,4.5361,0.0,0.0,4.5458,4.5495,4.5513,4.5513,4.5513,4.5782,4.6599,4.7491,4.8394,4.9268,4.9815,5.0356,5.1017,5.1138,5.1167,5.12,5.1245,5.1264,5.1258,5.1276,5.1094,5.0587,5.0537,5.0034,4.8865,4.7969,4.7092,4.6238,4.6199,4.6199,4.6199,4.6199,4.6199,4.6199,4.6199,4.6199,4.6199,4.6199,4.6199,4.6199,4.6199,4.6199,4.6199,4.6199,4.6199,4.6199,4.6199,4.6199,4.6199,4.6199,4.6433,4.6803,0.0,0.0,3.6142,3.6383,3.7017,3.757,3.7717,3.7804,3.7916,0.0,3.8935,3.9834,4.0745,4.0984,4.1087,0.0,0.0,0.0,0.0,0.0,4.0953,4.0967,4.0916,4.0903,4.0912,4.0958,4.0995,4.102,4.1078,4.1146,4.1267,0.0,0.0,0.0,4.4307,4.5049,4.5207,4.5968,4.63,4.63,4.63,4.63,4.63,4.63,4.63,4.63,4.6308,4.6258,4.6198,4.6096,4.5894,0.0,4.553,4.5438,4.5388,4.5317,4.5307,0.0,4.5307,4.5307,4.5307,4.5307,4.5338,0.0,4.5398,4.539,4.539,4.539,4.539,4.5659,4.6511,4.7393,4.8257,4.9143,5.0006,5.0673,5.0925,5.1022,5.1069,5.1082,5.1138,5.1173,5.1184,5.1249,5.1278,5.1282,5.1304,5.0615,4.9021,4.8105,4.7248,4.6375,4.6258,4.6199,4.6199,4.6199,4.6199,4.6199,4.6199,4.6199,4.6199,4.6199,4.6199,4.6199,4.6199,4.6199,4.6199,4.6199,4.6199,4.6199,4.6199,4.6199,4.6219,4.6316,4.6823,4.7521,0.0,3.581,3.6348,3.7664,3.806,3.8456,3.9165,3.937,3.9494,3.9652,4.0618,4.1409,4.171,4.2376,0.0,0.0,0.0,0.0,0.0,0.0,4.1873,4.1925,4.1272,4.0931,4.0978,4.1,4.1023,4.1072,4.1093,4.1463,4.2146,0.0,0.0,0.0,4.4854,4.5382,4.6066,4.6222,4.63,4.63,4.63,4.63,4.63,4.63,4.63,4.63,4.6308,4.625,4.617,4.5933,4.5747,4.5593,0.0,4.537,4.5317,4.5307,4.5307,4.5307,4.5307,4.5307,4.5307,4.5307,4.5307,0.0,4.5317,4.5328,4.5319,4.5319,4.5319,4.5557,4.6398,4.7259,4.8122,4.8999,4.9871,5.0513,5.0729,5.0827,5.0874,5.0917,5.1007,5.1056,5.1114,5.113,5.1159,5.1224,5.1273,5.0856,4.982,4.8982,4.8144,4.7267,4.6569,4.6199,4.6199,4.6199,4.6199,4.6199,4.6199,4.6199,4.6199,4.6199,4.6199,4.6199,4.6199,4.6199,4.6199,4.6199,4.6199,4.6199,4.6199,4.6199,4.6297,4.6995,4.7345,4.7696,0.0,3.6554,3.7361,3.8169,3.8693,3.9154,3.9628,3.9762,3.9996,4.0558,4.1666,4.2439,4.2541,4.2973,0.0,0.0,0.0,0.0,0.0,0.0,4.2762,4.2789,4.2408,4.2199,4.2246,4.2284,4.2317,4.2342,4.2375,4.2617,4.3059,4.3052,4.3513,4.4367,4.4816,4.5246,4.5675,4.6124,4.63,4.63,4.63,4.63,4.63,4.63,4.63,4.6298,4.6262,4.6193,4.6075,4.588,4.5685,0.0,4.5438,4.535,4.5307,0.0,4.5307,4.5307,4.5307,4.5307,4.5307,4.5307,0.0,0.0,0.0,4.5307,4.5307,4.5307,4.5307,4.5545,4.6347,4.7207,4.8086,4.8971,4.9794,5.0382,5.0483,5.0615,5.0702,5.0757,5.0799,5.0885,5.0937,5.0976,5.1037,5.1144,5.1189,5.0831,4.9984,4.9575,4.8766,4.7482,4.7038,4.6613,4.6199,4.6199,4.6199,4.6199,4.6199,4.6199,4.6199,4.6208,4.6204,4.6204,4.6154,4.615,4.6146,4.6158,4.6154,4.6154,4.6185,4.6472,4.6897,4.7345,4.8023,4.8869,3.6122,3.7305,3.8357,3.8525,3.9138,3.9658,3.9876,3.9907,4.0285,4.1312,4.246,4.3229,4.3335,4.3566,4.3728,4.3782,0.0,0.0,0.0,4.3742,4.3654,4.3673,4.3558,4.3506,4.3523,4.3568,4.3604,4.3612,4.367,4.3786,4.3948,4.3941,4.4036,4.4231,4.4933,4.5246,4.5304,4.6007,4.63,4.63,4.63,4.63,4.63,4.63,4.63,4.6298,4.6211,4.6103,4.598,4.5834,4.5665,4.5485,4.5419,4.5348,0.0,0.0,0.0,4.5307,4.5307,4.5307,4.5307,0.0,0.0,4.5307,0.0,0.0,0.0,4.5307,4.5307,4.5488,4.6156,4.6978,4.7837,4.8716,4.9538,5.013,5.0283,5.0446,5.0551,5.0562,5.0615,5.0702,5.0748,5.0833,5.0937,5.1043,5.1076,5.0796,5.0151,4.9962,4.9264,4.7903,4.7542,4.7068,4.6427,4.6251,4.6154,4.6154,4.6154,4.6154,4.6154,4.6158,4.6169,4.6169,4.6104,4.6075,4.6075,4.6066,4.6056,4.6066,4.6134,4.668,4.7478,4.7654,4.8673,4.9984,3.696,3.7681,3.8544,3.9326,3.9533,3.9833,4.0566,4.0678,4.1085,4.2204,4.3247,4.3972,4.4232,4.5001,4.5513,4.551,4.5517,4.5544,4.5608,4.4955,4.4572,4.4632,4.3913,4.3524,4.3588,4.3591,4.3624,4.3684,4.3691,4.4097,4.4846,4.4859,4.5265,4.6007,4.6105,4.6144,4.6163,4.6261,4.63,4.63,4.63,4.63,4.63,4.63,4.63,4.6296,4.6228,4.6113,4.598,0.0,4.5621,4.5485,0.0,4.5348,4.5307,4.5307,0.0,0.0,0.0,0.0,0.0,0.0,4.5307,0.0,0.0,0.0,4.5307,4.5307,0.0,4.5326,4.5411,0.0,0.0,4.7807,4.8678,4.948,5.0206,5.0314,5.0348,5.0412,5.0489,5.0553,5.0623,5.073,5.0833,5.0929,5.0986,5.0963,5.0881,5.0196,4.973,4.9522,4.8089,4.727,4.7178,4.6406,4.6017,4.6017,4.6017,4.6017,4.6017,4.6017,4.6012,4.6012,4.6005,4.6014,4.6008,4.596,4.5923,4.5935,4.5997,4.6561,4.7411,4.8194,4.9043,4.9932,3.7793,3.8469,3.9176,3.9533,3.9984,4.0403,4.0741,4.1662,4.2523,4.3118,4.4059,4.4804,4.5075,4.5491,4.5761,4.58,4.5807,4.5834,4.5905,4.5576,0.0,4.5491,4.5142,4.4987,4.5056,4.5085,4.5139,4.5211,4.5214,4.5401,0.0,0.0,4.5948,4.63,4.63,4.63,4.63,4.63,4.63,4.63,4.63,4.63,4.63,4.63,4.6296,4.6288,4.6212,4.6119,4.5991,0.0,4.5673,0.0,0.0,0.0,0.0,4.5307,0.0,0.0,0.0,0.0,0.0,0.0,0.0,0.0,4.5307,0.0,4.5307,0.0,0.0,0.0,0.0,0.0,0.0,0.0,4.8525,4.9366,5.0187,5.0302,5.0314,5.0337,0.0,0.0,5.0478,5.0604,5.0702,5.073,5.0756,5.078,5.0822,5.0542,5.0174,4.9688,4.8548,4.7708,4.7254,4.6374,4.5947,4.5947,4.5947,4.5947,4.5947,4.5929,4.5943,4.5937,4.5867,4.5822,4.5815,4.5759,4.602,4.6476,4.6472,4.7061,4.8042,4.8929,4.977,5.0552,3.8601,3.9176,3.9664,3.989,4.0403,4.096,4.1443,4.2773,4.3812,4.404,4.4733,4.529,4.5566,4.566,4.5739,4.58,4.5814,4.5848,4.5905,4.5917,4.5947,4.5997,4.6002,4.6042,4.6135,4.6186,4.6238,4.6307,4.6306,4.6296,0.0,0.0,4.63,4.63,4.63,4.63,4.63,4.63,4.63,4.63,4.63,4.63,4.63,4.63,4.6294,4.6282,4.6215,4.6126,4.6008,4.5891,4.578,0.0,4.5493,4.5429,4.5399,0.0,0.0,0.0,4.5307,0.0,0.0,0.0,0.0,0.0,0.0,0.0,0.0,0.0,0.0,0.0,0.0,0.0,0.0,0.0,0.0,4.9117,0.0,5.0302,5.0302,0.0,0.0,0.0,0.0,5.0478,5.0551,5.0551,5.0556,5.0586,5.0635,5.0711,5.0477,4.9892,4.9092,4.828,4.7451,4.6588,4.6033,4.5827,4.5827,4.5827,4.5821,4.5819,4.5824,4.5817,4.5692,4.5642,4.5653,4.5821,4.6268,4.6894,4.7299,4.7917,4.8693,4.9366,5.0171,5.0882,3.9383,3.957,3.9852,4.0628,4.0778,4.1367,4.3062,4.4041,4.4668,4.5,4.514,4.531,4.5571,4.5657,4.5739,4.58,4.586,4.5893,4.5905,4.596,4.6008,4.5997,4.6002,4.6071,4.6196,4.6192,4.6222,4.6308,4.6305,4.6296,4.63,0.0,0.0,4.63,4.63,4.63,4.63,4.63,4.63,4.63,4.63,4.63,4.63,0.0,4.6294,4.6282,4.6215,0.0,0.0,4.6011,4.5906,0.0,0.0,0.0,0.0,0.0,0.0,0.0,0.0,0.0,0.0,4.5307,0.0,0.0,0.0,0.0,4.5307,0.0,0.0,0.0,0.0,0.0,0.0,0.0,0.0,0.0,0.0,0.0,5.0302,0.0,0.0,0.0,0.0,5.0379,5.0412,0.0,5.0468,5.0511,5.0511,5.0563,5.0594,5.0575,4.9779,4.8942,4.8076,4.721,4.6383,4.5603,4.5603,4.5603,4.5603,4.5603,4.5603,4.5603,4.5531,4.5513,4.5561,4.635,4.6685,4.6876,4.8487,4.9139,4.9189,4.9356,4.9933,5.0606,4.0328,4.0816,4.1116,4.0854,4.1737,4.2925,4.414,4.46,4.4883,4.5136,4.5269,4.541,4.558,4.5708,4.5788,4.58,4.586,4.5893,4.5905,4.596,4.6008,4.5997,4.6037,4.6104,4.6196,4.6201,4.6228,4.6308,4.6305,4.6296,4.63,4.63,0.0,0.0,4.63,4.63,4.63,4.63,4.63,4.63,4.63,4.63,4.63,0.0,4.6298,4.6294,4.6279,4.6215,0.0,4.6087,4.6002,4.5912,4.5766,4.5637,4.551,4.5438,4.538,4.5367,0.0,0.0,4.5307,4.5307,0.0,0.0,0.0,0.0,0.0,0.0,0.0,0.0,0.0,0.0,0.0,0.0,0.0,0.0,0.0,0.0,5.0302,5.0302,5.0302,5.0302,0.0,0.0,5.0325,5.0325,5.0348,5.0359,5.0359,5.0435,5.0468,5.0468,4.9697,4.8864,4.8048,4.7175,4.6311,4.5476,4.5476,4.5476,4.5476,4.5476,4.5476,4.5476,4.5438,4.5438,4.5496,4.6249,4.6917,4.7548,4.8676,4.9461,4.9931,5.007,5.0294,5.0534,4.1173,4.1892,4.2299,4.1812,4.295,4.4153,4.4807,4.496,4.5076,4.5279,4.541,4.5512,4.5657,4.5758,4.581,4.5821,4.588,4.5912,4.5923,4.5978,4.6,4.6002,4.6066,4.6137,4.6206,4.6194,4.6234,4.6308,4.6304,4.6294,4.63,4.63,0.0,0.0,4.63,4.63,4.63,4.63,4.63,4.63,4.63,4.63,0.0,0.0,4.63,4.63,0.0,4.6253,4.6189,4.6153,4.6093,4.6025,4.5912,4.5786,4.5587,4.5164,4.4997,4.4958,4.4879,4.4859,0.0,4.522,4.5307,0.0,4.5307,0.0,4.5307,0.0,0.0,0.0,0.0,0.0,0.0,0.0,0.0,0.0,0.0,5.0302,0.0,5.0302,5.0302,5.0302,5.0302,5.0302,5.0302,5.0302,5.0302,5.0302,0.0,5.0337,5.0359,5.0359,4.9857,4.9056,4.7926,4.7371,4.6509,4.537,4.537,4.537,4.537,4.537,4.537,4.537,4.535,4.5531,4.5846,4.6645,4.7474,4.8353,4.9194,4.9843,5.0314,5.0393,5.0416,5.0416,4.1911,4.2782,4.3404,4.3484,4.4273,4.4955,4.5084,4.5167,4.5292,4.5485,4.5568,4.5654,4.5792,4.5807,4.5817,4.5893,4.5893,4.5943,4.605,4.6064,4.6079,4.6138,4.6144,4.6204,4.6261,4.6228,4.6241,4.6307,4.6299,4.6309,4.63,4.63,0.0,0.0,4.63,4.63,4.63,4.63,4.63,4.63,4.63,4.63,4.63,4.63,4.63,4.63,4.631,4.6258,4.6203,4.6193,4.6158,4.6089,4.603,4.588,4.5561,4.467,4.428,4.4135,4.4059,4.4019,4.4208,4.5029,4.5269,0.0,0.0,0.0,4.5307,0.0,0.0,0.0,0.0,0.0,0.0,0.0,0.0,0.0,0.0,0.0,5.0302,0.0,5.0302,5.0302,5.0302,5.0302,5.0302,5.0302,5.0302,5.0302,0.0,5.0302,5.0302,5.0302,5.0302,4.95,4.7807,4.7788,4.6959,4.5307,4.5307,4.5307,4.5307,4.5307,4.5307,4.5307,4.5307,4.5755,4.6577,4.7444,4.8315,4.9186,4.9996,5.0302,5.0302,5.0302,5.0302,5.0302,4.2985,4.3863,4.4592,4.4652,4.487,4.5106,4.5291,4.541,4.5522,4.5573,4.5676,4.575,4.58,4.5791,4.5826,4.5893,4.5893,4.6195,4.6923,4.6971,4.727,4.7893,4.7388,4.7097,4.7156,4.6577,4.6286,4.6307,4.6299,4.6309,4.63,4.63,4.63,0.0,4.63,4.63,4.63,4.63,4.63,4.63,4.63,4.63,4.63,0.0,4.63,4.63,4.6298,4.629,4.6279,4.6272,4.6231,4.6157,4.6091,4.557,4.4935,4.4634,4.3994,4.3368,4.323,4.3637,4.4114,4.4284,4.4819,4.5307,0.0,0.0,0.0,0.0,0.0,0.0,0.0,0.0,0.0,0.0,0.0,0.0,0.0,0.0,0.0,5.0302,5.0302,5.0302,5.0302,5.0302,5.0302,5.0302,5.0302,5.0302,5.0302,5.0302,5.0302,5.0302,5.0302,4.95,4.7807,4.7788,4.6959,4.5307,4.5307,4.5307,4.5307,4.5307,4.5307,4.5307,4.5307,4.5755,4.6577,4.7444,4.8315,4.9186,4.9996,5.0302,5.0302,5.0302,5.0302,5.0302,4.3931,4.458,4.5084,4.5216,4.5279,4.5361,4.5476,4.5593,4.5687,4.5692,4.5754,4.5791,4.5791,4.5826,4.6015,4.6442,4.6493,4.6892,4.7814,4.787,4.8086,4.8579,4.8193,4.7824,4.7509,4.7059,0.0,4.6302,4.6294,4.6305,4.63,4.63,4.63,4.63,4.63,4.63,4.63,4.63,4.63,4.63,4.63,4.63,0.0,4.63,4.63,4.63,4.63,4.6294,4.6303,4.6303,4.6253,4.6192,4.6164,4.5757,4.5142,4.4339,4.3672,4.3069,4.2599,4.2774,4.3253,4.3925,4.4421,4.4879,4.5262,4.5317,4.5307,0.0,4.5307,4.5307,0.0,0.0,0.0,0.0,0.0,0.0,0.0,0.0,0.0,0.0,5.0302,0.0,5.0302,5.0302,5.0302,5.0302,5.0302,5.0302,0.0,5.0302,5.0302,5.0302,5.0302,4.95,4.7807,4.7788,4.6959,4.5307,4.5307,4.5307,4.5307,4.5307,4.5307,4.5307,4.5307,4.5965,4.7111,4.7597,4.8525,4.9671,5.013,5.0302,5.0302,5.0302,5.0302,5.0302,4.4701,4.5014,4.5216,4.539,4.5531,4.5659,4.5774,4.5796,4.5795,4.5795,4.5902,4.5962,4.5988,4.6131,4.6552,4.7327,4.7429,4.7847,4.8716,4.878,4.8835,4.8944,4.89,4.8496,4.7687,4.7575,4.7107,0.0,0.0,4.63,4.63,4.63,4.63,4.63,4.63,4.63,4.63,4.63,4.63,4.63,4.63,4.63,4.63,4.63,4.63,4.63,4.63,4.6294,4.6306,4.6306,4.626,4.6211,4.6215,4.6092,4.5652,4.4132,4.3505,4.3115,4.2183,4.2042,4.2467,4.3735,4.4173,4.449,4.5236,4.5369,4.5298,4.5317,4.5317,4.5307,0.0,0.0,0.0,0.0,0.0,0.0,0.0,0.0,0.0,0.0,0.0,0.0,0.0,5.0302,5.0302,5.0302,5.0302,0.0,0.0,0.0,5.0302,5.0302,5.0302,4.95,4.7807,4.7788,4.6959,4.5307,4.5307,4.5307,4.5307,4.5307,4.5307,4.5307,4.5411,4.6347,4.7807,4.7922,4.8888,5.0302,5.0302,5.0302,5.0302,5.0302,5.0302,5.0302,4.5063,4.5282,4.5457,4.555,4.5679,4.6009,4.6723,4.6247,4.5793,4.5793,4.6438,4.6897,4.6951,4.7616,4.8128,4.8347,4.8378,4.8746,4.9609,4.9671,0.0,5.0786,5.015,4.9404,4.8582,4.7929,4.7164,0.0,0.0,4.63,4.63,4.63,4.63,4.63,4.63,4.63,4.63,4.63,0.0,4.63,4.63,4.63,4.63,4.63,4.63,4.63,4.63,4.63,4.6298,4.6298,4.6296,4.6275,4.6282,4.5789,4.5116,4.4757,4.4082,4.3261,4.2316,4.3026,4.3914,4.342,4.4322,4.5349,4.5466,4.5438,4.538,4.5379,4.5369,4.5378,4.5307,0.0,0.0,0.0,0.0,0.0,0.0,0.0,0.0,0.0,0.0,5.0302,0.0,0.0,0.0,5.0302,5.0302,5.0302,0.0,0.0,5.0302,0.0,5.0302,4.95,0.0,0.0,4.6959,4.5307,4.5307,4.5307,4.5307,4.5307,4.5307,4.5345,4.6003,4.6863,4.7865,4.8582,4.9442,5.0302,5.0302,5.0302,5.0302,5.0302,5.0302,5.0302,4.5362,4.5512,4.5616,4.57,4.6162,4.6665,4.7085,4.7184,4.719,4.7208,4.7571,4.7843,4.7863,4.8283,4.8735,4.918,4.925,4.9643,5.0531,5.0572,5.0792,5.1281,5.0935,5.033,4.949,4.865,4.7801,4.697,0.0,0.0,4.63,4.63,4.63,4.63,4.63,4.63,4.63,0.0,0.0,4.63,4.63,4.63,4.63,4.63,4.63,4.63,4.63,4.63,4.63,4.63,4.63,4.63,4.6294,4.6017,4.5581,4.5082,4.4604,4.4023,4.3117,4.3413,4.397,4.3936,4.4483,4.5148,4.5568,4.5571,4.5503,4.5495,4.5448,4.538,4.5317,4.5307,0.0,0.0,0.0,0.0,0.0,0.0,4.9232,0.0,0.0,0.0,0.0,0.0,0.0,0.0,5.0302,5.0302,5.0302,0.0,5.0302,0.0,0.0,0.0,4.7807,0.0,4.6519,4.5307,4.5307,4.5307,4.5307,4.5307,4.5307,4.5345,4.6156,4.6997,4.7903,4.9194,4.9939,5.0302,5.0302,5.0302,5.0302,5.0302,5.0302,5.0302,4.6166,4.624,4.629,4.6362,4.6997,4.754,4.7721,4.8341,4.8703,4.8521,4.8664,4.8781,4.8774,4.8987,4.9393,5.0046,5.0148,5.0473,5.1161,5.1215,5.1245,5.1327,5.1377,5.0991,5.0117,4.9425,4.8592,0.0,0.0,0.0,0.0,0.0,0.0,0.0,0.0,0.0,0.0,0.0,4.63,4.63,4.63,4.63,4.63,4.63,4.63,4.63,4.63,4.63,4.63,4.63,4.63,4.63,4.63,4.6294,4.6171,4.549,4.5241,4.5003,4.4133,4.398,4.4182,4.4613,4.4763,4.5009,4.5686,4.5745,4.5653,4.5643,4.554,4.5429,4.5339,4.5328,0.0,0.0,0.0,0.0,0.0,0.0,4.8678,0.0,0.0,0.0,5.0283,0.0,0.0,0.0,0.0,5.0302,5.0302,5.0302,5.0302,0.0,0.0,4.8678,4.7807,0.0,4.6099,4.5307,4.5307,4.5307,4.5307,4.5307,4.5307,4.5364,4.6347,4.7379,4.8418,4.9767,5.0302,5.0302,5.0302,5.0302,5.0302,5.0302,5.0302,5.0302,4.8104,4.8145,4.8165,4.8244,4.8328,4.8639,4.9433,4.9621,4.9401,4.8606,4.9181,4.9679,4.9678,5.0396,5.0914,5.106,5.107,5.1102,5.1186,5.1253,5.1327,5.1388,5.1396,5.0996,5.011,5.0026,4.9197,0.0,0.0,4.7061,4.63,4.63,0.0,0.0,0.0,0.0,0.0,4.63,4.63,4.63,4.63,4.63,4.63,4.63,4.63,4.63,4.63,4.63,4.63,4.63,4.63,4.63,4.63,4.63,4.628,4.6202,4.6175,4.5989,4.5111,4.5404,4.5758,4.4982,4.5321,4.5871,4.5958,4.5917,4.5848,4.58,4.5657,4.5531,4.541,4.539,4.5359,0.0,0.0,0.0,0.0,0.0,4.7322,4.8919,0.0,0.0,5.0225,5.0302,0.0,0.0,5.0302,5.0302,5.0302,5.0302,5.0302,5.0302,4.9519,4.8678,4.7807,4.694,4.6099,4.5307,4.5307,4.5307,4.5307,4.5307,4.5307,4.5403,4.6997,4.859,5.0092,5.0245,5.0302,5.0302,5.0302,5.0302,5.0302,5.0302,5.0302,5.0302,4.8438,4.8483,4.8522,4.8554,4.898,0.0,0.0,5.0305,5.0518,5.0176,5.0428,5.0648,5.0641,5.0951,5.1177,5.1211,5.12,5.122,5.1253,5.133,5.1371,5.1396,5.1406,5.1246,5.0886,5.037,4.9778,0.0,0.0,4.7411,4.7061,4.6534,0.0,0.0,0.0,4.63,4.63,4.63,4.63,4.63,4.63,4.63,4.63,4.63,4.63,4.63,4.63,4.63,4.63,4.63,4.63,4.63,4.63,4.63,4.63,4.63,4.6298,4.6216,4.5867,4.6011,4.617,4.5788,4.5917,4.6119,4.6119,4.6075,4.6007,4.5925,4.5775,4.564,4.554,4.5495,4.5438,4.537,0.0,0.0,0.0,0.0,0.0,4.8226,0.0,4.9423,5.0225,5.0302,0.0,0.0,0.0,5.0302,5.0302,5.0302,5.0302,5.0302,0.0,4.8162,4.7788,4.6462,4.5621,4.5307,4.5307,4.5307,4.5326,4.5793,4.6596,4.7619,4.8296,4.9232,5.0302,5.0302,5.0302,5.0302,5.0302,5.0302,5.0302,5.0302,5.0302,5.0302,4.9285,0.0,4.9367,0.0,4.987,5.027,5.027,5.0794,5.1202,5.1194,5.1194,5.1194,5.1194,5.1194,5.1211,5.1234,5.1225,5.1253,5.133,5.1371,5.1397,5.1406,5.1402,0.0,5.1405,5.0793,5.0358,5.0104,4.8913,4.8074,4.7586,4.671,0.0,0.0,4.63,4.63,4.63,4.63,4.63,4.63,4.63,4.63,4.63,4.63,4.63,4.63,4.63,4.63,4.63,4.63,4.63,4.63,4.63,4.63,4.63,4.63,4.63,4.63,4.63,4.6296,4.6308,4.6306,4.6253,4.6217,4.6192,4.6164,4.6107,4.6031,4.59,4.5768,4.5665,4.5601,4.554,4.5438,0.0,0.0,0.0,4.5888,0.0,4.7761,4.8398,4.9159,5.0206,5.0302,0.0,0.0,0.0,5.0302,5.0302,5.0302,0.0,0.0,0.0,0.0,4.7788,4.6137,4.5307,4.5307,4.5545,4.564,4.5679,4.6519,4.7685,4.911,4.911,4.9557,5.0302,5.0302,5.0302,5.0302,5.0302,5.0302,5.0302,5.0302,5.0302,5.0302,5.1157,5.1163,5.1163,5.1163,5.1183,5.1183,5.1183,5.1183,5.1194,5.1208,5.1189,5.1189,5.1189,5.1189,5.1234,5.1287,5.1308,5.1333,5.1392,5.1397,5.1406,0.0,0.0,5.1405,5.1394,5.1394,5.0965,5.0104,0.0,0.0,4.7586,0.0,4.63,4.63,4.63,4.63,4.63,4.63,4.63,4.63,4.63,4.63,4.63,4.63,4.63,4.63,4.63,4.63,4.63,4.63,4.63,4.63,4.63,4.63,4.63,4.63,4.63,4.63,4.63,4.63,4.6298,4.6308,4.6303,4.6282,4.6231,4.6206,4.6176,4.6103,4.6035,4.5958,4.5815,4.5742,4.564,4.5522,0.0,0.0,0.0,4.54,0.0,4.7695,4.7914,4.8542,5.013,5.0302,0.0,0.0,0.0,0.0,0.0,0.0,0.0,5.0302,4.8678,0.0,4.7788,4.6137,4.5307,4.5307,4.6118,4.65,4.6519,4.7398,4.8277,4.911,4.911,4.9557,5.0302,5.0302,5.0302,5.0302,5.0302,5.0302,5.0302,5.0302,5.0302,5.0302,5.1196,5.1202,5.1202,5.1202,5.12,5.1197,5.1197,5.1249,5.1274,5.1264,5.1276,5.1261,5.1273,5.1269,5.1288,0.0,5.1333,5.1382,0.0,5.1406,5.1402,5.1393,5.1405,5.1398,5.1394,5.1394,5.1258,5.0984,0.0,0.0,0.0,4.7569,4.7198,4.7159,4.6573,4.63,4.63,4.63,4.63,4.63,4.63,4.63,4.63,4.63,4.63,4.63,4.63,4.63,4.63,4.63,4.63,4.63,4.63,4.63,4.63,4.63,4.63,4.63,4.63,4.63,4.63,4.6296,4.6296,4.6294,4.6273,4.6264,4.625,4.6177,4.6119,4.6046,4.5944,4.5874,4.5791,4.5668,4.5629,0.0,4.5531,0.0,4.5889,4.7011,4.7592,4.8315,4.9384,4.9981,0.0,0.0,0.0,0.0,0.0,0.0,0.0,0.0,4.8678,0.0,4.8678,4.6978,4.6424,4.7016,4.7264,4.7704,4.8277,4.8563,4.9137,4.992,4.992,5.0054,5.0302,5.0302,5.0302,5.0302,5.0302,5.0302,5.0302,5.0302,5.0302,5.0302,5.1202,5.1202,5.1202,5.12,5.1208,5.1215,5.1235,5.1272,5.13,5.1296,5.1304,5.1308,5.1325,5.134,0.0,5.1347,5.137,5.1403,5.1406,5.1402,5.1393,5.1405,5.1398,5.1394,5.1394,5.1394,0.0,5.1394,5.0534,4.9829,4.9261,4.8439,4.8047,4.8023,4.7479,4.7244,4.7244,4.7244,4.7247,4.7231,4.7231,4.7057,4.6788,4.6788,4.6593,4.63,4.63,4.63,4.63,4.63,4.63,4.63,4.63,4.63,4.63,4.63,4.63,4.63,4.63,4.63,4.63,4.63,4.63,4.63,4.63,4.6296,4.6286,4.6245,4.6206,4.6153,4.6041,4.598,4.5996,4.6194,4.6185,4.6234,4.6499,0.0,4.632,0.0,0.0,0.0,0.0,4.982,5.0302,0.0,0.0,0.0,0.0,0.0,5.0302,5.0302,4.8984,4.8544,4.9091,4.7704,4.7253,4.7788,4.8143,4.8735,4.9538,4.9538,4.9824,5.0302,5.0302,5.0302,5.0302,5.0302,5.0302,5.0302,5.0302,5.0302,5.0302,5.0302,5.0302,5.0302,5.1202,5.1202,5.1194,0.0,5.1201,5.1234,5.1281,5.1307,5.1313,5.1303,5.1314,5.1327,5.1398,5.1405,5.1406,5.1402,0.0,0.0,5.1398,5.1393,5.1405,5.1394,5.1394,5.1394,5.1394,5.1394,5.1394,5.1392,5.0592,5.0196,5.0165,4.9306,4.8889,4.8895,4.8836,4.8797,4.8797,4.8797,4.8806,4.8796,4.8796,4.8357,4.7684,4.7684,4.7176,4.6475,4.6475,4.6475,4.6475,4.6475,4.6475,4.6475,4.6475,4.6436,4.6378,4.6319,4.63,4.63,4.63,4.63,4.63,4.63,4.63,4.63,4.63,4.63,4.6298,4.6308,4.6306,4.625,4.6126,4.6095,4.6308,4.7001,4.7047,4.7255,4.799,4.7471,4.7241,0.0,0.0,0.0,4.9045,4.982,5.0302,0.0,0.0,0.0,0.0,0.0,5.0302,5.0302,4.9519,4.9129,4.9186,4.8315,4.7922,4.7979,4.8793,4.9576,5.0302,5.0302,5.0302,5.0302,5.0302,5.0302,5.0302,5.0302,5.0302,5.0302,5.0302,5.0302,5.0302,5.0302,5.034,5.0397,0.0,0.0,5.1214,5.1264,5.1288,5.1284,5.13,5.1332,5.137,5.1379,5.1385,5.1387,5.1406,5.1402,5.1397,5.14,5.1398,5.1395,5.1393,5.1403,5.1396,5.1394,5.1394,5.1394,5.1394,5.1394,5.139,5.1401,5.1186,5.1082,5.1068,5.0191,4.9798,4.9756,4.9093,4.8797,4.8797,4.8797,4.88,4.8803,4.8803,4.8694,4.853,4.853,4.84,4.8213,4.8213,4.8213,4.8213,4.8213,4.8213,4.8213,4.8213,4.7783,4.7159,4.6495,4.63,4.63,4.63,4.63,4.63,4.63,4.63,4.63,4.63,4.63,4.63,4.6298,4.629,4.6275,4.618,4.6617,4.7015,4.7094,4.7596,4.7992,4.8095,4.7952,4.7885,0.0,4.8576,4.8975,4.9156,4.9862,5.0302,0.0,0.0,5.0302,5.0302,5.0302,5.0302,5.0302,4.9519,4.9396,5.0015,4.9194,4.9098,4.971,4.992,5.0111,5.0302,5.0302,5.0302,5.0302,5.0302,5.0302,5.0302,5.0302,5.0302,5.0302,5.0302,5.0302,5.0302,5.0302,5.0722,5.1295,5.124,5.1259,5.1263,5.1285,5.133,5.1345,5.1346,5.1381,5.1406,5.1406,5.1403,5.14,5.14,5.1391,5.1403,5.1403,5.1403,5.1403,5.1403,5.1398,5.1394,5.1394,5.1394,5.1394,5.1394,5.141,5.1401,5.1408,5.1408,5.138,5.1346,5.0878,5.0657,5.0631,5.0141,4.9946,4.9946,4.9946,4.9933,4.9939,4.9939,4.9714,4.9396,4.9396,4.915,4.881,4.881,4.8794,4.8798,4.8798,4.8798,4.8798,4.8798,4.8505,4.8057,4.7588,4.6905,4.63,4.63,4.63,4.63,4.63,4.63,4.63,4.63,4.63,4.63,4.63,4.6292,4.6394,4.6735,4.7073,4.7512,4.8172,4.8597,4.8945,4.9259,4.8952,4.8682,4.8682,4.8989,4.9205,4.9205,4.9873,5.0302,5.0302,5.0302,0.0,5.0302,5.0302,5.0302,5.0302,4.9882,4.9862,5.0302,4.9862,4.9862,5.0302,5.0302,5.0302,5.0302,5.0302,5.0302,5.0302,5.0302,5.0302,5.0302,5.0302,5.0302,5.0302,5.0302,5.055,5.0894,5.0894,5.1429,5.2155,5.1295,5.1304,5.1349,5.1481,5.1554,5.1633,5.1776,5.1796,5.1792,5.1787,5.1782,5.1797,5.1797,5.179,5.1785,5.1785,5.1783,5.1685,5.1414,5.1394,5.1394,5.1394,5.1392,5.1392,5.1392,5.1401,5.1408,5.1372,5.1372,5.1362,5.1307,5.1307,5.13,5.13,5.13,5.13,5.13,5.13,5.1292,5.1307,5.1307,5.0888,5.028,5.028,4.9839,4.9186,4.9189,4.9196,4.9187,4.9189,4.9189,4.9189,4.9189,4.9091,4.8993,4.8993,4.79,4.6671,4.6671,4.6593,4.6495,4.6495,4.6397,4.63,4.63,4.6397,4.6495,4.6474,4.6583,4.6879,4.7561,4.7683,4.8122,4.9463,4.9682,4.9919,5.0606,0.0,4.9586,4.9577,4.9469,4.9397,4.9386,4.9939,5.0302,5.0302,5.0302,5.0302,5.0302,5.0302,5.0302,5.0302,5.0302,5.0302,5.0302,5.0302,5.0302,5.0302,5.0302,5.0302,5.0302,5.0302,5.0302,5.0302,5.0302,5.0302,5.0302,5.0302,5.0378,5.0512,5.0512,5.1028,5.1792,5.1792,5.2308,5.2996,5.1297,5.1308,5.1546,5.2347,5.2496,5.2754,5.3472,5.3603,5.3596,5.3606,5.3604,5.3602,5.3602,5.36,5.36,5.36,5.3609,5.2965,5.1492,5.1394,5.1394,5.1394,5.1406,5.1401,5.1401,5.1405,5.1372,5.1317,5.1317,5.1307,5.1304,5.1304,5.1304,5.13,5.13,5.13,5.13,5.13,5.13,5.1304,5.1304,5.1222,5.1103,5.1103,5.1054,5.101,5.1004,5.1008,5.0991,5.1002,5.1004,5.1004,5.1004,5.0496,4.9909,4.9909,4.9189,4.8408,4.8408,4.792,4.7391,4.7391,4.6846,4.63,4.63,4.6866,4.7389,4.7322,4.7903,4.8432,4.8503,4.9007,4.9452,4.9594,5.0115,5.0557,5.0673,0.0,5.0481,5.0431,5.035,5.0287,5.0213,5.026,5.0302,5.0302,5.0302,5.0302,5.0302,5.0302,5.0302,5.0302,5.0302,5.0302,5.0302,5.0302,5.0302,5.0302,5.0302,5.0302,5.0302,5.0302,5.0302,5.0302,5.0302,5.0302,5.0302,5.0302,5.0741,5.141,5.141,5.1907,5.2614,5.2614,5.3148,5.3894,5.1958,5.2055,5.2339,5.3242,5.3397,5.3547,5.3932,5.4003,5.3996,5.399,5.4003,5.3999,5.3999,5.3972,5.395,5.395,5.3942,5.361,5.2796,5.2757,5.2757,5.2757,5.2306,5.1832,5.1355,5.1346,5.1333,5.1296,5.1296,5.1289,5.13,5.13,5.13,5.13,5.13,5.13,5.13,5.13,5.13,5.13,5.13,5.1304,5.1296,5.1296,5.1326,5.1343,5.1352,5.1366,5.1399,5.1403,5.141,5.1394,5.1394,5.1121,5.0809,5.0809,4.9852,4.8798,4.8798,4.8525,4.8252,4.8252,4.7939,4.7647,4.7647,4.7953,4.824,4.8216,4.8482,4.8869,4.927,4.9559,4.9852,5.0201,5.0505,0.0,5.0693,5.0712,5.0682,5.0603,5.0532,5.0478,5.0412,5.0337,5.0302,5.0302,5.0302,5.0302,5.0302,5.0302,5.0302,5.0302,5.0302,5.0302,5.0302,5.0302,5.0302,5.0302,5.0302,5.0302,5.0302,5.0302,5.0302,5.034,5.0799,5.1009,5.1028,5.1467,5.1888,5.2251,5.2251,5.2766,5.3492,5.3492,5.4046,5.4811,5.2554,5.2851,5.328,5.4155,5.4282,5.435,5.4545,5.4574,5.4587,5.4587,5.4577,5.4588,5.4588,5.4537,5.4492,5.4492,5.4509,5.4505,5.4505,5.4502,5.4326,5.3927,5.326,5.2588,5.1931,5.1908,5.1803,5.1593,5.1593,5.1495,5.13,5.13,5.13,5.13,5.13,5.13,5.132,5.1515,5.1593,5.1612,5.1826,5.1904,5.1904,5.1904,5.1896,5.1892,5.1895,5.1937,5.1979,5.2001,5.1874,5.1707,5.1707,5.155,5.1394,5.1394,5.0457,4.9403,4.9403,4.9267,4.9091,4.9091,4.8954,4.8798,4.8794,4.8962,4.9106,4.9073,4.918,4.9459,5.0048,5.0054,5.0144,5.0686,0.0,5.0692,5.0693,5.0712,5.0663,5.0593,5.0532,5.0468,5.0371,5.0325,5.0302,5.0302,5.0302,5.0302,5.0302,5.0302,5.0302,5.0302,5.0302,5.0302,5.0302,5.0302,5.0302,5.0302,5.0302,5.0417,5.0608,5.0608,5.0703,5.0913,5.1601,5.1888,5.1926,5.2556,5.2919,5.3091,5.3091,5.3626,5.4409,5.4409,5.483,5.5403,5.2694,5.3352,5.4183,5.5041,5.5142,5.5379,5.6199,5.6322,5.6312,5.6312,5.6329,5.6329,5.6329,5.6309,5.6306,5.6306,5.6312,5.6301,5.6301,5.6305,5.5592,5.3962,5.3836,5.3779,5.3716,5.3716,5.3307,5.2508,5.2508,5.2099,5.13,5.13,5.13,5.13,5.13,5.13,5.1359,5.2158,5.2508,5.2567,5.3385,5.3716,5.3716,5.3716,5.3716,5.3701,5.3701,5.3702,5.3721,5.3791,5.3277,5.2607,5.2607,5.2058,5.1394,5.1394,5.1316,5.1219,5.1219,5.0614,5.0007,5.0007,4.9403,4.8796,4.8803,4.9425,4.9995,4.9925,5.049,5.0994,5.0939,5.0817,5.072,5.07,0.0,0.0,5.0712,5.0712,5.0653,5.0521,5.05,5.0457,5.0314,5.0302,5.0302,5.0302,5.0302,5.0302,5.0302,5.0302,5.0302,5.0302,5.0302,5.0302,5.0302,5.0302,5.0302,5.0302,5.0302,5.0722,5.1493,5.1493,5.1907,5.2614,5.2671,5.2709,5.2709,5.2785,5.3282,5.4008,5.4008,5.4543,5.5307,5.5307,5.5345,5.5403,5.4057,5.4511,5.5028,5.5884,5.6012,5.6124,5.6452,5.6508,5.6501,5.6501,5.6491,5.6503,5.6503,5.6496,5.6508,5.6508,5.65,5.6496,5.6496,5.6492,5.5965,5.4769,5.4703,5.4445,5.3911,5.3907,5.3732,5.3405,5.3405,5.3249,5.2918,5.2918,5.2918,5.2918,5.2918,5.2918,5.2937,5.3268,5.3405,5.3444,5.3771,5.3907,5.3907,5.3907,5.3907,5.3892,5.39,5.3907,5.3894,5.3936,5.376,5.3502,5.3502,5.3288,5.2917,5.2351,5.221,5.2086,5.154,5.1154,5.0904,5.0918,5.0662,5.0403,5.036,5.0573,5.0755,5.0709,5.0884,5.1037,5.0894,5.0797,5.0738,5.0702,0.0,5.0712,5.0712,5.0653,5.0603,5.0511,5.0468,5.0412,5.0314,5.0302,5.0302,5.0302,5.0302,5.0302,5.0302,5.0302,5.0302,5.0302,5.0302,5.0302,5.0302,5.0302,5.0569,5.1123,5.1123,5.1544,5.2346,5.2346,5.2499,5.2824,5.3359,5.3607,5.3645,5.4199,5.4619,5.4906,5.4906,5.5116,5.5403,5.5403,5.5403,5.5403,5.4978,5.5418,5.5802,5.6404,5.6498,5.6494,5.6494,5.651,5.6507,5.6507,5.6496,5.6504,5.6504,5.6496,5.6507,5.6507,5.6507,5.6507,5.6507,5.6507,5.6234,5.5626,5.5606,5.5333,5.473,5.473,5.4574,5.4316,5.4316,5.416,5.3907,5.3907,5.3907,5.3907,5.3907,5.3907,5.3927,5.418,5.4316,5.4336,5.4613,5.473,5.473,5.473,5.473,5.473,5.473,5.4714,5.4723,5.4726,5.4571,5.4377,5.4398,5.4223,5.3886,5.3257,5.3072,5.2941,5.2359,5.2164,5.2027,5.1503,5.1366,5.1355,5.1277,5.1217,5.1147,5.1072,5.1004,5.0906,5.0797,5.0738,5.0702,5.0693,5.0712,5.0712,5.0712,5.0633,5.0582,5.0511,5.0446,5.0359,5.0302,5.0302,5.0302,5.0302,5.0302,5.0302,5.0302,5.0302,5.0436,5.0703,5.0703,5.0837,5.1085,5.0837,5.1142,5.1983,5.1983,5.2403,5.3206,5.3206,5.3359,5.3645,5.4256,5.4505,5.4543,5.5154,5.5403,5.5403,5.5403,5.5403,5.5403,5.5403,5.5403,5.5403,5.5217,5.5916,5.6501,5.6501,5.6507,5.6492,5.6492,5.65,5.6507,5.6507,5.6507,5.6507,5.6507,5.6507,5.6507,5.6507,5.6507,5.6507,5.6507,5.6507,5.6507,5.6507,5.6507,5.6507,5.6507,5.6507,5.6074,5.5212,5.5212,5.4764,5.3927,5.3927,5.3927,5.3927,5.3927,5.3927,5.3985,5.4842,5.5212,5.529,5.6152,5.6507,5.6507,5.6507,5.6507,5.6507,5.6507,5.65,5.6496,5.6494,5.5929,5.5223,5.5296,5.4723,5.4006,5.393,5.3914,5.3915,5.3896,5.3844,5.3394,5.1728,5.131,5.1296,5.1225,5.1152,5.1078,5.1015,5.0879,5.0769,5.072,5.0702,5.0712,5.0712,5.0712,5.0712,5.0712,5.0633,5.0582,5.0511,5.0446,5.0359,5.0302,5.0302,5.0302,5.0302,5.0302,5.0302,5.0302,5.0302,5.0703,5.157,5.1608,5.2002,5.2805,5.2021,5.2021,5.2805,5.2805,5.3263,5.4104,5.4104,5.4581,5.5403,5.5403,5.5403,5.5403,5.5403,5.5403,5.5403,5.5403,5.5403,5.5403,5.5403,5.5403,5.5403,5.5981,5.6328,5.6504,5.6504,5.65,5.6496,5.6496,5.6511,5.6507,5.6507,5.6507,5.6507,5.6507,5.6507,5.6507,5.6507,5.6507,5.6507,5.6507,5.6507,5.6507,5.6507,5.6507,5.6507,5.6507,5.6507,5.637,5.6113,5.6113,5.5976,5.5723,5.5723,5.5723,5.5723,5.5723,5.5723,5.5743,5.5996,5.6113,5.6132,5.6409,5.6507,5.6507,5.6507,5.6507,5.6507,5.6507,5.65,5.6496,5.65,5.6338,5.6121,5.6131,5.5968,5.5626,5.4948,5.4703,5.4524,5.3874,5.368,5.3557,5.3166,5.2558,5.205,5.1994,5.1444,5.0947,5.0866,5.0791,5.0729,5.0702,5.0702,5.0712,5.0712,5.0712,5.0673,5.0633,5.0563,5.05,5.0446,5.0359,5.0314,5.0302,5.0302,5.0302,5.0302,5.0302,5.0569,5.1181,5.1219,5.1601,5.2422,5.2442,5.2843,5.3702,5.2862,5.2862,5.3702,5.3702,5.418,5.5021,5.5021,5.5154,5.5403,5.5403,5.5403,5.5403,5.5403,5.5403,5.5403,5.5403,5.5403,5.5403,5.5403,5.5403,5.5403,5.639,5.6507,5.6507,5.6507,5.6507,5.6507,5.6507,5.6507,5.6507,5.6507,5.6507,5.6507,5.6507,5.6507,5.6507,5.6507,5.6507,5.6507,5.6507,5.6507,5.6507,5.6507,5.6507,5.6507,5.6507,5.6507,5.6507,5.6507,5.6507,5.6507,5.6507,5.6507,5.6507,5.6507,5.6507,5.6507,5.6507,5.6507,5.6507,5.6507,5.6507,5.6507,5.6507,5.6507,5.6479,5.6455,5.6455,5.6455,5.6459,5.6468,5.6465,5.6457,5.6429,5.6411,5.6295,5.5714,5.5468,5.5268,5.4691,5.4524,5.4521,5.4613,5.3728,5.2827,5.2755,5.2271,5.1829,5.1806,5.1751,5.1703,5.1693,5.1683,5.1683,5.1683,5.1663,5.1643,5.1582,5.1508,5.1422,5.1389,5.1331,5.1162,5.0856,5.1104,5.1295,5.1295,5.1295,5.1525,5.2059,5.2079,5.2461,5.3282,5.3301,5.3722,5.4619,5.4085,5.4085,5.4619,5.4619,5.4887,5.5403,5.5403,5.5403,5.5403,5.5403,5.5403,5.5403,5.5403,5.5403,5.5403,5.5403,5.5403,5.5403,5.5403,5.5403,5.5403,5.6507,5.6507,5.6507,5.6507,5.6507,5.6507,5.6507,5.6507,5.6507,5.6507,5.6507,5.6507,5.6507,5.6507,5.6507,5.6507,5.6507,5.6507,5.6507,5.6507,5.6507,5.6507,5.6483,5.6522,5.6619,5.6522,5.6483,5.6483,5.6498,5.6498,5.6479,5.6479,5.6498,5.6479,5.6479,5.6483,5.6483,5.6483,5.6483,5.6483,5.6483,5.6483,5.6498,5.6576,5.6558,5.6514,5.6573,5.6611,5.6595,5.6519,5.6446,5.6363,5.6289,5.6269,5.6252,5.6179,5.6087,5.5985,5.5977,5.5937,5.5884,5.5875,5.477,5.3652,5.3527,5.3396,5.3282,5.3282,5.3233,5.3203,5.3203,5.3203,5.3203,5.3192,5.314,5.3108,5.3078,5.2978,5.2889,5.2889,5.2841,5.2499,5.1792,5.2365,5.2805,5.2805,5.2805,5.2824,5.29,5.2919,5.332,5.4199,5.4218,5.46,5.5403,5.5403,5.5403,5.5403,5.5403,5.5403,5.5403,5.5403,5.5403,5.5403,5.5403,5.5403,5.5403,5.5403,5.5403,5.5403,5.5403,5.5403,5.5403,5.5403,5.5403,5.5403,5.6507,5.6507,5.6507,5.6507,5.6507,5.6507,5.6507,5.6507,5.6507,5.6507,5.6507,5.6507,5.6507,5.6507,5.6507,5.6507,5.6507,5.6507,5.6507,5.6507,5.6507,5.6507,5.645,5.6748,5.7425,5.6768,5.6417,5.6417,5.6377,5.6367,5.6427,5.6367,5.6367,5.6427,5.6427,5.6417,5.6417,5.6417,5.6417,5.6417,5.6417,5.6393,5.6414,5.7109,5.7319,5.7347,5.7975,5.8194,5.8102,5.7409,5.673,5.6148,5.6085,5.6063,5.606,5.599,5.5947,5.5912,5.5856,5.5827,5.5817,5.5747,5.5488,5.5045,5.441,5.3716,5.3214,5.3223,5.3213,5.3203,5.3203,5.3203,5.3182,5.314,5.3119,5.3056,5.2966,5.2931,5.2877,5.2829,5.2817,5.2728,5.2556,5.269,5.2805,5.2805,5.2805,5.3091,5.3779,5.3817,5.4218,5.5097,5.5116,5.5212,5.5403,5.5403,5.5403,5.5403,5.5403,5.5403,5.5403,5.5403,5.5403,5.5403,5.5403,5.5403,5.5403,5.5403,5.5403,5.5403,5.5403,5.5403,5.5403,5.5403,5.5403,5.5403,5.6507,5.6507,5.6507,5.6507,5.6507,5.6507,5.6507,5.6507,5.6507,5.6507,5.6507,5.6507,5.6507,5.6507,5.6643,5.7033,5.7072,5.7258,5.7673,5.7692,5.7683,5.7658,5.7603,5.777,5.8162,5.7722,5.7521,5.755,5.7055,5.6835,5.6874,5.6841,5.6848,5.69,5.7308,5.7521,5.755,5.755,5.755,5.7545,5.7513,5.7489,5.7489,5.7915,5.8062,5.8083,5.8474,5.8568,5.8428,5.7985,5.7531,5.7135,5.7109,5.7072,5.7043,5.7013,5.7002,5.6913,5.6487,5.6372,5.6265,5.581,5.5703,5.5598,5.5168,5.4724,5.4395,5.4395,5.4395,5.4395,5.4395,5.4395,5.4374,5.429,5.4276,5.4212,5.4118,5.4089,5.4084,5.4027,5.4046,5.4046,5.4046,5.3664,5.3588,5.4008,5.4046,5.4237,5.4696,5.4715,5.4925,5.5403,5.5403,5.5403,5.5403,5.5403,5.5403,5.5403,5.5403,5.5403,5.5403,5.5403,5.5403,5.5403,5.5403,5.5403,5.5403,5.5403,5.5403,5.5403,5.5403,5.5403,5.5403,5.5403,5.5403,5.5403,5.6507,5.6507,5.6507,5.6507,5.6507,5.6507,5.6507,5.6507,5.6546,5.6682,5.6702,5.676,5.6916,5.6931,5.72,5.7857,5.7916,5.8213,5.8943,5.8971,5.8949,5.8869,5.8856,5.8854,5.889,5.8861,5.8819,5.8748,5.7967,5.7579,5.7539,5.755,5.7555,5.7602,5.832,5.8692,5.8775,5.8775,5.8775,5.8755,5.8692,5.8669,5.8653,5.8729,5.8755,5.8749,5.8848,5.8702,5.8464,5.8464,5.8368,5.8272,5.8256,5.8231,5.8177,5.8177,5.8174,5.8042,5.7381,5.7212,5.7019,5.6308,5.6145,5.6145,5.6145,5.5915,5.5703,5.5703,5.5703,5.5703,5.5703,5.5703,5.5662,5.5596,5.5539,5.548,5.5415,5.539,5.5403,5.5403,5.5403,5.5403,5.5403,5.4753,5.4619,5.5345,5.5403,5.5403,5.5403,5.5403,5.5403,5.5403,5.5403,5.5403,5.5403,5.5403,5.5403,5.5403,5.5403,5.5403,5.5403,5.5403,5.5403,5.5403,5.5403,5.5403,5.5403,5.5403,5.5403,5.5403,5.5403,5.5403,5.5403,5.5403,5.5403,5.5403,5.6507,5.6507,5.6507,5.6507,5.6507,5.6507,5.6507,5.6507,5.676,5.7442,5.754,5.7812,5.8587,5.8666,5.8681,5.8732,5.8751,5.8793,5.8919,5.8869,5.881,5.8729,5.8661,5.8964,5.9647,5.9534,5.9167,5.8544,5.8365,5.824,5.8182,5.817,5.821,5.8268,5.8384,5.8516,5.8632,5.8632,5.8632,5.8624,5.8553,5.849,5.851,5.9135,5.938,5.946,6.0154,5.9871,5.9165,5.9165,5.8704,5.8141,5.8129,5.8117,5.8117,5.8117,5.8105,5.8085,5.7982,5.7992,5.8008,5.7893,5.7908,5.7953,5.7953,5.678,5.5703,5.5703,5.5703,5.5703,5.5703,5.5703,5.5651,5.5539,5.5504,5.5476,5.5409,5.5403,5.5403,5.5403,5.5403,5.5403,5.5403,5.5288,5.5269,5.5403,5.5403,5.5403,5.5403,5.5403,5.5403,5.5403,5.5403,5.5403,5.5403,5.5403,5.5403,5.5403,5.5403,5.5403,5.5403,5.5403,5.5403,5.5403,5.5403,5.5403,5.5403,5.5403,5.5403,5.5403,5.5403,5.5403,5.5403,5.5403,5.5403,5.5403,5.6507,5.6507,5.6507,5.6507,5.6507,5.6643,5.7111,5.7169,5.7472,5.8316,5.8428,5.8554,5.8913,5.8918,5.9056,5.9471,5.951,5.9696,6.0104,6.0076,5.9999,5.9919,5.9853,5.9985,6.0286,6.0242,6.0023,5.9615,5.9177,5.8915,5.885,5.8865,5.8881,5.8982,5.9483,5.9738,5.9831,5.9831,5.9831,5.9821,5.9768,5.9714,5.9727,6.0003,6.0121,6.0161,6.0463,6.0303,5.9911,5.9911,5.9682,5.9375,5.9375,5.9375,5.9389,5.9428,5.9428,5.9345,5.8904,5.8832,5.8765,5.8304,5.8254,5.83,5.83,5.7703,5.7011,5.6541,5.6426,5.6291,5.578,5.5662,5.5607,5.5516,5.5468,5.5427,5.5396,5.5403,5.5403,5.5403,5.5403,5.5403,5.5403,5.5403,5.5403,5.5403,5.5403,5.5403,5.5403,5.5403,5.5403,5.5403,5.5403,5.5403,5.5403,5.5403,5.5403,5.5403,5.5403,5.5403,5.5403,5.5403,5.5403,5.5403,5.5403,5.5403,5.5403,5.5403,5.5403,5.5403,5.5403,5.5403,5.5403,5.5403,5.5403,5.5403]}]]